     2.11           OBSERVATION DATA    G (GPS)             RINEX VERSION / TYPE
teqc 2010Oct21 OPUS Account 20111028 21:16:56UTC            PGM / RUN BY / DATE
D 1528                                                      MARKER NAME
3088                                                        MARKER NUMBER
CSMIDDLETON NGS                                             OBSERVER / AGENCY
4624K01584 TRIMBLE NETR5 4.41                               REC # / TYPE / VERS
60177755 TRM41249.00 NONE                                   ANT # / TYPE
  -697914.5224 -5593131.8892  2974983.7017                  APPROX POSITION XYZ
        2.0000        0.0000        0.0000                  ANTENNA: DELTA H/E/N
     1     1                                                WAVELENGTH FACT L1/2
     5    L1    L2    C1    P1    P2                        # / TYPES OF OBSERV
    15                                                      LEAP SECONDS
  2011     8    29     0     0    0.0000000     GPS         TIME OF FIRST OBS
                                                            END OF HEADER
 11  8 29  0  0  0.0000000  0  9G17G10G04G12G05G09G25G02G30
 123478182.34317  96216820.15416  23497117.523                    23497128.668
 110012528.33918  85724193.75356  20934673.703                    20934682.707
 116570290.23917  90834112.94755  22182573.422                    22182583.418
 111210974.35918  86657973.25217  21162745.414                    21162753.625
 112614736.22918  87751836.67017  21429855.906                    21429865.531
 127015304.44416  98973032.81753  24170226.430                    24170240.938
 123992316.26217  96617447.31616  23594960.063                    23594972.793
 108664642.86418  84673870.90656  20678172.625                    20678178.902
 125625556.35117  97890094.48054  23905750.703                    23905760.906
 11  8 29  0  0 30.0000000  0  9G17G10G04G12G05G09G25G02G30
 123535205.628 7  96261253.820 6  23507969.195                    23507980.055
 110034988.936 8  85741695.51046  20938947.758                    20938956.609
 116649710.006 7  90895998.43545  22197686.680                    22197696.973
 111164689.273 8  86621906.960 7  21153937.938                    21153945.875
 112536726.872 8  87691050.234 7  21415011.289                    21415020.969
 127095966.416 6  99035886.17443  24185576.023                    24185590.305
 123899547.198 7  96545159.754 6  23577306.906                    23577318.508
 108672410.275 8  84679923.44746  20679650.359                    20679657.027
 125528968.726 6  97814831.44043  23887370.883                    23887381.125
 11  8 29  0  1  0.0000000  0  9G17G10G04G12G05G09G25G02G30
 123592405.613 7  96305825.141 6  23518853.422                    23518864.816
 110058069.126 8  85759680.07746  20943339.523                    20943348.367
 116729201.393 7  90957939.72245  22212813.695                    22212823.605
 111118899.444 8  86586226.584 7  21145223.688                    21145232.313
 112459115.065 8  87630573.568 7  21400242.227                    21400252.254
 127176684.437 6  99098783.23043  24200935.953                    24200950.215
 123807036.288 7  96473073.329 6  23559702.375                    23559714.648
 108680421.069 8  84686165.62546  20681174.883                    20681181.621
 125432665.284 6  97739789.82943  23869044.547                    23869054.629
 11  8 29  0  1 30.0000000  0  9G17G10G04G12G05G09G25G02G30
 123649783.022 7  96350534.764 6  23529772.180                    23529783.270
 110081768.265 8  85778146.94846  20947849.453                    20947858.473
 116808762.959 7  91019935.70445  22227953.688                    22227963.691
 111073606.838 8  86550933.660 7  21136605.109                    21136613.824
 112381903.616 8  87570408.872 7  21385549.375                    21385558.652
 127257455.428 6  99161721.51843  24216305.813                    24216320.730
 123714786.156 7  96401190.118 6  23542147.734                    23542160.121
 108688674.125 8  84692596.59446  20682745.148                    20682751.918
 125336648.759 6  97664971.80643  23850773.164                    23850783.180
 11  8 29  0  2  0.0000000  0  9G17G10G04G12G05G09G25G02G30
 123707338.290 6  96395382.945 6  23540724.539                    23540736.406
 110106085.859 8  85797095.72546  20952476.656                    20952485.746
 116888393.054 7  91081985.08345  22243106.406                    22243116.586
 111028813.242 8  86516029.569 7  21128081.109                    21128089.738
 112305095.175 8  87510558.205 7  21370932.703                    21370942.746
 127338276.266 6  99224698.66343  24231686.164                    24231700.441
 123622799.808 7  96329512.467 6  23524643.328                    23524655.246
 108697168.520 8  84699215.60846  20684361.852                    20684368.645
 125240922.350 7  97590379.82143  23832557.125                    23832567.422
 11  8 29  0  2 30.0000000  0  9G17G10G04G12G05G09G25G02G30
 123765071.580 7  96440369.828 6  23551711.008                    23551722.578
 110131020.335 8  85816525.19046  20957221.688                    20957230.844
 116968089.862 7  91144086.44145  22258272.477                    22258282.754
 110984520.973 8  86481516.141 7  21119652.641                    21119661.270
 112228691.937 8  87451023.280 7  21356393.719                    21356403.383
 127419143.747 6  99287712.16943  24247074.727                    24247089.359
 123531079.589 7  96258042.167 6  23507189.930                    23507201.969
 108705902.677 8  84706021.44546  20686023.906                    20686030.688
 125145488.430 6  97516015.76843  23814396.484                    23814407.078
 11  8 29  0  3  0.0000000  0  9G17G10G04G12G05G09G25G02G30
 123822983.493 6  96485495.905 6  23562730.898                    23562742.648
 110156571.115 8  85836434.89446  20962083.945                    20962093.199
 117047851.907 7  91206238.63545  22273450.508                    22273461.035
 110940731.533 8  86447394.514 7  21111319.703                    21111327.938
 112152696.567 8  87391806.178 7  21341932.398                    21341942.094
 127500054.740 6  99350759.54943  24262472.500                    24262486.074
 123439628.294 7  96186781.441 7  23489787.305                    23489799.488
 108714875.551 8  84713013.28446  20687731.477                    20687738.145
 125050350.192 6  97441882.07743  23796293.055                    23796302.281
 11  8 29  0  3 30.0000000  0  9G17G10G04G12G05G09G25G02G30
 123881074.438 6  96530761.501 6  23573785.930                    23573797.512
 110182737.067 8  85856823.94546  20967063.117                    20967072.074
 117127677.368 7  91268440.23745  22288641.047                    22288651.281
 110897446.548 8  86413665.981 7  21103082.953                    21103091.461
 112077111.575 8  87332908.847 7  21327549.063                    21327558.418
 127581005.594 6  99413838.01543  24277876.617                    24277890.906
 123348448.469 7  96115732.230 7  23472436.258                    23472448.266
 108724085.712 8  84720190.03746  20689484.328                    20689490.660
 124955510.082 6  97367980.73543  23778244.313                    23778255.105
 11  8 29  0  4  0.0000000  0  9G17G10G04G12G05G09G25G02G30
 123939344.946 6  96576166.988 6  23584873.805                    23584885.938
 110209517.315 8  85877691.68146  20972159.188                    20972168.359
 117207564.724 7  91330690.08945  22303843.266                    22303853.270
 110854667.894 8  86380331.977 7  21094942.641                    21094951.027
 112001939.233 8  87274333.069 7  21313244.070                    21313253.500
 127661993.077 6  99476944.99443  24293288.648                    24293302.215
 123257542.742 7  96044896.633 7  23455137.156                    23455149.645
 108733531.850 8  84727550.67146  20691281.680                    20691288.207
 124860970.882 6  97294313.84243  23760254.594                    23760264.527
 11  8 29  0  4 30.0000000  0  9G17G10G04G12G05G09G25G02G30
 123997795.251 6  96621712.577 6  23595997.266                    23596008.879
 110236911.077 8  85899037.46446  20977372.234                    20977381.430
 117287512.560 7  91392987.05244  22319056.961                    22319066.871
 110812397.813 8  86347394.280 7  21086898.898                    21086907.184
 111927182.642 8  87216081.231 7  21299018.070                    21299027.945
 127743014.567 6  99540078.52643  24308706.336                    24308720.320
 123166914.220 7  95974277.042 7  23437890.852                    23437903.813
 108743213.289 8  84735094.64646  20693123.664                    20693130.469
 124766735.943 6  97220884.06043  23742321.859                    23742332.297
 11  8 29  0  5  0.0000000  0  9G17G10G04G12G05G09G25G02G30
 124056425.576 6  96667398.448 6  23607153.820                    23607166.422
 110264917.098 8  85920860.33346  20982701.484                    20982710.598
 117367519.251 7  91455329.88745  22334281.719                    22334291.578
 110770637.710 8  86314853.965 7  21078952.133                    21078960.484
 111852843.903 8  87158155.003 7  21284872.125                    21284881.992
 127824066.714 6  99603235.84843  24324129.875                    24324143.461
 123076565.173 7  95903875.237 7  23420698.258                    23420710.625
 108753128.409 8  84742820.70746  20695010.531                    20695017.203
 124672807.644 6  97147693.25843  23724448.164                    23724458.578
 11  8 29  0  5 30.0000000  0  9G17G10G04G12G05G09G25G02G30
 124115236.697 6  96713225.212 6  23618345.508                    23618357.422
 110293534.326 8  85943159.46846  20988147.375                    20988156.172
 117447583.038 7  91517717.21945  22349517.469                    22349527.160
 110729389.671 8  86282712.647 7  21071102.820                    21071111.129
 111778925.117 8  87100556.022 7  21270805.703                    21270815.414
 127905145.938 6  99666414.34343  24339559.352                    24339573.496
 122986498.374 7  95833693.364 7  23403559.141                    23403571.594
 108763275.993 8  84750727.91046  20696941.594                    20696948.176
 124579188.757 6  97074743.49943  23706632.625                    23706642.941
 11  8 29  0  6  0.0000000  0  9G17G10G04G12G05G09G25G02G30
 124174228.954 6  96759193.113 6  23629571.672                    23629583.309
 110322761.882 8  85965934.19846  20993708.594                    20993718.070
 117527702.493 7  91580147.91045  22364763.773                    22364773.441
 110688655.087 8  86250971.427 7  21063351.164                    21063359.184
 111705428.979 8  87043286.361 7  21256819.914                    21256829.246
 127986249.157 6  99729611.52943  24354992.156                    24355007.074
 122896716.431 7  95763733.460 7  23386473.813                    23386486.469
 108773655.109 8  84758815.54046  20698916.289                    20698922.941
 124485882.215 6  97002037.10443  23688877.531                    23688887.438
 11  8 29  0  6 30.0000000  0  9G17G10G04G12G05G09G25G02G30
 124233402.666 6  96805302.422 6  23640832.703                    23640843.516
 110352598.760 8  85989183.70846  20999386.672                    20999395.934
 117607876.149 7  91642620.84445  22380020.141                    22380030.391
 110648435.807 8  86219631.747 7  21055697.625                    21055705.863
 111632358.112 8  86986348.091 7  21242915.172                    21242924.723
 128067373.535 6  99792825.15843  24370430.195                    24370444.613
 122807222.293 7  95693997.832 7  23369443.805                    23369456.570
 108784264.486 8  84767082.59246  20700935.359                    20700942.129
 124392890.931 6  96929576.41343  23671181.992                    23671191.555
 11  8 29  0  7  0.0000000  0  9G17G10G04G12G05G09G25G02G30
 124292758.143 6  96851553.353 6  23652126.828                    23652138.617
 110383043.717 8  86012907.05346  21005180.031                    21005189.117
 117688102.158 7  91705134.57845  22395287.063                    22395296.754
 110608733.629 8  86188694.982 7  21048142.773                    21048150.594
 111559714.933 8  86929743.074 7  21229091.289                    21229100.949
 128148515.591 6  99856052.57543  24385871.203                    24385885.926
 122718018.358 7  95624488.335 6  23352469.203                    23352481.055
 108795102.760 8  84775528.00546  20702998.133                    20703004.727
 124300217.519 6  96857363.41843  23653546.656                    23653556.375
 11  8 29  0  7 30.0000000  0  9G17G10G04G12G05G09G25G02G30
 124352295.931 6  96897946.381 6  23663456.461                    23663467.574
 110414095.586 8  86037103.30546  21011089.219                    21011098.332
 117768379.435 7  91767688.25345  22410562.875                    22410573.180
 110569550.253 8  86158162.482 7  21040685.750                    21040694.566
 111487501.737 8  86873473.120 7  21215349.281                    21215359.191
 128229671.949 6  99919291.14244  24401314.438                    24401329.543
 122629107.381 7  95555207.141 6  23335549.719                    23335561.738
 108806168.689 8  84784150.81346  20705103.914                    20705110.367
 124207864.761 6  96785400.29144  23635972.484                    23635982.879
 11  8 29  0  8  0.0000000  0  9G17G10G04G12G05G09G25G02G30
 124412016.394 7  96944481.748 6  23674821.828                    23674832.965
 110445753.190 8  86061771.56946  21017113.219                    21017122.555
 117848706.243 7  91830280.54145  22425848.852                    22425859.246
 110530887.510 8  86128035.685 7  21033329.055                    21033337.406
 111415720.998 8  86817540.125 7  21201689.852                    21201699.688
 128310839.601 6  99982538.52644  24416760.172                    24416775.070
 122540492.084 7  95486156.296 6  23318686.680                    23318697.922
 108817461.386 8  84792950.32346  20707252.672                    20707259.199
 124115835.644 6  96713689.32344  23618459.727                    23618470.254
 11  8 29  0  8 30.0000000  0  9G17G10G04G12G05G09G25G02G30
 124471919.792 6  96991159.644 6  23686220.813                    23686231.699
 110478015.260 8  86086910.83946  21023252.805                    21023261.938
 117929081.359 7  91892910.45045  22441143.695                    22441154.082
 110492747.094 8  86098315.879 7  21026071.133                    21026079.203
 111344375.137 8  86761946.014 7  21188113.469                    21188122.984
 128392015.665 6 100045792.39743  24432208.188                    24432222.633
 122452175.127 7  95417337.938 6  23301880.531                    23301892.078
 108828979.764 8  84801925.69146  20709444.453                    20709451.621
 124024132.914 6  96642232.67443  23601009.359                    23601019.723
 11  8 29  0  9  0.0000000  0  9G17G10G04G12G05G09G25G02G30
 124532006.415 6  97037980.321 6  23697654.727                    23697666.535
 110510880.544 8  86112520.15346  21029506.820                    21029515.777
 118009502.755 7  91955576.43645  22456447.180                    22456456.871
 110455130.334 8  86069004.113 7  21018912.773                    21018921.309
 111273466.268 8  86706692.404 7  21174619.813                    21174629.434
 128473196.864 6 100109050.31644  24447656.172                    24447671.348
 122364159.078 7  95348754.089 6  23285131.984                    23285143.234
 108840722.038 8  84811075.52446  20711678.828                    20711685.605
 123932759.235 6  96571032.43244  23583621.781                    23583632.105
 11  8 29  0  9 30.0000000  0  9G17G10G04G12G05G09G25G02G30
 124592276.834 6  97084944.219 6  23709124.273                    23709135.645
 110544347.804 8  86138598.54046  21035875.039                    21035884.645
 118089969.102 7  92018277.44545  22471759.805                    22471769.992
 110418038.891 8  86040101.682 7  21011854.742                    21011862.938
 111202996.805 8  86651781.192 7  21161210.023                    21161219.762
 128554379.947 6 100172309.66943  24463105.266                    24463119.805
 122276446.499 7  95280406.671 6  23268440.797                    23268452.246
 108852687.063 8  84820398.93446  20713955.867                    20713963.191
 123841717.369 7  96500090.71444  23566297.531                    23566307.055
 11  8 29  0 10  0.0000000  0  9G17G10G04G12G05G09G25G02G30
 124652731.297 7  97132051.527 6  23720628.359                    23720639.484
 110578415.541 8  86165144.83046  21042358.133                    21042367.176
 118170479.183 7  92081012.53045  22487080.227                    22487090.434
 110381474.435 8  86011609.883 7  21004896.578                    21004905.203
 111132969.040 8  86597214.162 7  21147884.078                    21147893.391
 128635561.733 6 100235568.03144  24478553.531                    24478568.219
 122189040.105 7  95212297.842 6  23251807.883                    23251819.418
 108864873.986 8  84829895.24846  20716274.859                    20716281.801
 123751010.032 6  96429409.70544  23549035.289                    23549046.551
 11  8 29  0 10 30.0000000  0  9G17G10G04G12G05G09G25G02G30
 124713370.134 7  97179302.520 6  23732167.250                    23732178.691
 110613083.001 8  86192158.42646  21048955.141                    21048964.656
 118251031.395 7  92143780.44245  22502408.945                    22502419.051
 110345439.144 8  85983530.419 7  20998039.195                    20998047.613
 111063385.699 8  86542993.440 7  21134642.531                    21134652.129
 128716739.387 6 100298823.16543  24494001.484                    24494016.066
 122101942.868 7  95144429.933 7  23235233.695                    23235245.660
 108877281.806 8  84839563.69846  20718635.938                    20718642.836
 123660640.460 6  96358991.88244  23531839.227                    23531849.441
 11  8 29  0 11  0.0000000  0  9G17G10G04G12G05G09G25G02G30
 124774193.809 6  97226697.514 6  23743741.438                    23743752.727
 110648348.707 8  86219638.19346  21055665.898                    21055675.133
 118331624.474 7  92206580.20745  22517745.102                    22517755.559
 110309934.032 8  85955864.087 7  20991282.836                    20991291.441
 110994249.000 8  86489120.737 7  21121486.180                    21121495.996
 128797909.514 6 100362072.42843  24509447.297                    24509462.063
 122015157.249 7  95076804.815 6  23218718.477                    23218730.500
 108889908.982 8  84849403.08346  20721038.961                    20721045.973
 123570611.185 6  96288839.22144  23514706.617                    23514717.656
 11  8 29  0 11 30.0000000  0  9G17G10G04G12G05G09G25G02G30
 124835202.547 6  97274236.711 6  23755351.734                    23755362.555
 110684211.273 8  86247583.03746  21062490.414                    21062499.707
 118412256.956 7  92269410.66544  22533088.719                    22533099.758
 110274960.902 8  85928612.294 7  20984627.695                    20984636.422
 110925561.195 8  86435597.831 7  21108415.508                    21108424.980
 128879069.201 6 100425313.53343  24524892.219                    24524906.727
 121928685.975 7  95009424.625 7  23202263.234                    23202275.766
 108902754.581 8  84859412.63746  20723483.352                    20723489.969
 123480925.075 7  96218953.94744  23497640.383                    23497650.301
 11  8 29  0 12  0.0000000  0  9G17G10G04G12G05G09G25G02G30
 124896396.714 6  97321920.398 6  23766996.664                    23767008.180
 110720669.333 8  86275991.91246  21069428.203                    21069437.441
 118492927.068 7  92332270.45645  22548439.953                    22548450.375
 110240521.046 8  85901776.037 7  20978074.125                    20978082.695
 110857324.291 8  86382426.266 7  21095430.234                    21095440.031
 128960215.266 6 100488544.07243  24540334.141                    24540348.934
 121842531.473 7  94942291.288 7  23185868.945                    23185881.160
 108915816.984 8  84869591.14946  20725969.063                    20725975.820
 123391584.527 7  96149337.95944  23480639.148                    23480649.316
 11  8 29  0 12 30.0000000  0  9G17G10G04G12G05G09G25G02G30
 124957776.689 6  97369748.874 6  23778676.820                    23778688.188
 110757721.288 8  86304863.55946  21076478.906                    21076487.938
 118573633.498 7  92395158.52244  22563797.797                    22563808.293
 110206616.271 8  85875356.717 7  20971622.227                    20971630.543
 110789540.996 8  86329608.166 7  21082531.430                    21082540.973
 129041344.639 6 100551761.55443  24555771.727                    24555787.320
 121756696.472 7  94875406.915 7  23169534.813                    23169547.344
 108929095.232 8  84879937.85246  20728495.625                    20728502.434
 123302592.500 7  96079993.56544  23463704.484                    23463715.191
 11  8 29  0 13  0.0000000  0  9G17G10G04G12G05G09G25G02G30
 125019342.530 6  97417722.204 6  23790391.773                    23790403.902
 110795365.707 8  86334196.87246  21083642.758                    21083651.551
 118654375.116 7  92458074.04344  22579162.563                    22579172.918
 110173247.604 8  85849355.158 7  20965272.188                    20965280.813
 110722212.821 8  86277144.721 7  21069719.555                    21069728.844
 129122454.425 6 100614963.76843  24571207.031                    24571222.730
 121671183.600 7  94808773.565 7  23153262.406                    23153274.445
 108942588.296 8  84890451.95446  20731063.648                    20731070.055
 123213951.840 7  96010922.96244  23446837.125                    23446846.949
 11  8 29  0 13 30.0000000  0  9G17G10G04G12G05G09G25G02G30
 125081094.519 6  97465840.519 6  23802143.016                    23802155.305
 110833601.359 8  86363990.88946  21090918.508                    21090927.414
 118735150.121 7  92521015.56544  22594533.133                    22594543.324
 110140416.699 8  85823772.640 7  20959025.133                    20959033.133
 110655342.144 8  86225037.747 7  21056994.258                    21057003.848
 129203541.350 6 100678148.20843  24586637.406                    24586652.727
 121585995.432 7  94742393.222 7  23137051.875                    23137063.625
 108956294.634 8  84901132.23946  20733671.898                    20733678.398
 123125664.989 6  95942128.06143  23430036.336                    23430046.508
 11  8 29  0 14  0.0000000  0  9G17G10G04G12G05G09G25G02G30
 125143033.430 6  97514104.542 6  23813930.000                    23813941.492
 110872426.863 8  86394244.52246  21098306.711                    21098315.996
 118815957.417 7  92583982.24944  22609910.953                    22609920.891
 110108125.281 8  85798610.488 7  20952880.164                    20952888.223
 110588931.887 8  86173289.554 7  21044357.039                    21044366.383
 129284602.419 6 100741312.46643  24602062.516                    24602078.285
 121501134.807 7  94676268.104 7  23120903.227                    23120915.262
 108970213.475 8  84911978.10346  20736320.445                    20736326.840
 123037735.070 7  95873611.28944  23413304.313                    23413313.914
 11  8 29  0 14 30.0000000  0  9G17G10G04G12G05G09G25G02G30
 125205159.078 6  97562514.025 6  23825752.367                    23825764.230
 110911840.714 8  86424956.61246  21105807.305                    21105815.988
 118896795.587 7  92646972.98244  22625294.289                    22625304.102
 110076374.749 8  85773869.824 7  20946838.023                    20946846.359
 110522983.922 8  86121901.583 7  21031807.445                    21031816.742
 129365634.657 6 100804454.22443  24617482.859                    24617498.434
 121416604.293 7  94610400.195 7  23104817.656                    23104829.348
 108984343.329 8  84922988.38746  20739009.344                    20739015.742
 122950164.641 7  95805374.63844  23396640.227                    23396650.047
 11  8 29  0 15  0.0000000  0  9G17G10G04G12G05G09G25G02G30
 125267471.888 6  97611069.397 6  23837609.984                    23837621.074
 110951841.157 8  86456125.78446  21113418.953                    21113427.930
 118977663.096 7  92709986.59044  22640682.461                    22640693.016
 110045166.352 8  85749551.605 7  20940899.102                    20940907.629
 110457500.390 8  86070875.504 7  21019346.336                    21019355.336
 129446634.778 6 100867570.97243  24632896.000                    24632912.656
 121332406.430 7  94544791.534 7  23088795.367                    23088807.063
 108998682.961 8  84934162.12646  20741737.383                    20741744.453
 122862956.531 6  95737420.33043  23380044.664                    23380054.871
 11  8 29  0 15 30.0000000  0  9G17G10G04G12G05G09G25G02G30
 125329971.986 6  97659770.685 6  23849503.594                    23849515.445
 110992426.437 8  86487750.67246  21121142.000                    21121151.172
 119058558.685 7  92773022.07944  22656076.531                    22656086.723
 110014501.256 8  85725656.737 7  20935063.891                    20935072.289
 110392483.291 8  86020212.883 7  21006973.906                    21006983.043
 129527599.980 6 100930660.56142  24648304.109                    24648320.285
 121248543.840 7  94479444.092 7  23072837.008                    23072848.121
 109013231.408 8  84945498.58746  20744506.234                    20744512.902
 122776113.239 6  95669750.32544  23363518.766                    23363528.844
 11  8 29  0 16  0.0000000  0  9G17G10G04G12G05G09G25G02G30
 125392659.777 6  97708618.250 6  23861431.938                    23861443.895
 111033594.598 8  86519829.75646  21128976.055                    21128985.074
 119139480.765 7  92836078.20844  22671475.625                    22671485.852
 109984380.993 8  85702186.421 7  20929332.320                    20929340.414
 110327934.164 8  85969914.918 7  20994690.406                    20994699.648
 129608526.890 6 100993720.26842  24663703.422                    24663719.133
 121165018.901 7  94414359.771 7  23056942.703                    23056954.215
 109027987.078 8  84956996.51146  20747314.297                    20747320.500
 122689637.374 7  95602366.56943  23347062.930                    23347072.922
 11  8 29  0 16 30.0000000  0  9G17G10G04G12G05G09G25G02G30
 125455535.675 6  97757612.354 6  23873397.141                    23873409.516
 111075344.945 8  86552362.49346  21136920.656                    21136930.207
 119220428.376 7  92899154.23444  22686879.555                    22686889.551
 109954806.737 8  85679141.564 7  20923704.273                    20923712.594
 110263856.077 8  85919983.992 7  20982496.836                    20982506.059
 129689412.842 6 101056748.07442  24679096.836                    24679112.434
 121081834.558 7  94349540.845 7  23041112.758                    23041124.402
 109042949.217 8  84968655.32646  20750161.547                    20750168.008
 122603531.997 7  95535271.53643  23330677.859                    23330687.469
 11  8 29  0 17  0.0000000  0  9G17G10G04G12G05G09G25G02G30
 125518599.632 6  97806753.032 6  23885397.719                    23885410.281
 111117675.576 8  86585347.40046  21144976.180                    21144985.234
 119301399.939 7  92962248.90944  22702288.031                    22702297.789
 109925780.124 8  85656523.428 7  20918180.586                    20918188.980
 110200251.024 8  85870421.681 7  20970393.109                    20970402.457
 129770254.756 6 101119741.59542  24694480.070                    24694495.504
 120998993.309 7  94284989.264 7  23025348.617                    23025359.941
 109058116.414 8  84980473.93646  20753047.703                    20753054.277
 122517799.614 7  95468467.13744  23314363.055                    23314373.023
 11  8 29  0 17 30.0000000  0  9G17G10G04G12G05G09G25G02G30
 125581851.904 6  97856040.427 6  23897434.961                    23897446.938
 111160584.473 8  86618782.89946  21153141.227                    21153150.578
 119382394.170 7  93025361.25144  22717700.414                    22717710.602
 109897302.169 8  85634332.829 7  20912761.602                    20912769.566
 110137120.623 8  85821229.204 7  20958379.781                    20958389.063
 129851049.464 6 101182698.29642  24709855.438                    24709870.621
 120916497.596 7  94220706.937 7  23009650.086                    23009661.992
 109073487.151 8  84992451.13446  20755972.805                    20755979.199
 122432442.743 7  95401955.31144  23298120.586                    23298129.781
 11  8 29  0 18  0.0000000  0  9G17G10G04G12G05G09G25G02G30
 125645292.706 6  97905474.771 6  23909507.117                    23909519.332
 111204070.477 8  86652668.08546  21161416.641                    21161425.633
 119463409.923 7  93088490.36344  22733117.203                    22733127.883
 109869374.640 8  85612571.133 7  20907447.164                    20907455.590
 110074467.193 8  85772408.407 7  20946457.188                    20946466.188
 129931794.258 6 101245616.13843  24725220.484                    24725235.875
 120834350.248 7  94156696.048 7  22994017.930                    22994029.648
 109089060.998 8  85004586.59046  20758936.586                    20758943.129
 122347464.297 7  95335738.40844  23281949.297                    23281959.227
 11  8 29  0 18 30.0000000  0  9G17G10G04G12G05G09G25G02G30
 125708922.628 6  97955056.442 6  23921615.477                    23921627.508
 111248131.835 7  86687001.59846  21169800.969                    21169810.598
 119544445.846 7  93151635.20544  22748537.852                    22748548.492
 109841998.909 8  85591239.400 7  20902237.758                    20902245.676
 110012292.932 8  85723960.979 7  20934625.641                    20934634.926
 130012485.963 6 101308492.57143  24740575.758                    24740591.664
 120752553.816 7  94092958.588 7  22978452.828                    22978464.836
 109104836.621 8  85016879.28746  20761938.367                    20761945.051
 122262867.053 7  95269818.52344  23265851.047                    23265861.340
 11  8 29  0 19  0.0000000  0  9G17G10G04G12G05G09G25G02G30
 125772741.565 6  98004785.380 6  23933759.969                    23933772.473
 111292766.621 8  86721781.95546  21178294.656                    21178303.602
 119625500.643 7  93214794.73744  22763961.797                    22763972.324
 109815175.201 8  85570337.822 7  20897133.328                    20897141.863
 109950599.654 8  85675888.350 7  20922886.039                    20922895.086
 130093121.444 6 101371325.23743  24755920.773                    24755936.156
 120671110.700 7  94029496.448 7  22962954.797                    22962966.578
 109120812.517 8  85029328.03346  20764978.328                    20764985.051
 122178653.432 6  95204197.57244  23249825.648                    23249835.543
 11  8 29  0 19 30.0000000  0  9G17G10G04G12G05G09G25G02G30
 125836750.098 7  98054662.125 6  23945940.164                    23945952.508
 111337973.532 8  86757008.09745  21186897.656                    21186906.684
 119706573.001 7  93277967.94244  22779389.539                    22779399.684
 109788905.730 8  85549868.103 7  20892134.664                    20892142.766
 109889389.668 8  85628192.311 7  20911237.852                    20911246.973
 130173697.894 6 101434111.91143  24771253.891                    24771269.430
 120590023.850 7  93966311.912 7  22947524.242                    22947536.023
 109136987.831 8  85041932.17046  20768056.398                    20768062.828
 122094826.510 6  95138877.92143  23233874.609                    23233883.789
 11  8 29  0 20  0.0000000  0  9G17G10G04G12G05G09G25G02G30
 125900948.090 6  98104686.471 6  23958157.289                    23958168.641
 111383750.526 8  86792678.48746  21195608.734                    21195617.703
 119787661.790 7  93341153.97544  22794820.602                    22794831.168
 109763191.188 8  85529830.808 7  20887240.852                    20887249.484
 109828665.015 8  85580874.456 7  20899682.664                    20899691.563
 130254212.347 6 101496850.25743  24786575.523                    24786591.059
 120509295.568 7  93903406.765 7  22932162.320                    22932174.176
 109153361.347 8  85054690.76446  20771172.320                    20771179.074
 122011388.605 6  95073861.44444  23217996.031                    23218006.445
 11  8 29  0 20 30.0000000  0  9G17G10G04G12G05G09G25G02G30
 125965335.808 6  98154858.624 6  23970409.313                    23970421.723
 111430095.767 8  86828791.65646  21204427.648                    21204436.563
 119868765.594 7  93404351.69444  22810254.273                    22810264.246
 109738033.068 8  85510227.083 7  20882453.508                    20882461.949
 109768427.354 8  85533936.073 7  20888219.641                    20888228.980
 130334661.933 6 101559538.03643  24801885.109                    24801900.172
 120428928.581 7  93840783.172 7  22916868.766                    22916880.676
 109169931.841 8  85067602.82446  20774325.313                    20774331.988
 121928342.578 7  95009150.29344  23202193.125                    23202203.109
 11  8 29  0 21  0.0000000  0  9G17G10G04G12G05G09G25G02G30
 126029913.542 6  98205178.854 6  23982698.281                    23982710.547
 111477007.358 8  86865346.13646  21213354.555                    21213363.473
 119949883.297 7  93467560.24544  22825690.203                    22825700.637
 109713432.500 8  85491057.804 7  20877772.547                    20877780.918
 109708678.939 8  85487378.915 7  20876849.375                    20876858.895
 130415043.719 6 101622172.99543  24817181.344                    24817197.074
 120348925.322 7  93778442.985 7  22901644.914                    22901656.641
 109186698.347 8  85080667.62846  20777515.695                    20777522.641
 121845691.009 7  94944746.51544  23186465.094                    23186474.563
 11  8 29  0 21 30.0000000  0  9G17G10G04G12G05G09G25G02G30
 126094681.498 6  98255647.331 6  23995023.203                    23995035.563
 111524483.407 8  86902340.44446  21222388.703                    21222397.953
 120031013.526 7  93530778.55644  22841129.219                    22841138.996
 109689390.395 8  85472323.703 7  20873197.406                    20873205.652
 109649421.498 8  85441204.329 7  20865573.508                    20865582.430
 130495354.572 6 101684752.69343  24832464.406                    24832479.973
 120269288.281 8  93716388.198 7  22886490.219                    22886501.965
 109203659.435 8  85093884.05146  20780743.672                    20780750.578
 121763436.309 7  94880652.01544  23170812.609                    23170822.469
 11  8 29  0 22  0.0000000  0  9G17G10G04G12G05G09G25G02G30
 126159639.808 6  98306264.132 6  24007384.523                    24007396.473
 111572522.620 8  86939773.59445  21231530.813                    21231539.656
 120112155.153 7  93594005.75644  22856569.703                    22856579.887
 109665907.796 8  85454025.582 7  20868728.750                    20868736.805
 109590657.185 8  85395414.008 7  20854390.625                    20854400.039
 130575591.763 6 101747274.99343  24847732.602                    24847748.957
 120190020.104 7  93654620.796 7  22871406.008                    22871417.586
 109220813.975 8  85107251.23046  20784007.930                    20784014.520
 121681581.348 7  94816868.97444  23155236.305                    23155245.969
 11  8 29  0 22 30.0000000  0  9G17G10G04G12G05G09G25G02G30
 126224789.213 6  98357029.849 6  24019782.578                    24019794.270
 111621123.370 7  86977644.29645  21240779.102                    21240788.168
 120193307.645 7  93657241.41644  22872012.563                    22872023.207
 109642986.793 8  85436165.066 7  20864366.867                    20864375.215
 109532388.408 8  85350009.816 7  20843302.906                    20843311.508
 130655753.019 6 101809738.13443  24862986.891                    24863002.828
 120111124.008 7  93593143.351 7  22856392.898                    22856404.375
 109238161.517 8  85120768.80246  20787309.000                    20787315.582
 121600129.285 7  94753399.89344  23139736.242                    23139745.859
 11  8 29  0 23  0.0000000  0  8G17G10G04G12G05G25G02G30
 126290130.808 6  98407945.320 6  24032215.781                    24032228.273
 111670284.446 8  87015951.62346  21250133.953                    21250142.938
 120274470.552 7  93720485.19644  22887457.031                    22887467.602
 109620628.651 8  85418743.135 7  20860112.406                    20860120.816
 109474618.012 8  85304993.971 7  20832309.453                    20832318.680
 120032603.203 7  93531958.339 7  22841450.578                    22841462.324
 109255701.588 8  85134436.39146  20790646.750                    20790652.957
 121519083.522 7  94690247.39244  23124313.141                    23124322.891
 11  8 29  0 23 30.0000000  0  8G17G10G04G12G05G25G02G30
 126355663.028 6  98459009.303 6  24044686.734                    24044698.563
 111720002.432 8  87054692.91045  21259595.227                    21259604.707
 120355640.974 7  93783734.82344  22902903.727                    22902914.066
 109598833.262 8  85401759.719 7  20855964.719                    20855973.340
 109417346.012 8  85260366.482 8  20821410.758                    20821419.621
 119954458.634 7  93471066.496 7  22826580.320                    22826591.605
 109273431.666 8  85148252.03946  20794020.844                    20794027.582
 121438444.983 6  94627412.22844  23108968.492                    23108978.484
 11  8 29  0 24  0.0000000  0  8G17G10G04G12G05G25G02G30
 126421386.017 6  98510221.980 6  24057193.094                    24057205.625
 111770275.523 8  87093866.74146  21269161.648                    21269170.516
 120436817.698 7  93846989.36744  22918351.336                    22918361.766
 109577601.589 8  85385215.565 7  20851924.773                    20851932.867
 109360574.250 8  85216128.791 8  20810607.594                    20810616.609
 119876692.899 7  93410469.852 7  22811781.461                    22811793.313
 109291350.577 8  85162214.84346  20797430.633                    20797437.297
 121358216.348 7  94564896.47244  23093701.352                    23093711.684
 11  8 29  0 24 30.0000000  0  8G17G10G04G12G05G25G02G30
 126487299.668 6  98561583.165 6  24069736.578                    24069748.676
 111821101.307 7  87133471.23446  21278833.680                    21278842.582
 120517999.668 7  93910247.99644  22933799.867                    22933809.789
 109556934.309 8  85369111.187 7  20847991.898                    20848000.219
 109304304.564 8  85172282.338 8  20799899.344                    20799908.563
 119799308.211 7  93350170.124 7  22797055.789                    22797067.832
 109309456.777 8  85176323.58046  20800876.039                    20800882.367
 121278400.008 7  94502701.95044  23078512.914                    23078522.957
 11  8 29  0 25  0.0000000  0  8G17G10G04G12G05G25G02G30
 126553404.496 6  98613093.369 6  24082315.727                    24082327.441
 111872478.562 8  87173505.45945  21288610.539                    21288619.473
 120599185.895 7  93973509.94044  22949249.008                    22949259.828
 109536832.619 8  85353447.548 7  20844166.555                    20844175.152
 109248539.172 8  85128828.827 7  20789287.922                    20789296.977
 119722307.489 7  93290169.585 7  22782403.133                    22782414.957
 109327749.667 8  85190577.77246  20804356.844                    20804363.797
 121198998.811 7  94440830.92244  23063402.891                    23063413.500
 11  8 29  0 25 30.0000000  0  8G17G10G04G12G05G25G02G30
 126619700.661 6  98664752.628 6  24094931.445                    24094944.520
 111924404.958 8  87213967.57945  21298491.320                    21298500.598
 120680374.960 7  94036774.10644  22964698.680                    22964708.547
 109517297.662 8  85338225.510 7  20840449.195                    20840457.355
 109193279.620 8  85085769.480 7  20778772.352                    20778781.250
 119645693.037 7  93230470.057 7  22767824.227                    22767835.633
 109346228.044 8  85204976.52046  20807873.547                    20807880.016
 121120015.213 7  94379285.32044  23048373.125                    23048382.629
 11  8 29  0 26  0.0000000  0  8G17G10G04G12G05G25G02G30
 126686188.007 6  98716560.824 6  24107583.734                    24107595.945
 111976878.491 8  87254856.04845  21308477.016                    21308485.996
 120761565.836 7  94100039.66844  22980148.750                    22980158.293
 109498330.158 8  85323445.628 7  20836839.875                    20836848.367
 109138527.353 8  85043105.424 7  20768353.000                    20768361.633
 119569467.403 7  93171073.475 7  22753318.414                    22753330.207
 109364890.454 8  85219518.66146  20811424.953                    20811431.504
 121041451.763 7  94318067.05444  23033423.039                    23033432.414
 11  8 29  0 26 30.0000000  0  8G17G10G04G12G05G25G02G30
 126752866.954 7  98768518.376 6  24120272.609                    24120284.480
 112029897.627 8  87296169.64745  21318566.375                    21318575.316
 120842757.910 7  94163306.16744  22995598.828                    22995609.543
 109479931.426 8  85309108.957 7  20833338.539                    20833347.039
 109084284.847 8  85000838.589 8  20758031.281                    20758040.410
 119493633.448 7  93111982.106 7  22738887.961                    22738899.906
 109383736.618 8  85234204.00346  20815010.945                    20815017.574
 120963311.435 7  94257178.51944  23018552.602                    23018563.070
 11  8 29  0 27  0.0000000  0  8G17G10G04G12G05G25G02G30
 126819737.427 7  98820625.137 6  24132997.617                    24133009.293
 112083459.716 8  87337906.33945  21328758.422                    21328767.898
 120923949.384 7  94226572.18144  23011049.430                    23011059.953
 109462102.026 8  85295215.914 7  20829945.641                    20829954.070
 109030553.403 8  84958969.970 8  20747806.445                    20747815.879
 119418193.300 7  93053197.608 7  22724531.938                    22724543.863
 109402764.772 8  85249031.13446  20818631.984                    20818638.461
 120885596.405 7  94196621.38444  23003764.672                    23003773.605
 11  8 29  0 27 30.0000000  0  8G17G10G04G12G05G25G02G30
 126886799.720 7  98872881.353 6  24145759.766                    24145771.449
 112137562.877 8  87380064.63145  21339054.016                    21339063.348
 121005139.546 7  94289837.19844  23026499.063                    23026510.180
 109444842.722 8  85281767.105 7  20826661.250                    20826669.715
 108977335.043 8  84917501.164 7  20737679.047                    20737688.305
 119343149.286 7  92994721.777 7  22710251.594                    22710263.105
 109421973.893 8  85263999.29646  20822287.516                    20822293.723
 120808309.028 7  94136397.45544  22989057.617                    22989067.102
 11  8 29  0 28  0.0000000  0  8G17G10G04G12G05G25G02G30
 126954053.656 7  98925286.940 6  24158557.672                    24158569.352
 112192204.647 8  87422642.62745  21349452.289                    21349461.508
 121086326.942 7  94353100.03844  23041948.633                    23041959.313
 109428154.145 8  85268763.012 7  20823485.625                    20823494.004
 108924630.809 8  84876432.969 8  20727649.633                    20727658.977
 119268503.731 7  92936556.435 7  22696047.000                    22696059.199
 109441362.520 8  85279107.32046  20825976.797                    20825983.465
 120731451.744 7  94076508.65644  22974432.680                    22974441.879
 11  8 29  0 28 30.0000000  0  8G17G10G04G12G05G25G02G30
 127021499.670 7  98977842.171 6  24171391.898                    24171403.664
 112247383.754 8  87465639.32845  21359952.664                    21359961.523
 121167510.715 7  94416360.06044  23057397.578                    23057408.148
 109412037.902 8  85256204.888 7  20820419.094                    20820427.863
 108872443.113 8  84835767.275 8  20717718.969                    20717727.543
 119194259.620 7  92878703.900 7  22681918.789                    22681930.348
 109460930.269 8  85294354.91546  20829700.727                    20829706.844
 120655027.561 7  94016957.37244  22959888.742                    22959898.379
 11  8 29  0 29  0.0000000  0  8G17G10G04G12G05G25G02G30
 127089137.715 7  99030547.078 6  24184262.297                    24184275.172
 112303098.130 8  87509053.12145  21370554.430                    21370563.664
 121248690.296 6  94479616.80844  23072845.492                    23072855.676
 109396494.102 8  85244092.832 7  20817460.867                    20817469.090
 108820773.625 8  84795505.375 8  20707886.234                    20707895.465
 119120419.514 7  92821166.167 7  22667867.461                    22667879.414
 109480675.921 8  85309741.14546  20833458.188                    20833464.605
 120579038.999 7  93957745.52944  22945428.688                    22945438.145
 11  8 29  0 29 30.0000000  0  8G17G10G04G12G05G25G02G30
 127156967.670 6  99083401.548 6  24197170.906                    24197183.168
 112359344.756 8  87552881.64745  21381257.813                    21381266.957
 121329863.925 7  94542868.92444  23088292.047                    23088303.383
 109381523.458 8  85232427.389 7  20814612.359                    20814620.434
 108769623.734 8  84755648.358 8  20698152.648                    20698162.188
 119046985.164 7  92763944.625 7  22653893.383                    22653905.246
 109500597.802 8  85325264.68346  20837249.094                    20837255.906
 120503488.071 6  93898874.67544  22931051.711                    22931060.691
 11  8 29  0 30  0.0000000  0  8G17G10G04G12G05G25G02G30
 127224989.456 6  99136405.466 6  24210114.656                    24210127.469
 112416121.203 8  87597123.02545  21392062.406                    21392071.031
 121411030.471 7  94606115.49844  23103738.188                    23103749.047
 109367126.710 8  85221209.124 7  20811872.680                    20811880.988
 108718994.823 8  84716197.295 8  20688518.531                    20688527.270
 118973958.901 7  92707041.056 7  22639996.656                    22640008.625
 109520694.658 8  85340924.56946  20841073.305                    20841079.758
 120428376.931 7  93840346.53444  22916758.555                    22916767.652
 11  8 29  0 30 30.0000000  0  8G17G10G04G12G05G25G02G30
 127293203.436 6  99189559.165 6  24223095.273                    24223108.160
 112473426.135 8  87641776.21345  21402966.766                    21402975.621
 121492189.130 7  94669355.94344  23119182.031                    23119192.723
 109353304.914 8  85210438.885 7  20809242.391                    20809250.555
 108668888.541 8  84677153.481 8  20678983.227                    20678992.563
 118901343.651 7  92650457.744 7  22626178.852                    22626189.816
 109540966.027 8  85356720.43746  20844930.703                    20844937.367
 120353708.620 7  93782163.43744  22902549.750                    22902559.258
 11  8 29  0 31  0.0000000  0  8G17G10G04G12G05G25G02G30
 127361609.840 6  99242862.823 6  24236112.727                    24236125.094
 112531257.225 8  87686839.38445  21413971.492                    21413980.777
 121573339.130 7  94732589.62844  23134624.711                    23134635.523
 109340058.974 8  85200117.359 7  20806721.867                    20806730.313
 108619306.497 8  84638518.170 8  20669548.523                    20669557.184
 118829141.776 7  92594196.548 7  22612438.953                    22612450.480
 109561411.093 8  85372651.66146  20848821.508                    20848828.215
 120279485.719 7  93724327.44944  22888425.375                    22888435.539
 11  8 29  0 31 30.0000000  0  8G17G10G04G12G05G25G02G30
 127430208.408 6  99296316.202 6  24249167.234                    24249179.777
 112589612.062 8  87732310.68245  21425076.195                    21425085.105
 121654479.208 7  94795815.58144  23150065.281                    23150075.832
 109327388.578 8  85190244.322 7  20804310.969                    20804319.227
 108570250.160 8  84600292.493 8  20660213.313                    20660222.199
 118757355.508 7  92538259.207 7  22598778.469                    22598790.641
 109582028.185 8  85388716.92146  20852744.820                    20852751.262
 120205710.204 7  93666840.07744  22874386.383                    22874396.262
 11  8 29  0 32  0.0000000  0  8G17G10G04G12G05G25G02G30
 127498999.192 6  99349919.370 6  24262257.508                    24262269.855
 112648488.723 8  87778188.58245  21436280.250                    21436289.313
 121735608.601 7  94859033.22344  23165503.617                    23165514.273
 109315295.221 8  85180820.921 7  20802009.188                    20802017.734
 108521721.563 8  84562478.038 7  20650978.430                    20650987.391
 118685987.548 7  92482647.817 7  22585197.648                    22585209.309
 109602816.701 8  85404915.77046  20856700.633                    20856707.191
 120132384.971 7  93609703.56644  22860432.750                    22860442.582
 11  8 29  0 32 30.0000000  0  8G17G10G04G12G05G25G02G30
 127567982.163 6  99403672.290 6  24275384.398                    24275396.324
 112707884.679 8  87824471.13546  21447583.086                    21447592.039
 121816725.821 7  94922241.38644  23180939.953                    23180950.660
 109303778.912 8  85171847.159 7  20799817.969                    20799826.367
 108473721.474 8  84525075.417 8  20641844.352                    20641853.398
 118615039.795 7  92427363.853 7  22571696.898                    22571708.168
 109623774.718 8  85421246.67846  20860688.547                    20860695.469
 120059511.919 6  93552919.40144  22846565.359                    22846575.852
 11  8 29  0 33  0.0000000  0  8G17G10G04G12G05G25G02G30
 127637157.436 6  99457575.062 6  24288547.672                    24288560.359
 112767797.734 8  87871156.61245  21458983.945                    21458993.004
 121897830.294 7  94985439.61844  23196373.609                    23196384.102
 109292840.485 8  85163323.707 7  20797736.281                    20797744.426
 108426251.947 8  84488086.213 8  20632810.805                    20632819.898
 118544514.770 7  92372409.288 7  22558276.289                    22558288.125
 109644901.862 8  85437709.37946  20864709.313                    20864715.594
 119987093.692 7  93496489.62944  22832785.156                    22832794.707
 11  8 29  0 33 30.0000000  0  8G17G10G04G12G05G25G02G30
 127706525.125 6  99511627.772 6  24301748.305                    24301760.398
 112828225.939 8  87918243.51645  21470482.852                    21470492.535
 121978921.009 7  95048627.11544  23211804.430                    23211815.309
 109282480.813 8  85155251.222 7  20795765.148                    20795773.461
 108379314.714 8  84451511.787 8  20623879.281                    20623888.141
 118474415.197 7  92317786.257 7  22544937.367                    22544948.668
 109666197.412 8  85454303.29346  20868761.547                    20868768.070
 119915132.879 7  93440416.30844  22819091.141                    22819100.578
 11  8 29  0 34  0.0000000  0  8G17G10G04G12G05G25G02G30
 127776085.118 6  99565830.327 5  24314985.297                    24314997.379
 112889167.051 8  87965730.07845  21482080.148                    21482088.762
 122059997.109 7  95111803.23744  23227232.813                    23227243.434
 109272700.467 8  85147630.178 7  20793903.586                    20793912.168
 108332910.861 8  84415352.972 8  20615048.930                    20615058.074
 118404743.340 7  92263496.506 7  22531679.016                    22531690.047
 109687660.094 8  85471027.44946  20872845.805                    20872852.277
 119843631.891 7  93384701.28144  22805485.500                    22805494.801
 11  8 29  0 34 30.0000000  0  8G17G10G04G12G05G25G02G30
 127845837.423 6  99620182.741 6  24328258.109                    24328270.859
 112950618.477 7  88013614.28145  21493773.570                    21493782.641
 122141057.525 7  95174967.13644  23242658.555                    23242669.559
 109263499.758 8  85140460.783 7  20792153.023                    20792161.676
 108287041.829 8  84379610.924 8  20606320.375                    20606329.230
 118335501.331 7  92209541.698 7  22518502.539                    22518513.484
 109709288.823 8  85487880.99346  20876961.680                    20876968.465
 119772592.799 7  93329346.17444  22791966.992                    22791976.477
 11  8 29  0 35  0.0000000  0  8G17G10G04G12G05G25G02G30
 127915782.007 6  99674684.953 6  24341568.984                    24341580.582
 113012578.297 7  88061894.64245  21505564.547                    21505573.289
 122222101.387 7  95238118.14944  23258079.922                    23258091.125
 109254879.141 8  85133743.404 7  20790512.750                    20790521.504
 108241708.820 8  84344286.545 8  20597693.516                    20597702.594
 118266691.556 7  92155923.708 7  22505408.625                    22505419.770
 109731082.409 8  85504862.99746  20881108.891                    20881115.199
 119702018.081 7  93274352.92044  22778536.977                    22778546.445
 11  8 29  0 35 30.0000000  0  8G17G10G04G12G05G25G02G30
 127985918.661 6  99729336.885 5  24354915.203                    24354927.488
 113075043.595 7  88110568.88645  21517450.898                    21517460.426
 122303127.546 6  95301255.36144  23273499.531                    23273509.441
 109246838.754 8  85127478.173 7  20788982.492                    20788991.109
 108196913.298 8  84309380.980 8  20589169.492                    20589178.023
 118198316.186 8  92102644.224 7  22492396.930                    22492408.332
 109753039.520 8  85521972.42946  20885287.016                    20885293.961
 119631909.909 7  93219723.20044  22765195.633                    22765205.258
 11  8 29  0 36  0.0000000  0  8G17G10G04G12G05G25G02G30
 128056247.406 6  99784138.447 5  24368297.992                    24368310.637
 113138012.056 7  88159635.20445  21529433.773                    21529442.969
 122384135.009 7  95364378.02043  23288913.820                    23288924.824
 109239379.412 8  85121665.691 7  20787563.219                    20787571.680
 108152656.403 8  84274895.136 8  20580747.438                    20580756.414
 118130377.389 7  92049704.929 7  22479468.625                    22479480.375
 109775159.304 8  85539208.61246  20889496.313                    20889503.395
 119562270.484 7  93165458.72044  22751944.117                    22751953.434
 11  8 29  0 36 30.0000000  0  9G17G10G04G12G05G29G25G02G30
 128126768.318 7  99839089.797 6  24381718.523                    24381730.191
 113201481.499 7  88209091.89345  21541511.273                    21541520.602
 122465123.095 6  95427485.58444  23304325.828                    23304336.480
 109232501.359 7  85116306.166 7  20786254.445                    20786262.672
 108108940.024 8  84240830.466 8  20572428.695                    20572437.516
 129561226.59017 100956850.75616  24654689.016                    24654698.895
 118062877.667 8  91997107.776 7  22466623.898                    22466635.250
 109797440.732 7  85556570.74646  20893736.555                    20893743.070
 119493102.190 7  93111561.36945  22738781.438                    22738792.199
 11  8 29  0 37  0.0000000  0  9G17G10G04G12G05G29G25G02G30
 128197481.608 6  99894191.051 6  24395173.664                    24395187.133
 113265450.014 7  88258937.46745  21553684.477                    21553693.930
 122546091.405 6  95490577.73143  23319732.961                    23319744.203
 109226205.367 8  85111400.192 7  20785056.242                    20785064.473
 108065765.559 8  84207188.061 8  20564212.477                    20564221.559
 129481013.487 6 100894347.056 6  24639425.063                    24639435.195
 117995819.717 7  91944854.870 7  22453863.289                    22453874.680
 109819883.396 8  85574058.52946  20898006.836                    20898013.559
 119424407.904 7  93058033.37344  22725709.531                    22725719.227
 11  8 29  0 37 30.0000000  0  9G17G10G04G12G05G29G25G02G30
 128268387.725 6  99949442.567 6  24408667.625                    24408679.746
 113329915.203 8  88309170.06245  21565951.539                    21565960.945
 122627039.073 6  95553653.75643  23335137.359                    23335147.582
 109220492.286 7  85106948.435 7  20783968.828                    20783977.453
 108023134.475 8  84173969.082 8  20556100.164                    20556108.852
 129400720.071 6 100831780.770 6  24624144.977                    24624155.965
 117929206.063 7  91892948.154 7  22441186.867                    22441198.238
 109842486.435 7  85591671.27546  20902308.109                    20902314.746
 119356189.974 7  93004876.53544  22712728.008                    22712737.770
 11  8 29  0 38  0.0000000  0  9G17G10G04G12G05G29G25G02G30
 128339485.599 6 100004843.500 6  24422196.773                    24422209.285
 113394874.041 7  88359787.32445  21578312.828                    21578321.922
 122707964.777 6  95616712.70044  23350537.016                    23350547.535
 109215361.512 8  85102950.418 7  20782992.531                    20783001.176
 107981047.819 8  84141174.331 8  20548091.438                    20548100.516
 129320345.985 6 100769151.639 6  24608850.766                    24608861.348
 117863038.061 7  91841388.717 7  22428595.641                    22428607.199
 109865248.108 8  85609407.64146  20906639.977                    20906646.395
 119288450.063 7  92952092.19245  22699837.422                    22699847.281
 11  8 29  0 38 30.0000000  0  9G17G10G04G12G05G29G25G02G30
 128410775.071 6 100060393.763 6  24435762.617                    24435775.227
 113460323.934 8  88410787.22145  21590767.898                    21590777.109
 122788867.177 6  95679753.47643  23365932.625                    23365942.602
 109210813.118 7  85099406.216 7  20782127.055                    20782135.203
 107939506.074 8  84108804.187 8  20540185.969                    20540195.313
 129239891.709 6 100706459.983 6  24593540.867                    24593550.945
 117797318.042 7  91790178.348 7  22416089.320                    22416100.688
 109888167.048 7  85627266.55246  20911001.125                    20911007.695
 119221190.273 7  92899681.98144  22687038.203                    22687048.289
 11  8 29  0 39  0.0000000  0  9G17G10G04G12G05G29G25G02G30
 128482255.963 6 100116093.142 6  24449364.938                    24449378.090
 113526262.314 8  88462167.76245  21603315.320                    21603324.563
 122869745.425 6  95742775.41944  23381323.227                    23381333.887
 109206847.285 8  85096315.948 7  20781372.398                    20781380.887
 107898510.458 8  84076859.599 8  20532384.742                    20532393.961
 129159357.825 6 100643706.335 6  24578215.578                    24578225.930
 117732047.854 7  91739318.521 7  22403668.727                    22403680.438
 109911242.101 8  85645247.11546  20915392.188                    20915398.797
 119154412.603 7  92847647.43944  22674330.961                    22674341.180
 11  8 29  0 39 30.0000000  0  9G17G10G04G12G05G29G25G02G30
 128553928.548 6 100171941.920 6  24463003.734                    24463016.566
 113592687.314 7  88513927.48645  21615955.711                    21615964.297
 122950598.948 7  95805778.11944  23396709.148                    23396719.418
 109203465.014 8  85093680.410 7  20780729.078                    20780737.383
 107858062.738 8  84045341.937 8  20524687.930                    20524697.020
 129078745.478 6 100580891.524 6  24562875.563                    24562886.289
 117667230.280 7  91688811.349 7  22391334.477                    22391345.563
 109934473.289 7  85663349.34846  20919813.055                    20919819.375
 119088119.621 7  92795990.55344  22661715.563                    22661725.156
 11  8 29  0 40  0.0000000  0  9G17G10G04G12G05G29G25G02G30
 128625792.668 6 100227939.898 6  24476680.008                    24476692.367
 113659596.243 7  88566064.29845  21628687.750                    21628697.387
 123031426.788 7  95868760.80144  23412090.227                    23412100.586
 109200665.719 8  85091499.149 7  20780196.094                    20780204.660
 107818163.542 8  84014251.700 8  20517095.500                    20517104.012
 128998054.761 6 100518015.651 6  24547521.102                    24547531.781
 117602867.137 7  91638658.294 7  22379086.234                    22379098.137
 109957858.913 8  85681571.91446  20924262.875                    20924269.879
 119022313.375 7  92744712.96244  22649193.352                    22649202.809
 11  8 29  0 40 30.0000000  0  9G17G10G04G12G05G29G25G02G30
 128697847.998 6 100284086.934 6  24490390.992                    24490403.473
 113726986.620 7  88618576.26245  21641511.648                    21641520.789
 123112228.338 6  95931722.99044  23427466.219                    23427476.988
 109198450.334 8  85089772.867 7  20779774.758                    20779783.125
 107778814.396 8  83983590.076 8  20509607.352                    20509616.344
 128917286.622 6 100455079.457 6  24532150.984                    24532161.766
 117538960.882 7  91588861.262 7  22366925.883                    22366936.535
 109981398.391 8  85699914.37846  20928742.242                    20928749.203
 118956996.181 7  92693816.46644  22636764.094                    22636773.488
 11  8 29  0 41  0.0000000  0  9G17G10G04G12G05G29G25G02G30
 128770095.322 6 100340383.513 6  24504138.656                    24504152.145
 113794856.965 8  88671462.22145  21654427.070                    21654436.328
 123193003.374 7  95994664.52944  23442837.305                    23442848.441
 109196819.346 8  85088501.964 7  20779464.422                    20779472.555
 107740017.228 8  83953358.556 8  20502224.719                    20502233.340
 128836442.440 6 100392084.039 6  24516766.602                    24516777.773
 117475514.306 7  91539422.407 7  22354852.188                    22354863.313
 110005091.070 8  85718376.22146  20933251.289                    20933257.707
 118892171.012 7  92643303.35044  22624427.992                    22624438.035
 11  8 29  0 41 30.0000000  0  8G10G04G12G05G29G25G02G30
 113863204.643 8  88724720.14545  21667433.719                    21667442.391
 123273751.604 7  96057585.15844  23458202.625                    23458213.496
 109195773.470 8  85087686.993 7  20779265.313                    20779273.746
 107701773.659 8  83923558.421 8  20494947.164                    20494955.922
 128755523.585 7 100329030.419 6  24501368.797                    24501379.176
 117412530.221 7  91490343.941 7  22342866.641                    22342877.867
 110028936.797 8  85736957.31946  20937788.719                    20937795.051
 118827840.428 7  92593175.64144  22612186.164                    22612196.125
 11  8 29  0 42  0.0000000  0  8G10G04G12G05G29G25G02G30
 113932025.926 8  88778347.10045  21680529.469                    21680538.738
 123354470.741 7  96120483.11544  23473564.102                    23473574.285
 109195311.283 8  85087326.841 7  20779177.219                    20779185.578
 107664082.976 8  83894189.099 8  20487774.297                    20487783.543
 128674528.995 6 100265917.777 5  24485955.508                    24485965.984
 117350009.000 7  91441626.148 7  22330968.945                    22330980.613
 110052932.862 8  85755655.55446  20942354.898                    20942361.727
 118764004.967 7  92543433.74944  22600038.203                    22600048.246
 11  8 29  0 42 30.0000000  0  8G10G04G12G05G29G25G02G30
 114001318.213 8  88832341.08445  21693715.563                    21693724.188
 123435159.747 6  96183357.59144  23488918.523                    23488928.922
 109195432.632 8  85087421.387 7  20779200.508                    20779208.934
 107626946.118 8  83865251.326 8  20480707.758                    20480716.520
 128593458.879 6 100202746.328 5  24470528.258                    24470538.816
 117287952.772 7  91393270.683 7  22319160.219                    22319171.570
 110077077.969 8  85774469.93946  20946949.844                    20946956.305
 118700666.527 7  92494079.14644  22587985.633                    22587995.570
 11  8 29  0 43  0.0000000  0  8G10G04G12G05G29G25G02G30
 114071079.335 8  88886700.39845  21706990.492                    21706999.461
 123515818.284 6  96246208.32844  23504267.070                    23504278.098
 109196138.473 8  85087971.387 7  20779334.695                    20779343.141
 107590364.591 8  83836746.285 8  20473746.555                    20473755.305
 128512314.736 6 100139517.180 5  24455087.469                    24455097.641
 117226363.982 7  91345279.448 7  22307440.188                    22307451.695
 110101372.053 8  85793400.40646  20951572.906                    20951579.328
 118637827.887 7  92445113.97744  22576027.813                    22576037.309
 11  8 29  0 43 30.0000000  0  8G10G04G12G05G29G25G02G30
 114141306.245 8  88941422.64745  21720354.180                    21720363.445
 123596445.269 6  96309034.53044  23519609.297                    23519620.727
 109197428.172 8  85088976.336 7  20779580.320                    20779588.570
 107554339.116 8  83808674.524 8  20466891.055                    20466899.863
 128431096.853 6 100076230.598 6  24439632.406                    24439642.793
 117165244.317 7  91297653.768 7  22295809.398                    22295820.820
 110125813.515 8  85812445.71646  20956223.469                    20956230.328
 118575490.400 7  92396539.35644  22564165.930                    22564175.379
 11  8 29  0 44  0.0000000  0  8G10G04G12G05G29G25G02G30
 114211996.476 8  88996505.92845  21733806.180                    21733815.145
 123677040.168 6  96371835.66644  23534946.414                    23534957.914
 109199301.621 8  85090436.155 7  20779936.516                    20779945.316
 107518870.673 8  83781036.826 8  20460141.633                    20460150.078
 128349805.761 6 100012887.018 6  24424163.172                    24424173.555
 117104596.127 8  91250395.480 7  22284268.922                    22284280.055
 110150401.477 8  85831605.18446  20960902.664                    20960909.223
 118513656.544 7  92348357.16344  22552398.898                    22552408.777
 11  8 29  0 44 30.0000000  0  8G10G04G12G05G29G25G02G30
 114283147.878 7  89051948.58445  21747346.133                    21747354.941
 123757602.099 6  96434611.13144  23550276.898                    23550287.879
 109201759.216 8  85092351.152 7  20780404.508                    20780412.891
 107483960.524 8  83753834.151 8  20453498.336                    20453506.949
 128268442.770 6  99949487.374 6  24408679.938                    24408689.879
 117044421.561 7  91203506.226 7  22272817.914                    22272829.316
 110175135.282 8  85850878.28646  20965609.555                    20965616.109
 118452328.441 7  92300569.05344  22540728.500                    22540738.504
 11  8 29  0 45  0.0000000  0  8G10G04G12G05G29G25G02G30
 114354757.675 8  89107748.42445  21760972.961                    21760981.801
 123838130.291 7  96497360.30543  23565600.914                    23565612.535
 109204800.873 8  85094721.263 7  20780983.031                    20780991.285
 107449609.412 8  83727067.101 8  20446961.477                    20446970.273
 128187008.462 6  99886032.149 6  24393183.367                    24393193.914
 116984722.585 7  91156987.580 7  22261457.219                    22261468.684
 110200013.833 8  85870264.18446  20970343.250                    20970349.695
 118391507.955 7  92253176.52145  22529154.805                    22529164.387
 11  8 29  0 45 30.0000000  0  8G10G04G12G05G29G25G02G30
 114426822.955 8  89163903.18045  21774686.094                    21774695.586
 123918624.305 7  96560082.83743  23580919.008                    23580929.547
 109208426.358 8  85097546.291 7  20781672.961                    20781681.426
 107415818.054 8  83700736.216 8  20440531.070                    20440540.164
 128105503.368 6  99822521.800 6  24377673.039                    24377683.785
 116925501.153 7  91110841.030 7  22250188.125                    22250199.348
 110225036.069 8  85889762.03746  20975105.109                    20975111.684
 118331197.119 7  92206181.11545  22517678.313                    22517688.051
 11  8 29  0 46  0.0000000  0  8G10G04G12G05G29G25G02G30
 114499341.584 8  89220411.19945  21788486.352                    21788495.219
 123999083.183 7  96622777.99743  23596229.461                    23596240.797
 109212635.673 8  85100826.269 7  20782473.984                    20782482.516
 107382587.662 8  83674842.444 8  20434207.609                    20434216.508
 128023928.185 6  99758956.802 6  24362149.695                    24362160.590
 116866759.405 8  91065068.254 7  22239009.430                    22239020.680
 110250201.315 8  85909371.32246  20979894.023                    20979900.398
 118271397.957 7  92159584.41745  22506298.305                    22506308.289
 11  8 29  0 46 30.0000000  0  8G10G04G12G05G29G25G02G30
 114572310.528 7  89277270.11445  21802372.039                    21802381.094
 124079506.233 7  96685445.24144  23611533.828                    23611544.414
 109217428.581 8  85104560.982 7  20783386.102                    20783394.293
 107349918.994 8  83649386.381 8  20427991.023                    20427999.574
 127942283.753 6  99695337.867 6  24346614.086                    24346623.957
 116808499.184 8  91019670.686 7  22227923.078                    22227934.723
 110275508.452 8  85929091.18446  20984709.695                    20984716.332
 118212112.323 7  92113387.87045  22495017.070                    22495026.293
 11  8 29  0 47  0.0000000  0  8G10G04G12G05G29G25G02G30
 114645727.323 8  89334478.01445  21816342.445                    21816351.660
 124159892.530 7  96748083.82744  23626830.703                    23626841.598
 109222805.262 8  85108750.584 7  20784409.258                    20784417.605
 107317812.949 8  83624368.727 8  20421881.391                    20421890.176
 127860570.849 6  99631665.556 6  24331063.961                    24331074.191
 116750722.518 7  90974649.910 7  22216928.438                    22216940.219
 110300956.547 8  85948920.86246  20989552.406                    20989558.992
 118153342.209 7  92067593.02345  22483833.461                    22483842.895
 11  8 29  0 47 30.0000000  0  8G10G04G12G05G29G25G02G30
 114719589.668 7  89392033.08145  21830398.141                    21830407.207
 124240241.898 7  96810693.66144  23642120.617                    23642131.973
 109228765.557 8  85113394.949 7  20785543.531                    20785551.895
 107286270.118 8  83599789.946 8  20415878.766                    20415887.371
 127778790.517 6  99567940.744 6  24315501.563                    24315512.016
 116693431.741 8  90930007.760 7  22206026.586                    22206037.816
 110326544.975 8  85968859.90346  20994421.664                    20994428.133
 118095089.910 7  92022201.67245  22472748.070                    22472757.668
 11  8 29  0 48  0.0000000  0  8G10G04G12G05G29G25G02G30
 114793894.593 7  89449933.02145  21844537.969                    21844546.922
 124320553.514 7  96873274.06344  23657403.953                    23657414.637
 109235309.226 8  85118493.902 7  20786788.641                    20786797.117
 107255291.603 8  83575650.881 8  20409983.711                    20409992.402
 127696943.365 6  99504163.799 6  24299926.773                    24299936.258
 116636628.578 7  90885745.548 7  22195217.359                    22195228.988
 110352272.811 8  85988907.55646  20999317.211                    20999323.848
 118037357.023 7  91977215.04045  22461762.352                    22461772.082
 11  8 29  0 48 30.0000000  0  8G10G04G12G05G29G25G02G30
 114868639.525 7  89508175.80045  21858761.297                    21858770.398
 124400826.781 7  96935824.58143  23672678.945                    23672690.117
 109242435.978 8  85124047.196 7  20788144.766                    20788153.605
 107224877.992 8  83551952.009 8  20404196.383                    20404205.133
 127615030.228 7  99440335.477 6  24284339.141                    24284349.773
 116580315.085 7  90841864.888 7  22184501.141                    22184512.633
 110378139.193 8  86009063.18146  21004239.570                    21004246.414
 117980145.663 7  91932634.81445  22450875.359                    22450884.805
 11  8 29  0 49  0.0000000  0  8G10G04G12G05G29G25G02G30
 114943821.495 7  89566759.14445  21873067.695                    21873077.379
 124481060.763 7  96998344.52243  23687947.617                    23687958.180
 109250145.270 8  85130054.427 7  20789612.102                    20789620.555
 107195029.965 8  83528693.842 8  20398516.461                    20398524.918
 127533051.791 7  99376456.242 6  24268739.367                    24268749.445
 116524492.916 8  90798367.103 7  22173878.297                    22173890.133
 110404142.921 8  86029325.83546  21009188.023                    21009194.621
 117923457.412 7  91888462.18445  22440087.375                    22440096.969
 11  8 29  0 49 30.0000000  0  8G10G04G12G05G29G25G02G30
 115019437.897 7  89625680.99545  21887457.453                    21887466.746
 124561254.899 7  97060833.37243  23703207.977                    23703218.641
 109258436.985 8  85136515.484 7  20791189.844                    20791198.492
 107165748.572 8  83505877.208 8  20392944.219                    20392953.004
 127451008.971 7  99312526.849 6  24253126.109                    24253137.379
 116469164.194 8  90755253.804 7  22163349.984                    22163361.113
 110430283.332 8  86049694.98546  21014162.359                    21014169.160
 117867294.264 7  91844698.74845  22429400.461                    22429409.563
 11  8 29  0 50  0.0000000  0  8G10G04G12G05G29G25G02G30
 115095485.981 7  89684939.24445  21901928.484                    21901938.129
 124641408.354 7  97123290.55443  23718460.258                    23718471.000
 109267310.681 8  85143430.043 7  20792878.617                    20792887.051
 107137034.074 8  83483502.312 8  20387480.125                    20387488.637
 127368902.359 6  99248547.716 6  24237502.063                    24237512.316
 116414330.534 8  90712526.263 7  22152915.305                    22152926.629
 110456559.107 8  86070169.62146  21019162.750                    21019169.016
 117811657.890 7  91801345.77445  22418812.906                    22418822.258
 11  8 29  0 50 30.0000000  0  8G10G04G12G05G29G25G02G30
 115171963.396 7  89744532.01045  21916482.133                    21916491.367
 124721520.771 7  97185715.76643  23733704.586                    23733716.773
 109276766.528 8  85150798.224 7  20794677.789                    20794686.387
 107108887.295 8  83461569.795 8  20382123.742                    20382132.805
 127286733.060 6  99184519.763 6  24221866.266                    24221875.813
 116359994.160 8  90670186.222 7  22142575.375                    22142586.598
 110482969.917 8  86090749.47446  21024188.305                    21024194.711
 117756550.390 7  91758404.88045  22408326.109                    22408335.867
 11  8 29  0 51  0.0000000  0  8G10G04G12G05G29G25G02G30
 115248867.540 7  89804457.29545  21931116.195                    21931125.867
 124801591.648 7  97248108.61243  23748942.711                    23748953.488
 109286803.943 8  85158619.574 7  20796587.820                    20796596.371
 107081308.876 8  83440080.152 8  20376875.758                    20376884.609
 127204502.121 6  99120443.748 6  24206218.273                    24206227.895
 116306156.947 8  90628235.124 7  22132330.328                    22132342.000
 110509514.962 8  86111433.92246  21029239.516                    21029245.688
 117701973.589 7  91715877.51445  22397940.313                    22397949.750
 11  8 29  0 51 30.0000000  0  8G10G04G12G05G29G25G02G30
 115326195.004 7  89864712.45745  21945831.344                    21945840.621
 124881620.134 7  97310468.43444  23764172.031                    23764183.172
 109297422.409 8  85166893.693 7  20798608.570                    20798616.914
 107054299.272 8  83419033.740 8  20371736.242                    20371744.934
 127122209.921 6  99056320.003 6  24190557.992                    24190568.270
 116252820.364 8  90586674.149 7  22122180.953                    22122192.543
 110536193.017 8  86132222.01846  21034316.508                    21034322.887
 117647928.871 7  91673764.79745  22387656.141                    22387665.230
 11  8 29  0 52  0.0000000  0  8G10G04G12G05G29G25G02G30
 115403943.971 7  89925296.05245  21960626.422                    21960635.348
 124961605.938 7  97372794.99344  23779391.727                    23779403.090
 109308621.876 8  85175620.549 7  20800739.867                    20800748.219
 107027859.460 8  83398431.327 8  20366704.641                    20366713.223
 127039857.565 6  98992149.397 6  24174886.570                    24174897.766
 116199986.698 8  90545505.050 7  22112126.852                    22112138.512
 110563003.676 8  86153113.43546  21039418.438                    21039424.633
 117594418.570 7  91632068.48545  22377473.383                    22377483.176
 11  8 29  0 52 30.0000000  0  8G10G04G12G05G29G25G02G30
 115482111.165 7  89986205.53745  21975501.148                    21975510.984
 125041548.097 7  97435087.53943  23794604.555                    23794616.176
 109320401.896 8  85184799.776 7  20802981.078                    20802989.543
 107001989.715 8  83378273.118 8  20361781.859                    20361790.281
 126957446.036 6  98927932.668 6  24159204.383                    24159214.859
 116147657.614 8  90504729.121 7  22102169.055                    22102180.738
 110589945.767 8  86174107.27846  21044545.055                    21044551.703
 117541444.158 7  91590789.73645  22367392.852                    22367401.633
 11  8 29  0 53  0.0000000  0  8G10G04G12G05G29G25G02G30
 115560693.694 7  90047438.65445  21990454.547                    21990464.066
 125121446.083 6  97497345.68243  23809809.000                    23809820.426
 109332761.525 8  85194430.648 7  20805333.477                    20805342.000
 106976690.477 8  83358559.456 8  20356967.539                    20356976.164
 126874975.893 6  98863670.237 6  24143511.133                    24143520.844
 116095834.530 8  90464347.481 7  22092307.250                    22092318.797
 110617018.264 8  86195202.73746  21049696.930                    21049703.594
 117489007.111 7  91549929.71545  22357414.086                    22357423.023
 11  8 29  0 53 30.0000000  0  8G10G04G12G05G29G25G02G30
 115639688.863 7  90108993.31145  22005486.922                    22005496.594
 125201299.304 7  97559568.93944  23825004.375                    23825016.043
 109345700.168 8  85204512.708 7  20807795.555                    20807804.164
 106951962.371 8  83339290.835 8  20352261.711                    20352270.473
 126792448.229 6  98799363.024 6  24127806.492                    24127816.348
 116044519.440 8  90424361.679 7  22082542.742                    22082554.113
 110644220.462 8  86216399.25146  21054873.273                    21054879.871
 117437109.238 7  91509489.82145  22347538.344                    22347547.238
 11  8 29  0 54  0.0000000  0  8G10G04G12G05G29G25G02G30
 115719093.687 7  90170867.16945  22020597.945                    22020606.777
 125281106.867 6  97621756.58943  23840192.328                    23840203.059
 109359217.717 8  85215045.856 7  20810367.977                    20810376.395
 106927805.601 8  83320467.415 8  20347664.766                    20347673.688
 126709863.606 6  98735011.383 6  24112091.352                    24112100.848
 115993713.804 8  90384772.868 7  22072874.922                    22072886.184
 110671551.095 8  86237695.85746  21060073.953                    21060080.520
 117385751.971 7  91469471.18645  22337765.672                    22337775.047
 11  8 29  0 54 30.0000000  0  8G10G04G12G05G29G25G02G30
 115798905.823 7  90233058.43245  22035785.508                    22035794.773
 125360868.715 6  97683908.65043  23855369.664                    23855381.313
 109373313.278 8  85226029.408 7  20813050.211                    20813058.387
 106904220.897 8  83302089.751 8  20343177.172                    20343185.566
 126627223.223 6  98670616.365 6  24096365.219                    24096375.363
 115943419.748 8  90345582.685 7  22063303.828                    22063314.977
 110699009.837 8  86259092.27246  21065299.367                    21065305.852
 117334937.418 7  91429875.42845  22328095.375                    22328104.895
 11  8 29  0 55  0.0000000  0  8G10G04G12G05G29G25G02G30
 115879122.773 7  90295565.11645  22051050.070                    22051059.590
 125440584.753 6  97746025.01644  23870538.766                    23870550.480
 109387986.859 8  85237463.359 7  20815842.758                    20815851.371
 106881209.201 8  83284158.598 8  20338798.203                    20338806.301
 126544528.498 6  98606178.922 6  24080628.961                    24080638.133
 115893639.441 8  90306792.821 7  22053831.305                    22053842.617
 110726596.734 8  86280588.55246  21070548.828                    21070555.320
 117284667.513 7  91390704.07245  22318530.148                    22318539.402
 11  8 29  0 55 30.0000000  0  8G10G04G12G05G29G25G02G30
 115959741.315 7  90358384.73545  22066391.148                    22066400.461
 125520253.823 6  97808104.76143  23885699.523                    23885711.313
 109403238.070 8  85249347.428 7  20818744.516                    20818752.422
 106858770.507 8  83266673.934 8  20334527.820                    20334536.551
 126461780.082 6  98541699.705 6  24064881.289                    24064892.234
 115844374.065 7  90268404.214 7  22044456.438                    22044467.348
 110754310.195 8  86302183.44746  21075822.688                    21075829.004
 117234943.481 7  91351958.05845  22309067.367                    22309076.668
 11  8 29  0 56  0.0000000  0  8G10G04G12G05G29G25G02G30
 116040758.400 7  90421514.91545  22081808.281                    22081817.566
 125599875.146 6  97870147.29643  23900850.766                    23900862.879
 109419065.478 8  85261680.463 7  20821756.625                    20821764.938
 106836904.674 8  83249635.651 8  20330367.078                    20330375.352
 126378978.569 6  98477179.107 6  24049124.859                    24049135.453
 115795624.885 8  90230417.832 7  22035179.633                    22035191.043
 110782148.856 8  86323875.90146  21081120.055                    21081126.656
 117185766.501 7  91313638.31945  22299709.250                    22299718.703
 11  8 29  0 56 30.0000000  0  8G10G04G12G05G29G25G02G30
 116122171.811 7  90484953.90045  22097300.734                    22097309.641
 125679448.450 6  97932152.42543  23915993.594                    23916004.516
 109435468.956 8  85274462.380 7  20824878.203                    20824886.563
 106815612.594 8  83233044.455 8  20326314.984                    20326323.668
 126296125.136 6  98412618.029 6  24033358.320                    24033368.883
 115747393.970 8  90192835.298 7  22026001.539                    22026013.063
 110810112.453 8  86345665.71146  21086441.117                    21086447.777
 117137138.589 7  91275746.42345  22290455.625                    22290465.520
 11  8 29  0 57  0.0000000  0  8G10G04G12G05G29G25G02G30
 116203978.630 7  90548699.45945  22112867.641                    22112876.855
 125758973.271 6  97994119.81743  23931125.938                    23931137.539
 109452447.541 8  85287692.441 7  20828108.711                    20828117.414
 106794894.600 8  83216900.598 8  20322372.695                    20322381.129
 126213221.049 6  98348017.480 6  24017582.961                    24017592.871
 115699682.942 8  90155657.894 7  22016922.367                    22016933.820
 110838200.153 8  86367552.22246  21091786.641                    21091792.738
 117089061.133 7  91238283.45745  22281306.906                    22281315.816
 11  8 29  0 57 30.0000000  0  8G10G04G12G05G29G25G02G30
 116286175.989 7  90612749.32745  22128509.695                    22128518.984
 125838449.335 6  98056049.17743  23946250.445                    23946261.785
 109470000.678 8  85301370.195 7  20831449.008                    20831457.793
 106774751.017 8  83201204.332 8  20318539.445                    20318547.754
 126130266.975 6  98283377.970 6  24001796.469                    24001806.871
 115652493.542 8  90118886.933 7  22007942.617                    22007953.715
 110866411.427 8  86389535.04246  21097155.133                    21097161.324
 117041535.898 7  91201250.78345  22272263.469                    22272273.047
 11  8 29  0 58  0.0000000  0  8G10G04G12G05G29G25G02G30
 116368760.657 7  90677100.99545  22144225.523                    22144234.664
 125917875.553 7  98117939.74243  23961365.078                    23961375.527
 109488127.571 8  85315495.030 7  20834898.789                    20834906.859
 106755181.518 8  83185955.407 8  20314815.438                    20314824.207
 126047263.918 7  98218700.303 6  23986002.508                    23986011.621
 115605826.978 8  90082523.397 7  21999062.328                    21999073.922
 110894744.961 8  86411613.11946  21102546.555                    21102553.168
 116994563.991 7  91164649.26845  22263324.781                    22263334.305
 11  8 29  0 58 30.0000000  0  8G10G04G12G05G29G25G02G30
 116451730.050 7  90741752.45645  22160013.555                    22160022.910
 125997251.630 7  98179791.21443  23976468.930                    23976479.609
 109506827.632 8  85330066.499 7  20838457.055                    20838465.469
 106736186.708 8  83171154.286 8  20311200.898                    20311209.359
 125964212.338 7  98153984.780 6  23970197.820                    23970207.727
 115559684.806 8  90046568.478 7  21990281.609                    21990293.219
 110923200.032 8  86433785.89646  21107961.422                    21107967.766
 116948146.844 7  91128480.02745  22254492.070                    22254501.742
 11  8 29  0 59  0.0000000  0  8G10G04G12G05G29G25G02G30
 116535081.423 7  90806701.55145  22175875.078                    22175884.266
 126076577.010 7  98241603.21143  23991565.063                    23991575.176
 109526099.738 8  85345083.720 7  20842124.602                    20842132.953
 106717767.059 8  83156801.354 8  20307695.844                    20307704.094
 125881113.772 7  98089232.693 6  23954384.523                    23954395.727
 115514068.798 8  90011023.546 7  21981601.523                    21981612.539
 110951775.948 8  86456052.83946  21113399.008                    21113405.836
 116902286.175 7  91092744.41345  22245764.914                    22245774.461
 11  8 29  0 59 30.0000000  0  8G10G04G12G05G29G25G02G30
 116618812.435 7  90871946.48545  22191808.406                    22191818.098
 126155852.089 6  98303375.99343  24006650.227                    24006660.926
 109545943.479 8  85360546.352 7  20845900.523                    20845908.988
 106699923.051 8  83142896.964 8  20304300.289                    20304308.922
 125797969.605 7  98024445.052 6  23938563.117                    23938572.863
 115468981.049 8  89975890.241 7  21973021.469                    21973032.625
 110980472.865 8  86478414.07046  21118859.844                    21118866.488
 116856984.024 7  91057444.01445  22237144.305                    22237153.566
 11  8 29  1  0  0.0000000  0  8G10G04G12G05G29G25G02G30
 116702919.630 7  90937484.52945  22207813.641                    22207823.043
 126235075.400 6  98365108.44343  24021725.859                    24021736.676
 109566357.897 8  85376453.681 7  20849785.500                    20849793.621
 106682654.208 8  83129440.762 8  20301014.047                    20301022.207
 125714780.241 7  97959622.159 6  23922732.609                    23922742.359
 115424422.203 8  89941169.102 7  21964542.125                    21964553.750
 111009288.927 8  86500868.13746  21124343.430                    21124350.027
 116812240.858 7  91022579.20245  22228629.898                    22228640.031
 11  8 29  1  0 30.0000000  0  8G10G04G12G05G29G25G02G30
 116787399.979 7  91003313.34745  22223889.398                    22223899.082
 126314246.746 6  98426800.37343  24036791.750                    24036801.992
 109587341.909 8  85392804.837 7  20853778.633                    20853786.895
 106665960.994 8  83116433.092 8  20297837.164                    20297845.598
 125631547.060 7  97894765.170 6  23906894.172                    23906904.055
 115380394.032 8  89906861.442 7  21956163.773                    21956174.953
 111038223.656 8  86523414.69146  21129849.797                    21129856.188
 116768058.409 7  90988151.30745  22220222.391                    22220232.266
 11  8 29  1  1  0.0000000  0  8G10G04G12G05G29G25G02G30
 116872250.820 7  91069430.85445  22240035.734                    22240045.219
 126393365.717 6  98488451.49143  24051847.930                    24051858.992
 109608894.546 8  85409599.089 7  20857879.883                    20857888.348
 106649843.363 8  83103873.933 8  20294770.242                    20294778.477
 125548270.751 7  97829874.547 6  23891047.008                    23891056.602
 115336897.908 8  89872968.382 7  21947886.602                    21947898.422
 111067276.161 8  86546053.00946  21135377.680                    21135384.172
 116724437.831 7  90954161.24045  22211921.758                    22211931.371
 11  8 29  1  1 30.0000000  0  8G10G04G12G05G29G25G02G30
 116957470.035 7  91135835.41344  22256253.203                    22256262.594
 126472432.548 6  98550061.96143  24066893.523                    24066904.684
 109631015.704 8  85426836.331 7  20862089.477                    20862097.672
 106634301.945 8  83091763.770 8  20291813.141                    20291821.273
 125464953.062 7  97764951.697 6  23875191.781                    23875201.727
 115293936.012 8  89839491.611 7  21939711.547                    21939723.164
 111096446.863 8  86568783.42546  21140929.156                    21140935.754
 116681381.307 7  90920610.69845  22203727.914                    22203737.809
 11  8 29  1  2  0.0000000  0  8G10G04G12G05G29G25G02G30
 117043053.834 7  91202524.06945  22272539.031                    22272548.340
 126551445.863 6  98611630.71843  24081928.688                    24081940.449
 109653703.729 8  85444515.298 7  20866407.109                    20866415.406
 106619336.191 8  83080102.179 8  20288965.117                    20288973.387
 125381594.370 7  97699996.866 6  23859329.391                    23859339.398
 115251508.816 8  89806431.463 7  21931637.797                    21931649.191
 111125733.676 8  86591604.31746  21146502.219                    21146508.691
 116638889.138 7  90887499.93145  22195642.047                    22195652.035
 11  8 29  1  2 30.0000000  0  8G10G04G12G05G29G25G02G30
 117128999.520 7  91269494.72644  22288893.906                    22288902.715
 126630405.271 6  98673157.48643  24096954.227                    24096966.016
 109676957.542 8  85462635.151 7  20870831.984                    20870840.559
 106604945.719 8  83068888.859 8  20286226.625                    20286234.766
 125298195.964 7  97635011.128 6  23843458.992                    23843469.238
 115209617.789 8  89773789.120 7  21923666.031                    21923677.473
 111155135.855 8  86614515.10646  21152097.438                    21152103.930
 116596962.781 7  90854830.04945  22187664.063                    22187673.773
 11  8 29  1  3  0.0000000  0  8G10G04G12G05G29G25G02G30
 117215304.283 7  91336745.16145  22305317.414                    22305326.789
 126709310.585 6  98734642.07543  24111969.617                    24111981.668
 109700776.595 8  85481195.444 7  20875364.492                    20875372.918
 106591131.036 8  83058124.204 8  20283597.125                    20283605.656
 125214758.643 7  97569995.038 6  23827581.539                    23827591.590
 115168264.485 7  89741565.782 7  21915796.898                    21915808.176
 111184653.109 8  86637515.55246  21157714.406                    21157720.609
 116555603.467 7  90822601.99545  22179792.797                    22179802.840
 11  8 29  1  3 30.0000000  0  8G10G04G12G05G29G25G02G30
 117301965.765 7  91404273.57144  22321808.352                    22321817.559
 126788161.627 6  98796084.42143  24126975.211                    24126985.910
 109725160.020 8  85500195.521 7  20880004.664                    20880013.055
 106577892.655 8  83047808.609 8  20281078.305                    20281086.738
 125131284.249 7  97504950.084 6  23811696.508                    23811707.395
 115127450.735 8  89709762.877 7  21908030.297                    21908041.391
 111214285.174 8  86660605.47246  21163352.922                    21163359.469
 116514813.159 7  90790817.35845  22172031.094                    22172040.660
 11  8 29  1  4  0.0000000  0  8G10G04G12G05G29G25G02G30
 117388980.392 7  91472077.14944  22338366.547                    22338375.777
 126866957.829 6  98857484.01643  24141969.242                    24141980.992
 109750106.289 8  85519634.163 7  20884751.844                    20884760.191
 106565230.224 8  83037941.811 8  20278668.914                    20278677.043
 125047773.523 7  97439876.828 6  23795805.508                    23795815.340
 115087177.398 7  89678381.078 7  21900366.336                    21900377.613
 111244030.867 8  86683783.94746  21169013.570                    21169019.762
 116474592.395 7  90759476.51245  22164377.609                    22164387.254
 11  8 29  1  4 30.0000000  0  9G26G10G04G12G05G29G25G02G30
 130587925.41516 101756905.68853  24850063.172                    24850076.105
 117476345.427 7  91540153.79545  22354991.875                    22355000.719
 126945698.693 6  98918840.52543  24156953.914                    24156964.449
 109775614.497 8  85539510.678 7  20889605.688                    20889614.102
 106553143.568 8  83028523.665 8  20276368.766                    20276377.039
 124964227.177 7  97374775.824 6  23779906.977                    23779916.738
 115047445.803 8  89647421.391 7  21892805.664                    21892816.820
 111273889.417 8  86707050.36146  21174695.242                    21174701.875
 116434942.385 7  90728580.41145  22156832.570                    22156841.953
 11  8 29  1  5  0.0000000  0  9G26G10G04G12G05G29G25G02G30
 130496413.081 6 101685597.59743  24832648.313                    24832662.258
 117564057.965 7  91608501.21445  22371682.984                    22371692.289
 127024383.976 6  98980153.71743  24171926.680                    24171937.961
 109801683.733 8  85559824.355 7  20894566.711                    20894574.895
 106541632.445 8  83019553.977 8  20274178.289                    20274186.590
 124880647.056 7  97309648.493 6  23764002.492                    23764011.910
 115008257.387 8  89616884.984 7  21885348.258                    21885359.785
 111303860.326 8  86730404.32646  21180398.398                    21180404.938
 116395864.544 7  90698130.15145  22149396.320                    22149405.914
 11  8 29  1  5 30.0000000  0  9G26G10G04G12G05G29G25G02G30
 130404756.953 6 101614177.43343  24815207.023                    24815220.352
 117652115.020 7  91677117.08645  22388439.523                    22388448.680
 127103013.115 6  99041423.16343  24186889.586                    24186900.359
 109828312.732 8  85580574.204 7  20899633.953                    20899642.645
 106530696.928 8  83011032.821 8  20272097.352                    20272105.465
 124797033.624 7  97244495.204 6  23748091.117                    23748100.805
 114969613.138 8  89586772.581 7  21877994.938                    21878005.684
 111333942.820 8  86753845.22746  21186123.047                    21186129.219
 116357359.638 7  90668126.32845  22142069.094                    22142078.117
 11  8 29  1  6  0.0000000  0  9G26G10G04G12G05G29G25G02G30
 130312960.334 6 101542647.76143  24797738.266                    24797752.156
 117740514.147 7  91745999.48745  22405261.125                    22405271.172
 127181585.920 6  99102648.70843  24201841.031                    24201852.527
 109855500.634 8  85601759.562 7  20904807.898                    20904815.992
 106520336.935 8  83002960.124 8  20270125.867                    20270134.102
 124713388.317 7  97179317.091 6  23732173.922                    23732183.992
 114931514.721 8  89557085.511 7  21870744.516                    21870755.938
 111364136.351 7  86777372.65646  21191868.328                    21191875.086
 116319429.278 7  90638570.20445  22134850.820                    22134860.637
 11  8 29  1  6 30.0000000  0  9G26G10G04G12G05G29G25G02G30
 130221025.830 6 101471010.70343  24780243.078                    24780256.715
 117829252.417 7  91815146.16345  22422148.047                    22422157.227
 127260102.251 6  99163830.26943  24216782.461                    24216793.625
 109883246.179 7  85623379.460 7  20910087.367                    20910095.949
 106510552.318 8  82995335.774 8  20268263.711                    20268272.035
 124629712.400 7  97114115.147 6  23716250.961                    23716260.867
 114893963.348 8  89527824.700 7  21863598.992                    21863610.484
 111394440.538 7  86800986.32946  21197635.164                    21197641.730
 116282074.542 7  90609462.63545  22127742.719                    22127751.957
 11  8 29  1  7  0.0000000  0  9G26G10G04G12G05G29G25G02G30
 130128956.136 6 101399268.30043  24762722.984                    24762736.488
 117918326.732 7  91884554.70245  22439098.031                    22439107.793
 127338561.685 6  99224967.49343  24231712.914                    24231723.945
 109911548.146 8  85645432.935 7  20915473.016                    20915481.406
 106501343.013 8  82988159.717 8  20266511.359                    20266519.492
 124546007.334 7  97048890.512 6  23700322.500                    23700331.570
 114856960.260 8  89498991.127 7  21856557.422                    21856569.172
 111424854.402 8  86824685.45046  21203422.703                    21203429.289
 116245296.468 7  90580804.40445  22120744.109                    22120753.410
 11  8 29  1  7 30.0000000  0  9G26G10G04G12G05G29G25G02G30
 130036754.100 6 101327422.72743  24745178.102                    24745190.555
 118007734.113 7  91954222.77645  22456111.867                    22456121.125
 127416963.520 6  99286059.81743  24246631.742                    24246643.145
 109940405.292 8  85667919.028 7  20920964.320                    20920972.953
 106492708.346 8  82981431.439 8  20264867.875                    20264876.238
 124462273.685 7  96983643.569 6  23684388.656                    23684397.789
 114820506.280 8  89470585.440 7  21849620.672                    21849631.934
 111455377.058 7  86848469.34346  21209231.352                    21209237.613
 116209095.749 7  90552596.06245  22113855.250                    22113864.816
 11  8 29  1  8  0.0000000  0  9G26G10G04G12G05G29G25G02G30
 129944422.632 6 101255476.32843  24727607.344                    24727621.121
 118097472.160 7  92024148.49845  22473188.219                    22473197.953
 127495307.885 6  99347107.42343  24261540.828                    24261551.887
 109969816.535 7  85690836.878 7  20926561.258                    20926569.633
 106484648.816 8  82975151.309 8  20263334.453                    20263342.570
 124378513.149 7  96918375.679 6  23668449.000                    23668458.492
 114784603.009 8  89442608.887 7  21842788.477                    21842799.633
 111486008.418 7  86872337.94746  21215060.117                    21215066.688
 116173473.849 7  90524838.75345  22107076.273                    22107086.125
 11  8 29  1  8 30.0000000  0  9G26G10G04G12G05G29G25G02G30
 129851964.417 6 101183431.14242  24710013.117                    24710026.563
 118187537.587 7  92094329.33345  22490327.133                    22490336.520
 127573594.258 6  99408109.75942  24276438.234                    24276448.738
 109999780.176 8  85714185.165 7  20932262.750                    20932271.395
 106477163.666 8  82969318.754 8  20261910.102                    20261918.496
 124294726.683 7  96853087.586 6  23652504.648                    23652515.125
 114749251.256 8  89415062.073 7  21836061.422                    21836072.738
 111516747.302 7  86896290.32046  21220909.570                    21220915.863
 116138431.442 7  90497533.00345  22100408.469                    22100417.602
 11  8 29  1  9  0.0000000  0  9G26G10G04G12G05G29G25G02G30
 129759382.463 6 101111289.55643  24692395.438                    24692407.641
 118277927.871 7  92164763.29845  22507527.914                    22507537.738
 127651822.400 6  99469066.78742  24291324.680                    24291334.895
 110030295.602 8  85737963.407 7  20938070.047                    20938078.223
 106470252.718 8  82963933.632 8  20260595.133                    20260603.305
 124210915.622 7  96787780.376 6  23636555.906                    23636566.121
 114714452.354 8  89387946.049 7  21829439.281                    21829450.746
 111547593.819 8  86920326.56846  21226779.430                    21226786.004
 116103969.760 7  90470679.75045  22093850.094                    22093859.566
 11  8 29  1  9 30.0000000  0  9G26G10G04G12G05G29G25G02G30
 129666679.729 6 101039053.86143  24674754.156                    24674767.051
 118368640.045 7  92235448.07344  22524789.039                    22524799.219
 127729992.113 6  99529978.26642  24306199.922                    24306210.520
 110061361.188 8  85762170.338 7  20943981.461                    20943990.188
 106463915.827 8  82958995.821 8  20259389.195                    20259397.121
 124127081.064 7  96722454.812 6  23620603.313                    23620612.570
 114680207.517 8  89361261.778 7  21822922.422                    21822933.895
 111578547.143 8  86944446.03946  21232669.617                    21232676.406
 116070089.787 7  90444279.77645  22087403.109                    22087412.773
 11  8 29  1 10  0.0000000  0  9G26G10G04G12G05G29G25G02G30
 129573858.958 6 100966726.16443  24657090.445                    24657104.414
 118459671.021 7  92306381.28144  22542112.734                    22542121.645
 127808102.981 6  99590843.85543  24321063.156                    24321074.852
 110092975.519 7  85786804.854 7  20949997.359                    20950006.273
 106458152.511 8  82954504.963 8  20258292.273                    20258300.488
 124043224.334 7  96657111.981 6  23604645.141                    23604654.941
 114646517.636 8  89335009.919 7  21816511.477                    21816523.449
 111609606.347 7  86968648.02446  21238579.898                    21238586.863
 116036792.309 7  90418333.70045  22081066.852                    22081076.297
 11  8 29  1 10 30.0000000  0  9G26G10G04G12G05G29G25G02G30
 129480923.060 6 100894308.78843  24639405.266                    24639419.250
 118551017.841 7  92377560.59844  22559495.430                    22559504.559
 127886154.671 6  99651663.33343  24335915.852                    24335927.570
 110125137.471 7  85811866.089 7  20956117.563                    20956126.578
 106452962.487 8  82950460.825 8  20257304.680                    20257313.082
 123959346.615 7  96591752.774 6  23588684.094                    23588693.359
 114613383.837 8  89309191.381 7  21810206.602                    21810217.902
 111640771.096 7  86992932.23346  21244510.445                    21244517.633
 116004078.264 7  90392842.24345  22074841.727                    22074851.285
 11  8 29  1 11  0.0000000  0  9G26G10G04G12G05G29G25G02G30
 129387874.897 6 100821803.86843  24621699.297                    24621712.172
 118642677.506 7  92448983.68444  22576937.836                    22576947.047
 127964146.767 6  99712436.36243  24350757.719                    24350769.063
 110157845.387 8  85837352.741 7  20962342.133                    20962350.566
 106448345.098 8  82946862.882 8  20256425.805                    20256434.367
 123875448.953 7  96526378.032 6  23572718.805                    23572728.496
 114580806.892 8  89283806.760 7  21804007.242                    21804019.008
 111672040.248 7  87017297.79746  21250460.813                    21250467.551
 115971948.322 7  90367805.93745  22068727.508                    22068736.621
 11  8 29  1 11 30.0000000  0  9G26G10G04G12G05G29G25G02G30
 129294717.306 5 100749213.72042  24603971.203                    24603985.023
 118734647.351 7  92520648.47944  22594438.547                    22594448.020
 128042079.173 6  99773162.88943  24365587.047                    24365598.777
 110191098.117 8  85863263.955 7  20968669.563                    20968678.449
 106444300.152 8  82943711.005 8  20255656.148                    20255664.379
 123791532.975 7  96460988.984 6  23556750.016                    23556759.602
 114548787.968 8  89258856.969 7  21797914.195                    21797925.609
 111703413.680 8  87041744.61746  21256430.930                    21256437.789
 115940403.505 7  90343225.58545  22062724.867                    22062734.336
 11  8 29  1 12  0.0000000  0  9G26G10G04G12G05G29G25G02G30
 129201453.165 5 100676540.57142  24586223.188                    24586237.000
 118826924.313 6  92592552.59244  22611998.914                    22612008.113
 128119951.664 7  99833842.76443  24380406.156                    24380417.813
 110224894.218 8  85889598.556 7  20975100.984                    20975109.434
 106440827.231 8  82941004.859 8  20254995.508                    20255003.363
 123707599.896 7  96395586.645 6  23540777.852                    23540787.715
 114517328.109 8  89234342.804 7  21791927.844                    21791939.070
 111734890.985 7  87066272.38646  21262420.617                    21262427.191
 115909444.535 7  90319101.73045  22056833.680                    22056842.918
 11  8 29  1 12 30.0000000  0  9G26G10G04G12G05G29G25G02G30
 129108085.504 6 100603786.73543  24568456.172                    24568469.098
 118919505.580 7  92664693.81544  22629616.680                    22629625.680
 128197763.882 7  99894475.65543  24395213.492                    24395224.977
 110259232.307 8  85916355.491 7  20981635.273                    20981643.988
 106437925.935 8  82938744.136 8  20254443.297                    20254451.500
 123623650.924 7  96330171.909 6  23524802.750                    23524812.629
 114486428.206 8  89210264.978 7  21786047.531                    21786058.766
 111766471.112 7  87090880.27246  21268430.484                    21268437.043
 115879072.355 7  90295435.12045  22051054.219                    22051063.309
 11  8 29  1 13  0.0000000  0  9G26G10G04G12G05G29G25G02G30
 129014617.330 6 100530954.63643  24550670.336                    24550683.246
 119012388.035 7  92737069.72944  22647291.555                    22647300.641
 128275515.652 7  99955061.41743  24410008.570                    24410020.348
 110294110.557 8  85943533.321 7  20988272.719                    20988281.102
 106435595.478 8  82936928.233 8  20253999.734                    20254007.617
 123539687.260 7  96264745.697 6  23508825.414                    23508834.961
 114456089.154 8  89186624.167 7  21780274.164                    21780285.742
 111798153.734 7  87115568.03146  21274459.500                    21274465.457
 115849287.555 7  90272226.21145  22045386.109                    22045395.320
 11  8 29  1 13 30.0000000  0  9G26G10G04G12G05G29G25G02G30
 128921051.650 6 100458046.51243  24532864.594                    24532877.648
 119105569.065 6  92809678.31744  22665023.008                    22665032.418
 128353206.785 7 100015599.92943  24424792.516                    24424805.004
 110329527.761 8  85971131.100 7  20995012.422                    20995020.793
 106433835.808 8  82935557.081 8  20253664.828                    20253673.305
 123455710.283 7  96199309.118 6  23492845.461                    23492854.684
 114426312.004 8  89163421.210 7  21774607.719                    21774619.531
 111829938.607 8  87140335.45846  21280507.977                    21280514.520
 115820091.179 7  90249475.81545  22039830.266                    22039839.191
 11  8 29  1 14  0.0000000  0  9G26G10G04G12G05G29G25G02G30
 128827391.179 6 100385064.54143  24515041.008                    24515054.898
 119199045.561 7  92882517.11544  22682810.992                    22682820.199
 128430836.804 7 100076090.83044  24439565.914                    24439577.516
 110365482.232 8  85999147.538 7  21001854.055                    21001862.871
 106432645.812 8  82934629.832 8  20253438.328                    20253446.941
 123371721.037 7  96133862.951 6  23476862.594                    23476871.781
 114397097.499 8  89140656.670 7  21769048.344                    21769059.879
 111861824.770 7  87165181.81146  21286575.555                    21286582.098
 115791483.512 7  90227184.13645  22034386.234                    22034395.559
 11  8 29  1 14 30.0000000  0  9G26G10G04G12G05G29G25G02G30
 128733639.018 6 100312011.09443  24497201.023                    24497214.039
 119292814.831 6  92955584.04844  22700654.844                    22700664.387
 128508405.637 7 100136534.04443  24454326.797                    24454338.477
 110401972.913 8  86027581.828 7  21008798.227                    21008806.660
 106432025.640 8  82934146.608 8  20253320.172                    20253328.801
 123287721.270 7  96068408.619 6  23460877.953                    23460886.945
 114368446.435 8  89118331.173 7  21763596.344                    21763607.473
 111893811.463 7  87190106.50146  21292662.555                    21292669.234
 115763465.465 7  90205351.91745  22029054.320                    22029064.313
 11  8 29  1 15  0.0000000  0  9G26G10G04G12G05G29G25G02G30
 128639798.173 6 100238888.56143  24479343.773                    24479356.578
 119386874.052 6  93028876.93344  22718553.445                    22718562.871
 128585913.311 7 100196929.59343  24469076.141                    24469087.566
 110438997.976 8  86056432.529 7  21015843.813                    21015852.145
 106431974.512 8  82934106.791 8  20253310.594                    20253318.859
 123203712.471 7  96002947.254 6  23444891.109                    23444901.422
 114340359.989 8  89096445.641 7  21758251.711                    21758263.180
 111925898.907 7  87215109.70546  21298768.273                    21298775.301
 115736037.862 7  90183979.76545  22023835.000                    22023844.586
 11  8 29  1 15 30.0000000  0  9G26G10G04G12G05G29G25G02G30
 128545871.618 6 100165699.23743  24461469.227                    24461482.633
 119481219.768 6  93102393.02244  22736506.992                    22736516.621
 128663358.992 6 100257276.82243  24483813.375                    24483824.738
 110476555.472 8  86085698.111 7  21022990.852                    21022999.328
 106432491.304 8  82934509.509 8  20253409.125                    20253417.285
 123119695.480 6  95937479.506 6  23428903.680                    23428913.266
 114312838.491 8  89075000.333 7  21753014.703                    21753026.098
 111958085.758 7  87240190.36946  21304893.547                    21304900.082
 115709200.889 7  90163067.86345  22018728.445                    22018737.207
 11  8 29  1 16  0.0000000  0  9G26G10G04G12G05G29G25G02G30
 128451862.398 6 100092445.49743  24443580.367                    24443593.066
 119575849.454 6  93176130.39944  22754514.406                    22754523.766
 128740743.117 6 100317576.09843  24498538.820                    24498550.051
 110514644.256 8  86115377.669 7  21030238.828                    21030247.578
 106433575.706 8  82935354.525 8  20253615.297                    20253623.070
 123035671.936 7  95872006.613 6  23412914.844                    23412923.871
 114285883.076 7  89053996.118 7  21747884.961                    21747896.266
 111990372.270 7  87265348.68146  21311037.758                    21311044.152
 115682955.511 7  90142616.93345  22013733.844                    22013742.531
 11  8 29  1 16 30.0000000  0  9G26G10G04G12G05G29G25G02G30
 128357773.510 6 100019129.64543  24425676.328                    24425688.055
 119670760.283 7  93250086.87244  22772575.148                    22772584.789
 128818064.898 6 100377826.77743  24513252.273                    24513264.492
 110553262.375 8  86145469.695 7  21037587.523                    21037596.270
 106435226.927 8  82936641.220 8  20253929.391                    20253937.469
 122951642.893 6  95806529.445 6  23396924.117                    23396934.230
 114259494.299 7  89033433.456 7  21742863.344                    21742874.684
 112022757.354 7  87290583.81446  21317200.148                    21317206.719
 115657302.145 7  90122627.29345  22008851.766                    22008861.504
 11  8 29  1 17  0.0000000  0  9G26G10G04G12G05G29G25G02G30
 128263608.013 6  99945754.18243  24407756.375                    24407768.738
 119765948.911 7  93324259.79444  22790689.266                    22790698.492
 128895324.752 6 100438029.20142  24527954.828                    24527966.523
 110592408.586 8  86175973.234 7  21045037.047                    21045045.363
 106437444.581 8  82938369.278 8  20254351.547                    20254359.816
 122867609.877 6  95741049.212 6  23380933.008                    23380942.566
 114233673.039 8  89013312.982 7  21737949.977                    21737960.910
 112055240.767 7  87315895.55446  21323381.523                    21323388.270
 115632241.437 7  90103099.45445  22004083.281                    22004092.703
 11  8 29  1 17 30.0000000  0  9G26G10G04G12G05G29G25G02G30
 128169368.867 6  99872321.25743  24389823.188                    24389835.707
 119861412.753 7  93398647.18044  22808855.477                    22808865.578
 128972522.407 6 100498183.14342  24542644.422                    24542656.906
 110632080.804 8  86206886.638 7  21052585.945                    21052594.707
 106440228.006 8  82940538.210 8  20254881.063                    20254889.176
 122783574.716 6  95675567.261 6  23364941.469                    23364951.207
 114208420.008 8  88993635.315 7  21733144.555                    21733155.777
 112087821.927 7  87341283.46746  21329581.211                    21329588.273
 115607773.936 7  90084033.87945  21999427.586                    21999436.527
 11  8 29  1 18  0.0000000  0  9G26G10G04G12G05G29G25G02G30
 128075059.272 6  99798833.46043  24371876.148                    24371889.051
 119957149.031 7  93473246.84344  22827073.672                    22827083.156
 129049657.337 6 100558288.23342  24557323.180                    24557335.117
 110672277.506 8  86238208.714 7  21060235.281                    21060243.887
 106443576.388 8  82943147.360 8  20255518.406                    20255526.703
 122699538.401 7  95610084.439 6  23348950.688                    23348959.973
 114183735.897 8  88974400.970 7  21728447.102                    21728458.516
 112120500.370 7  87366747.18746  21335800.109                    21335806.367
 115583900.124 7  90065430.89045  21994884.695                    21994893.402
 11  8 29  1 18 30.0000000  0  9G26G10G04G12G05G29G25G02G30
 127980682.269 6  99725293.14243  24353916.648                    24353929.098
 120053154.811 7  93548056.50844  22845343.063                    22845352.398
 129126729.813 6 100618344.62842  24571990.039                    24572001.508
 110712996.949 8  86269938.140 7  21067983.805                    21067992.668
 106447489.151 8  82946196.292 8  20256262.531                    20256270.766
 122615502.627 7  95544602.046 6  23332958.664                    23332967.660
 114159621.451 8  88955610.513 7  21723857.938                    21723869.379
 112153275.868 7  87392286.53746  21342036.617                    21342043.125
 115560620.577 7  90047290.97445  21990454.273                    21990463.996
 11  8 29  1 19  0.0000000  0  9G26G10G04G12G05G29G25G02G30
 127886240.742 6  99651702.52043  24335944.992                    24335957.336
 120149427.161 7  93623073.89644  22863662.438                    22863672.438
 129203739.309 6 100678351.97242  24586644.453                    24586656.090
 110754237.615 8  86302073.693 7  21075831.727                    21075840.750
 106451965.322 8  82949684.246 8  20257114.602                    20257122.859
 122531468.802 7  95479121.169 6  23316967.758                    23316977.023
 114136077.127 8  88937264.316 7  21719377.914                    21719389.129
 112186147.651 7  87417900.90946  21348292.211                    21348298.906
 115537935.553 7  90029614.32445  21986137.375                    21986146.977
 11  8 29  1 19 30.0000000  0  9G26G10G04G12G05G29G25G02G30
 127791737.927 6  99578064.18442  24317961.883                    24317974.094
 120245963.074 7  93698296.64544  22882033.102                    22882042.617
 129280685.883 6 100738310.36842  24601287.055                    24601298.203
 110795997.708 8  86334613.996 7  21083778.570                    21083787.461
 106457004.054 8  82953610.553 8  20258073.570                    20258081.898
 122447438.156 7  95413642.795 6  23300977.445                    23300986.254
 114113103.615 8  88919362.908 7  21715006.023                    21715017.324
 112219115.341 7  87443590.02246  21354565.523                    21354572.305
 115515845.579 7  90012401.35545  21981933.984                    21981943.426
 11  8 29  1 20  0.0000000  0  9G26G10G04G12G05G29G25G02G30
 127697176.934 6  99504380.46443  24299966.883                    24299979.363
 120342759.955 7  93773722.75144  22900452.672                    22900462.367
 129357569.487 6 100798219.61443  24615917.195                    24615928.867
 110838275.277 8  86367557.535 7  21091824.023                    21091832.609
 106462604.704 8  82957974.712 8  20259139.156                    20259147.305
 122363412.115 7  95348168.001 6  23284987.398                    23284997.020
 114090701.540 8  88901906.783 7  21710742.969                    21710754.418
 112252178.455 7  87469353.48446  21360857.531                    21360863.980
 115494351.000 7  89995652.33345  21977843.469                    21977852.949
 11  8 29  1 20 30.0000000  0  9G26G10G04G12G05G29G25G02G30
 127602560.878 6  99430653.84042  24281962.930                    24281974.551
 120439814.647 6  93849349.74344  22918921.266                    22918931.301
 129434389.738 6 100858079.53642  24630535.758                    24630547.578
 110881068.710 8  86400903.043 7  21099967.367                    21099976.020
 106468766.234 8  82962775.923 8  20260311.563                    20260319.859
 122279391.970 6  95282697.830 6  23268998.359                    23269008.254
 114068871.395 8  88884896.310 7  21706589.078                    21706599.992
 112285336.557 8  87495190.96146  21367167.219                    21367173.410
 115473452.247 7  89979367.58245  21973866.773                    21973876.074
 11  8 29  1 21  0.0000000  0  9G26G10G04G12G05G29G25G02G30
 127507892.901 6  99356886.77443  24263947.609                    24263959.938
 120537124.049 7  93925175.22444  22937439.070                    22937448.527
 129511146.708 6 100917890.10643  24645142.086                    24645153.602
 110924376.035 8  86434649.008 7  21108208.320                    21108216.797
 106475487.879 8  82968013.593 8  20261590.688                    20261598.836
 122195379.400 7  95217233.502 6  23253011.609                    23253021.102
 114047613.871 8  88868332.029 7  21702543.641                    21702555.059
 112318589.292 8  87521102.17446  21373495.234                    21373501.586
 115453149.728 7  89963547.43945  21970003.641                    21970012.559
 11  8 29  1 21 30.0000000  0  9G26G10G04G12G05G29G25G02G30
 127413175.876 6  99283081.47443  24245923.148                    24245935.094
 120634685.639 6  94001197.19144  22956004.594                    22956013.563
 129587840.068 6 100977651.20743  24659736.938                    24659748.016
 110968195.583 8  86468794.106 7  21116546.750                    21116555.445
 106482768.524 8  82973686.831 8  20262976.055                    20262984.711
 122111375.809 6  95151776.222 6  23237026.063                    23237035.832
 114026929.149 8  88852214.101 7  21698607.344                    21698618.500
 112351936.139 8  87547086.73446  21379841.016                    21379847.320
 115433443.521 7  89948191.95645  21966253.531                    21966262.836
 11  8 29  1 22  0.0000000  0  9G26G10G04G12G05G29G25G02G30
 127318413.581 7  99209240.92343  24227890.320                    24227901.820
 120732496.845 6  94077413.66244  22974616.813                    22974626.797
 129664470.183 6 101037362.95043  24674319.125                    24674330.508
 111012525.450 8  86503336.854 7  21124982.375                    21124991.180
 106490607.851 8  82979795.410 8  20264467.719                    20264476.074
 122027383.036 7  95086327.355 6  23221043.000                    23221052.297
 114006818.215 8  88836543.254 7  21694780.633                    21694791.656
 112385377.013 8  87573144.56246  21386204.438                    21386210.387
 115414334.241 7  89933301.61745  21962617.148                    21962626.563
 11  8 29  1 22 30.0000000  0  8G26G10G12G05G29G25G02G30
 127223609.216 7  99135367.53843  24209850.164                    24209861.543
 120830555.009 6  94153822.57844  22993277.039                    22993287.332
 111057364.454 8  86538276.342 7  21133514.766                    21133523.715
 106499005.493 8  82986339.049 8  20266065.891                    20266074.086
 121943402.838 6  95020888.264 6  23205061.930                    23205071.727
 113987281.687 8  88821320.009 7  21691063.227                    21691074.152
 112418911.491 8  87599275.31546  21392585.625                    21392592.109
 115395822.446 7  89918876.85845  21959094.367                    21959103.684
 11  8 29  1 23  0.0000000  0  8G26G10G12G05G29G25G02G30
 127128765.102 7  99061463.19243  24191801.141                    24191813.344
 120928856.517 6  94230421.11144  23011983.273                    23011993.461
 111102709.207 8  86573609.908 7  21142143.766                    21142152.383
 106507958.858 8  82993315.717 8  20267769.914                    20267777.977
 121859435.898 6  94955459.561 6  23189083.406                    23189093.914
 113968319.319 8  88806544.156 7  21687454.531                    21687465.684
 112452538.626 8  87625478.27946  21398984.914                    21398991.242
 115377907.629 7  89904917.25945  21955685.461                    21955695.063
 11  8 29  1 23 30.0000000  0  8G26G10G12G05G29G25G02G30
 127033884.703 7  98987530.55343  24173746.281                    24173758.078
 121027398.689 6  94307207.15444  23030735.148                    23030745.695
 111148558.634 8  86609336.735 7  21150868.773                    21150877.539
 106517467.680 8  83000725.203 8  20269578.992                    20269587.348
 121775483.847 7  94890042.453 6  23173108.094                    23173117.609
 113949931.759 8  88792216.187 7  21683955.422                    21683966.082
 112486258.278 8  87651753.32446  21405401.188                    21405407.625
 115360590.279 7  89891423.23745  21952390.086                    21952399.230
 11  8 29  1 24  0.0000000  0  8G26G10G12G05G29G25G02G30
 126938971.324 7  98913572.23943  24155684.508                    24155696.223
 121126178.528 6  94384178.38944  23049532.922                    23049542.613
 111194910.646 8  86645455.183 7  21159689.320                    21159697.727
 106527530.980 8  83008566.764 8  20271494.016                    20271502.438
 121691548.288 7  94824638.160 6  23157135.688                    23157145.535
 113932119.226 8  88778336.296 7  21680565.438                    21680577.168
 112520069.997 8  87678100.11046  21411835.430                    21411841.887
 115343870.310 7  89878394.71045  21949208.414                    21949218.172
 11  8 29  1 24 30.0000000  0  8G26G10G12G05G29G25G02G30
 126844028.035 7  98839590.59943  24137617.445                    24137629.617
 121225193.014 7  94461332.47344  23068375.070                    23068384.504
 111241763.264 8  86681963.704 7  21168604.906                    21168613.617
 106538147.673 8  83016839.519 8  20273514.438                    20273522.816
 121607630.792 7  94759247.982 6  23141166.781                    23141175.895
 113914882.228 8  88764904.872 7  21677285.563                    21677297.016
 112553973.344 8  87704518.29846  21418287.242                    21418293.695
 115327748.147 7  89865832.00745  21946140.445                    21946149.730
 11  8 29  1 25  0.0000000  0  8G26G10G12G05G29G25G02G30
 126749058.042 6  98765588.14543  24119544.805                    24119556.695
 121324439.699 7  94538667.51144  23087260.508                    23087270.590
 111289114.393 8  86718860.673 7  21177615.500                    21177624.375
 106549316.783 8  83025542.744 8  20275639.664                    20275647.953
 121523732.832 7  94693872.971 6  23125201.578                    23125211.070
 113898221.104 8  88751922.178 7  21674114.813                    21674126.645
 112587968.096 8  87731007.70746  21424756.148                    21424762.465
 115312223.727 7  89853735.06845  21943186.227                    21943195.813
 11  8 29  1 25 30.0000000  0  8G26G10G12G05G29G25G02G30
 126654064.538 7  98691567.38843  24101467.891                    24101480.055
 121423915.493 7  94616181.05644  23106190.586                    23106200.320
 111336962.253 8  86756144.719 7  21186720.734                    21186729.203
 106561037.028 8  83034675.425 8  20277870.008                    20277878.617
 121439856.039 7  94628514.516 7  23109240.008                    23109249.949
 113882135.998 8  88739388.319 7  21671054.180                    21671065.719
 112622053.738 8  87757567.95046  21431242.492                    21431248.773
 115297297.058 7  89842103.92345  21940345.758                    21940354.902
 11  8 29  1 26  0.0000000  0  8G26G10G12G05G29G25G02G30
 126559050.678 6  98617530.77843  24083387.961                    24083399.266
 121523617.644 7  94693870.99744  23125162.883                    23125172.836
 111385304.576 8  86793814.047 7  21195920.406                    21195928.805
 106573307.719 8  83044237.024 8  20280205.078                    20280212.953
 121356002.242 7  94563173.906 6  23093283.000                    23093292.059
 113866627.419 8  88727303.721 7  21668102.977                    21668114.125
 112656229.823 8  87784198.65246  21437745.563                    21437752.309
 115282968.534 7  89830938.86745  21937618.867                    21937628.254
 11  8 29  1 26 30.0000000  0  8G26G10G12G05G29G25G02G30
 126464019.826 7  98543480.89243  24065303.281                    24065315.285
 121623542.975 7  94771734.84444  23144178.570                    23144187.953
 111434139.454 8  86831867.166 7  21205213.117                    21205221.992
 106586127.144 8  83054226.211 8  20282644.414                    20282652.703
 121272172.423 7  94497852.016 6  23077330.813                    23077340.984
 113851695.391 8  88715668.367 7  21665261.555                    21665272.605
 112690495.885 8  87810899.47046  21444266.664                    21444273.348
 115269237.830 7  89820239.63145  21935006.141                    21935015.605
 11  8 29  1 27  0.0000000  0  8G26G10G12G05G29G25G02G30
 126368975.135 6  98469420.25843  24047216.547                    24047228.746
 121723689.026 7  94849770.69044  23163235.422                    23163245.094
 111483465.095 8  86870302.726 7  21214599.055                    21214608.125
 106599494.739 8  83064642.542 8  20285188.367                    20285196.469
 121188368.530 7  94432550.325 6  23061383.344                    23061392.945
 113837340.331 8  88704482.599 7  21662530.016                    21662541.160
 112724851.975 8  87837670.44546  21450804.750                    21450810.723
 115256105.170 7  89810006.41545  21932506.938                    21932516.645
 11  8 29  1 27 30.0000000  0  8G26G10G12G05G29G25G02G30
 126273920.135 6  98395351.58043  24029128.398                    24029140.496
 121824053.014 7  94927976.36744  23182333.984                    23182343.867
 111533279.102 8  86909118.808 7  21224078.484                    21224087.355
 106613409.416 8  83075485.171 8  20287835.992                    20287844.129
 121104592.280 7  94367270.160 7  23045441.266                    23045450.715
 113823562.522 8  88693746.630 7  21659908.148                    21659919.582
 112759297.712 8  87864511.27546  21457359.102                    21457365.398
 115243570.663 7  89800239.27945  21930121.648                    21930131.246
 11  8 29  1 28  0.0000000  0  8G26G10G12G05G29G25G02G30
 126178857.736 6  98321277.10343  24011038.945                    24011050.723
 121924631.833 7  95006349.41444  23201473.133                    23201483.305
 111583579.371 8  86948313.800 7  21233650.422                    21233659.422
 106627869.669 8  83086752.920 8  20290587.844                    20290595.910
 121020845.225 7  94302012.767 7  23029504.977                    23029514.371
 113810362.001 8  88683460.479 7  21657396.172                    21657407.031
 112793832.699 8  87891421.63946  21463930.703                    21463937.227
 115231634.038 7  89790938.03045  21927850.039                    21927859.652
 11  8 29  1 28 30.0000000  0  8G26G10G12G05G29G25G02G30
 126083791.455 6  98247199.61243  23992948.102                    23992959.977
 122025422.591 7  95084887.64844  23220653.422                    23220663.039
 111634364.153 7  86987886.345 7  21243314.516                    21243323.156
 106642874.327 8  83098444.878 8  20293443.055                    20293451.363
 120937128.808 7  94236779.228 6  23013574.070                    23013583.371
 113797738.922 8  88673624.306 7  21654994.305                    21655005.512
 112828456.502 8  87918401.22046  21470519.656                    21470526.141
 115220295.352 7  89782102.69845  21925692.656                    21925701.801
 11  8 29  1 29  0.0000000  0  8G26G10G12G05G29G25G02G30
 125988724.453 6  98173121.56543  23974857.258                    23974869.414
 122126422.717 7  95163589.01543  23239872.852                    23239882.895
 111685631.086 8  87027834.571 7  21253070.570                    21253079.148
 106658422.325 8  83110560.221 8  20296401.617                    20296410.004
 120853444.604 7  94171570.795 6  22997649.336                    22997658.227
 113785693.372 8  88664238.138 7  21652701.867                    21652713.180
 112863168.989 8  87945449.89946  21477125.234                    21477131.746
 115209554.281 7  89773733.04045  21923648.250                    21923658.035
 11  8 29  1 29 30.0000000  0  8G26G10G12G05G29G25G02G30
 125893660.043 6  98099045.54043  23956767.141                    23956778.625
 122227629.463 7  95242451.38943  23259131.820                    23259141.668
 111737377.955 8  87068156.784 7  21262917.500                    21262926.230
 106674512.434 8  83123097.988 8  20299463.617                    20299471.504
 120769794.454 7  94106388.910 6  22981731.453                    22981740.844
 113774225.581 8  88655302.186 7  21650519.563                    21650531.000
 112897969.497 8  87972567.17146  21483747.656                    21483754.047
 115199410.938 7  89765829.13645  21921718.484                    21921727.930
 11  8 29  1 30  0.0000000  0  8G26G10G12G05G29G25G02G30
 125798601.381 6  98024973.96343  23938678.109                    23938689.047
 122329039.822 7  95321472.39144  23278430.023                    23278439.660
 111789602.230 8  87108850.983 7  21272855.594                    21272864.324
 106691143.139 8  83136056.990 8  20302628.500                    20302636.406
 120686179.790 7  94041234.653 6  22965819.758                    22965829.379
 113763335.380 8  88646816.284 7  21648447.242                    21648458.395
 112932857.733 8  87999752.81446  21490386.508                    21490392.840
 115189864.953 7  89758390.70445  21919901.766                    21919911.203
 11  8 29  1 30 30.0000000  0  8G26G10G12G05G29G25G02G30
 125703551.964 6  97950909.61943  23920590.461                    23920601.980
 122430650.969 7  95400649.88344  23297766.258                    23297775.551
 111842302.084 8  87149915.775 7  21282884.156                    21282892.820
 106708313.334 8  83149436.378 8  20305895.672                    20305903.738
 120602602.448 7  93976109.509 6  22949915.797                    22949924.801
 113753022.950 8  88638780.629 7  21646484.992                    21646496.145
 112967833.901 8  88027006.96746  21497042.617                    21497048.574
 115180916.139 7  89751417.60645  21918199.109                    21918208.094
 11  8 29  1 31  0.0000000  0  8G26G10G12G05G29G25G02G30
 125608515.084 6  97876855.02143  23902505.945                    23902517.348
 122532460.274 7  95479981.81843  23317139.703                    23317149.402
 111895475.641 8  87191349.685 7  21293002.633                    21293011.531
 106726022.058 8  83163235.405 8  20309265.367                    20309273.516
 120519064.269 7  93911014.864 6  22934018.477                    22934028.129
 113743288.561 8  88631195.363 7  21644632.555                    21644644.098
 113002897.697 8  88054329.40546  21503715.141                    21503721.473
 115172564.651 7  89744909.94545  21916609.914                    21916619.051
 11  8 29  1 31 30.0000000  0  8G26G10G12G05G29G25G02G30
 125513493.912 6  97802812.67443  23884423.805                    23884434.945
 122634464.887 7  95559465.89844  23336550.336                    23336560.246
 111949120.449 7  87233150.802 7  21303210.844                    21303219.625
 106744267.644 8  83177452.759 8  20312737.477                    20312745.719
 120435566.772 7  93845951.952 6  22918129.781                    22918138.996
 113734132.033 8  88624060.409 7  21642890.305                    21642901.598
 113038048.648 8  88081719.74746  21510404.039                    21510410.121
 115164810.022 7  89738867.35945  21915133.969                    21915143.258
 11  8 29  1 32  0.0000000  0  8G26G10G12G05G29G25G02G30
 125418492.173 6  97728785.45943  23866345.352                    23866356.348
 122736661.734 7  95639099.79544  23355998.508                    23356007.887
 112003234.186 7  87275317.308 7  21313508.422                    21313517.230
 106763048.894 8  83192087.513 8  20316311.641                    20316319.500
 120352111.499 7  93780921.922 6  22902248.586                    22902258.004
 113725553.356 7  88617375.706 7  21641257.680                    21641268.941
 113073286.392 8  88109177.72746  21517109.195                    21517115.961
 115157652.024 7  89733289.68445  21913771.844                    21913781.379
 11  8 29  1 32 30.0000000  0  8G26G10G12G05G29G25G02G30
 125323512.900 6  97654775.76743  23848271.469                    23848282.293
 122839048.271 7  95718881.48644  23375481.938                    23375491.527
 112057814.841 8  87317847.664 7  21323894.641                    21323903.250
 106782364.258 8  83207138.466 8  20319986.680                    20319995.211
 120268700.173 7  93715926.092 6  22886375.875                    22886384.813
 113717552.351 8  88611141.146 7  21639735.508                    21639746.547
 113108610.623 8  88136703.10246  21523831.094                    21523837.836
 115151090.174 7  89728176.52445  21912523.594                    21912532.773
 11  8 29  1 33  0.0000000  0  8G26G10G12G05G29G25G02G30
 125228559.561 6  97580786.31043  23830202.023                    23830213.453
 122941621.746 7  95798808.86144  23395000.656                    23395010.906
 112112859.822 8  87360739.819 7  21334369.750                    21334378.078
 106802212.659 8  83222604.765 8  20323763.977                    20323772.172
 120185334.690 7  93650966.032 6  22870512.336                    22870522.176
 113710129.166 8  88605356.859 7  21638322.516                    21638333.984
 113144021.219 8  88164295.78346  21530569.375                    21530575.832
 115145124.396 7  89723527.84445  21911387.633                    21911397.785
 11  8 29  1 33 30.0000000  0  8G26G10G12G05G29G25G02G30
 125133635.406 6  97506819.53644  23812138.453                    23812149.715
 123044379.235 7  95878879.60743  23414554.789                    23414564.152
 112168367.170 8  87403992.269 7  21344932.422                    21344940.840
 106822592.218 8  83238484.958 8  20327641.797                    20327650.309
 120102016.443 7  93586042.790 6  22854657.063                    22854666.602
 113703283.348 8  88600022.454 7  21637019.875                    21637031.246
 113179517.832 8  88191955.47646  21537324.469                    21537331.109
 115139754.172 7  89719343.23745  21910366.016                    21910375.816
 11  8 29  1 34  0.0000000  0  8G26G10G12G05G29G25G02G30
 125038743.829 6  97432878.16443  23794081.078                    23794093.020
 123147318.058 7  95959091.67644  23434143.875                    23434153.184
 112224334.209 7  87447602.918 7  21355582.258                    21355591.246
 106843501.867 8  83254778.203 8  20331620.969                    20331628.945
 120018747.513 7  93521157.936 6  22838811.711                    22838820.496
 113697014.962 8  88595138.012 7  21635827.086                    21635838.359
 113215100.427 8  88219682.18546  21544095.805                    21544102.551
 115134979.064 7  89715622.33045  21909457.336                    21909466.711
 11  8 29  1 34 30.0000000  0  8G26G10G12G05G29G25G02G30
 124943888.018 6  97358964.69944  23776030.906                    23776041.664
 123250434.950 7  96039442.48444  23453766.023                    23453775.680
 112280758.870 7  87491570.161 7  21366319.609                    21366328.578
 106864939.736 8  83271483.055 8  20335700.570                    20335708.285
 119935529.445 7  93456312.747 7  22822975.781                    22822984.523
 113691323.538 8  88590703.124 7  21634744.203                    21634755.500
 113250768.399 8  88247475.40146  21550882.773                    21550889.203
 115130798.603 7  89712364.80245  21908662.250                    21908671.516
 11  8 29  1 35  0.0000000  0  8G26G10G12G05G29G25G02G30
 124849071.643 6  97285081.94044  23757987.805                    23757998.879
 123353727.521 7  96119930.20143  23473422.203                    23473431.668
 112337638.217 7  87535891.710 7  21377143.680                    21377152.344
 106886904.700 8  83288598.631 8  20339880.133                    20339888.434
 119852363.998 7  93391508.555 7  22807149.578                    22807159.078
 113686209.186 8  88586717.923 7  21633770.758                    21633781.980
 113286521.710 8  88275335.12146  21557686.594                    21557693.367
 115127212.511 8  89709570.40645  21907979.484                    21907988.660
 11  8 29  1 35 30.0000000  0  8G26G10G12G05G29G25G02G30
 124754298.037 6  97211232.48743  23739952.680                    23739964.285
 123457193.160 7  96200552.75343  23493110.180                    23493120.445
 112394970.479 7  87580566.166 7  21388053.602                    21388062.027
 106909395.326 8  83306123.811 8  20344160.047                    20344168.086
 119769252.857 7  93326746.655 6  22791334.414                    22791343.504
 113681671.661 8  88583182.196 7  21632907.563                    21632918.289
 113322360.161 8  88303261.18946  21564506.328                    21564513.059
 115124220.321 7  89707238.80645  21907409.859                    21907419.555
 11  8 29  1 36  0.0000000  0  9G26G10G15G12G05G29G25G02G30
 124659570.678 6  97137419.09743  23721926.516                    23721937.609
 123560829.194 7  96281308.08043  23512831.695                    23512841.871
 129479520.71416 100893179.88716  24639140.234                    24639152.129
 112452753.514 8  87625591.877 7  21399049.250                    21399058.078
 106932410.302 8  83324057.571 8  20348539.516                    20348547.551
 119686197.865 7  93262028.530 7  22775529.563                    22775538.715
 113677710.895 8  88580095.895 7  21632153.508                    21632164.387
 113358283.646 8  88331253.51446  21571342.328                    21571348.930
 115121821.779 7  89705369.80145  21906953.742                    21906963.305
 11  8 29  1 36 30.0000000  0  9G26G10G15G12G05G29G25G02G30
 124564892.581 6  97063644.06444  23703909.633                    23703920.605
 123664632.479 7  96362193.73243  23532584.203                    23532594.785
 129386603.812 6 100820777.386 6  24621458.617                    24621470.883
 112510984.309 8  87670966.496 7  21410130.484                    21410139.172
 106955947.718 8  83342398.428 8  20353018.734                    20353026.672
 119603200.753 7  93197355.501 7  22759735.742                    22759744.969
 113674326.141 7  88577458.423 7  21631509.375                    21631521.094
 113394291.780 8  88359311.80646  21578194.609                    21578201.027
 115120015.829 7  89703962.54645  21906609.984                    21906619.234
 11  8 29  1 37  0.0000000  0  9G26G10G15G12G05G29G25G02G30
 124470267.129 6  96989910.05443  23685903.469                    23685914.113
 123768600.391 7  96443207.68943  23552368.750                    23552379.051
 129293551.493 6 100748269.338 6  24603750.641                    24603762.922
 112569660.357 8  87716688.073 7  21421295.836                    21421304.813
 106980005.716 8  83361144.939 8  20357596.922                    20357604.836
 119520262.987 7  93132728.727 7  22743952.828                    22743962.375
 113671517.026 8  88575269.504 7  21630975.109                    21630985.949
 113430384.091 8  88387435.67846  21585062.633                    21585069.313
 115118801.884 8  89703016.60745  21906379.195                    21906388.488
 11  8 29  1 37 30.0000000  0  9G26G10G15G12G05G29G25G02G30
 124375698.340 6  96916220.21044  23667907.367                    23667917.848
 123872730.639 7  96524348.09843  23572185.398                    23572193.781
 129200366.965 6 100675658.296 6  24586018.086                    24586030.266
 112628779.871 8  87762755.202 7  21432545.961                    21432555.008
 107004583.779 8  83380296.689 8  20362273.805                    20362281.906
 119437386.907 7  93068150.000 7  22728182.117                    22728191.375
 113669283.924 8  88573529.425 7  21630550.180                    21630561.211
 113466561.073 8  88415625.53546  21591946.953                    21591953.840
 115118180.011 8  89702532.01745  21906260.883                    21906270.293
 11  8 29  1 38  0.0000000  0  9G26G10G15G12G05G29G25G02G30
 124281189.612 6  96842577.14744  23649923.039                    23649933.434
 123977020.184 7  96605612.66343  23592030.805                    23592040.105
 129107052.611 6 100602946.039 5  24568260.766                    24568272.934
 112688340.768 8  87809166.275 7  21443880.234                    21443889.012
 107029680.168 8  83399852.331 8  20367049.414                    20367057.715
 119354574.404 7  93003620.828 7  22712423.531                    22712432.938
 113667626.405 8  88572237.860 7  21630234.492                    21630246.035
 113502822.492 8  88443881.17446  21598847.102                    21598854.195
 115118149.532 8  89702508.25945  21906254.930                    21906264.270
 11  8 29  1 38 30.0000000  0  9G26G10G15G12G05G29G25G02G30
 124186744.385 7  96768983.59544  23631950.414                    23631961.309
 124081466.498 7  96686999.37643  23611905.977                    23611915.395
 129013610.593 6 100530134.345 5  24550478.680                    24550491.488
 112748339.982 8  87855918.890 7  21455297.547                    21455306.414
 107055293.014 8  83419810.407 8  20371923.438                    20371931.414
 119271827.050 7  92939142.412 6  22696677.055                    22696686.184
 113666543.874 8  88571394.334 7  21630028.500                    21630039.641
 113539167.891 8  88472202.25946  21605763.602                    21605770.141
 115118709.645 8  89702944.69545  21906361.508                    21906371.359
 11  8 29  1 39  0.0000000  0  9G26G10G15G12G05G29G25G02G30
 124092365.765 7  96695441.90943  23613990.438                    23614001.051
 124186066.449 7  96768505.79243  23631811.188                    23631820.906
 128920043.382 6 100457225.122 5  24532673.328                    24532685.773
 112808774.891 8  87903011.005 7  21466797.688                    21466806.746
 107081420.361 8  83440169.407 8  20376895.523                    20376903.223
 119189146.546 7  92874716.082 7  22680943.266                    22680952.238
 113666035.831 8  88570998.453 7  21629932.055                    21629942.922
 113575597.270 8  88500588.77446  21612695.969                    21612702.801
 115119859.583 8  89703840.75345  21906580.477                    21906589.570
 11  8 29  1 39 30.0000000  0  9G26G10G15G12G05G29G25G02G30
 123998057.353 7  96621954.92643  23596043.734                    23596054.781
 124290817.563 7  96850130.03443  23651744.344                    23651753.738
 128826353.454 6 100384220.212 5  24514844.813                    24514856.523
 112869643.030 8  87950440.706 7  21478380.664                    21478389.461
 107108060.727 8  83460928.139 8  20381964.688                    20381972.898
 119106534.759 7  92810343.308 6  22665222.844                    22665232.195
 113666101.744 8  88571049.817 7  21629944.406                    21629955.813
 113612110.009 8  88529040.25446  21619643.617                    21619650.430
 115121598.601 7  89705195.81245  21906911.523                    21906920.805
 11  8 29  1 40  0.0000000  0  9G26G10G15G12G05G29G25G02G30
 123903822.723 7  96548525.43943  23578112.266                    23578122.414
 124395717.355 7  96931870.09443  23671706.148                    23671715.996
 128732543.431 6 100311121.818 5  24496992.289                    24497005.250
 112930942.421 8  87998206.463 7  21490045.945                    21490054.422
 107135212.931 8  83482085.720 8  20387131.664                    20387139.359
 119023993.814 7  92746025.753 7  22649515.508                    22649524.969
 113666741.447 8  88571548.268 7  21630066.125                    21630077.313
 113648706.548 8  88557557.02046  21626608.094                    21626614.734
 115123926.155 7  89707009.49045  21907354.359                    21907364.070
 11  8 29  1 40 30.0000000  0  9G26G10G15G12G05G29G25G02G30
 123809665.451 7  96475156.25044  23560194.047                    23560204.844
 124500762.918 7  97013723.74544  23691695.563                    23691704.934
 128638615.742 6 100237931.716 5  24479118.016                    24479130.824
 112992670.553 8  88046306.296 7  21501792.188                    21501801.098
 107162875.187 8  83503640.741 8  20392395.672                    20392403.930
 118941525.467 7  92681764.734 7  22633822.359                    22633831.633
 113667954.535 8  88572493.535 7  21630297.453                    21630308.688
 113685386.948 7  88586139.14346  21633587.945                    21633594.652
 115126841.642 7  89709281.29445  21907909.109                    21907918.691
 11  8 29  1 41  0.0000000  0  9G26G10G15G12G05G29G25G02G30
 123715588.924 6  96401849.99044  23542292.180                    23542302.648
 124605951.573 7  97095688.88843  23711712.242                    23711722.383
 128544572.904 6 100164651.840 6  24461222.695                    24461235.039
 113054824.637 8  88094738.026 7  21513619.578                    21513628.656
 107191045.662 8  83525591.774 8  20397756.336                    20397764.121
 118859131.526 7  92617561.714 6  22618142.930                    22618152.289
 113669740.392 8  88573885.095 7  21630636.867                    21630648.195
 113722150.427 8  88614785.99946  21640583.664                    21640590.480
 115130344.243 7  89712010.59245  21908575.555                    21908585.023
 11  8 29  1 41 30.0000000  0  9G26G10G15G12G05G29G25G02G30
 123621596.281 6  96328609.07843  23524405.430                    23524416.125
 124711280.419 6  97177763.26643  23731756.094                    23731765.629
 128450417.550 6 100091284.316 6  24443305.523                    24443317.801
 113117401.883 8  88143499.521 7  21525527.563                    21525536.691
 107219722.357 8  83547937.258 8  20403213.023                    20403221.074
 118776813.585 7  92553417.906 6  22602478.797                    22602487.973
 113672098.210 8  88575722.343 7  21631085.773                    21631097.191
 113758996.855 7  88643497.49046  21647595.469                    21647602.070
 115134432.914 7  89715196.57345  21909353.938                    21909363.137
 11  8 29  1 42  0.0000000  0  9G26G10G15G12G05G29G25G02G30
 123527691.538 6  96255436.70044  23506535.711                    23506546.629
 124816747.173 6  97259945.09943  23751825.445                    23751835.344
 128356152.135 6 100017831.041 6  24425367.180                    24425379.938
 113180400.339 8  88192589.204 7  21537515.992                    21537525.109
 107248904.243 8  83570676.398 8  20408766.336                    20408774.316
 118694573.962 7  92489335.125 7  22586828.914                    22586837.836
 113675027.840 8  88578005.159 7  21631642.820                    21631654.234
 113795926.546 7  88672273.86345  21654622.867                    21654629.547
 115139107.137 7  89718838.82945  21910243.289                    21910252.895
 11  8 29  1 42 30.0000000  0  9G26G10G15G12G05G29G25G02G30
 123433878.023 6  96182335.36144  23488684.406                    23488694.715
 124922349.021 6  97342232.19543  23771921.164                    23771931.230
 128261779.151 6  99944293.965 6  24407408.672                    24407420.984
 113243817.003 7  88242004.793 7  21549584.063                    21549592.734
 107278589.363 8  83593807.672 8  20414415.523                    20414423.207
 118612414.271 7  92425314.615 7  22571194.938                    22571203.500
 113678528.525 8  88580732.954 7  21632309.188                    21632320.664
 113832939.332 7  88701114.98145  21661666.563                    21661673.285
 115144365.910 7  89722936.57045  21911244.008                    21911253.574
 11  8 29  1 43  0.0000000  0  9G26G10G15G12G05G29G25G02G30
 123340159.057 7  96109307.73443  23470849.797                    23470860.527
 125028083.476 6  97424622.62343  23792041.648                    23792051.449
 128167301.213 6  99870675.075 6  24389429.820                    24389441.727
 113307649.387 7  88291744.301 7  21561730.852                    21561739.414
 107308775.938 8  83617329.687 8  20420159.305                    20420167.293
 118530336.551 7  92361358.008 7  22555575.875                    22555585.246
 113682599.621 8  88583905.226 7  21633083.781                    21633095.055
 113870034.873 7  88730020.58046  21668725.273                    21668732.063
 115150208.316 7  89727489.09745  21912355.648                    21912365.414
 11  8 29  1 43 30.0000000  0  9G26G10G15G12G05G29G25G02G30
 123246538.177 7  96036356.52144  23453034.320                    23453044.832
 125133947.667 6  97507114.12943  23812186.531                    23812196.512
 128072720.529 6  99796976.124 6  24371431.078                    24371443.344
 113371894.405 7  88341805.340 7  21573956.203                    21573964.977
 107339461.597 8  83641240.607 8  20425998.727                    20426006.766
 118448342.299 7  92297466.441 7  22539972.664                    22539981.945
 113687240.097 8  88587521.170 7  21633967.102                    21633977.945
 113907212.729 7  88758990.33846  21675799.961                    21675806.813
 115156633.135 8  89732495.43145  21913578.539                    21913587.801
 11  8 29  1 44  0.0000000  0  9G26G10G15G12G05G29G25G02G30
 123153019.145 7  95963484.65644  23435238.188                    23435249.434
 125239938.959 6  97589704.70043  23832357.086                    23832366.371
 127978040.198 6  99723199.525 6  24353414.695                    24353426.160
 113436550.345 7  88392186.595 7  21586259.820                    21586268.313
 107370645.370 8  83665539.656 8  20431932.734                    20431940.938
 118366433.773 7  92233641.649 6  22524385.930                    22524394.801
 113692449.952 8  88591580.789 7  21634958.281                    21634969.656
 113944473.827 7  88788024.94945  21682890.383                    21682896.586
 115163639.977 7  89737955.30545  21914912.164                    21914921.063
 11  8 29  1 44 30.0000000  0  9G26G10G15G12G05G29G25G02G30
 123059605.163 7  95890694.65344  23417461.766                    23417472.430
 125346054.585 7  97672392.14843  23852549.844                    23852559.164
 127883262.525 7  99649347.031 6  24335378.641                    24335390.328
 113501614.074 7  88442885.584 7  21598640.617                    21598649.879
 107402325.065 8  83690225.143 8  20437961.352                    20437969.180
 118284612.923 7  92169885.183 7  22508815.938                    22508825.387
 113698228.046 8  88596083.195 7  21636058.117                    21636069.344
 113981817.037 7  88817123.54745  21689997.094                    21690003.441
 115171227.611 7  89743867.73545  21916355.531                    21916365.039
 11  8 29  1 45  0.0000000  0  9G26G10G15G12G05G29G25G02G30
 122966299.673 7  95817989.15944  23399706.227                    23399717.625
 125452292.148 7  97755174.63043  23872765.664                    23872775.770
 127788389.939 6  99575420.610 6  24317323.859                    24317336.047
 113567083.041 7  88493900.368 7  21611099.227                    21611108.098
 107434498.765 8  83715295.568 8  20444083.648                    20444091.398
 118202881.613 7  92106198.515 7  22493262.867                    22493271.988
 113704573.823 8  88601027.937 7  21637265.289                    21637276.430
 114019242.697 7  88846286.38745  21697118.938                    21697125.426
 115179395.059 7  89750231.97545  21917909.805                    21917918.949
 11  8 29  1 45 30.0000000  0  9G26G10G15G12G05G29G25G02G30
 122873106.679 7  95745371.36444  23381971.578                    23381982.609
 125558648.896 7  97838049.97543  23893004.719                    23893014.738
 127693425.345 6  99501422.462 6  24299252.344                    24299264.125
 113632954.751 7  88545228.947 7  21623634.625                    21623643.070
 107467164.957 8  83740749.741 8  20450299.859                    20450307.855
 118121241.808 7  92042583.107 7  22477727.422                    22477736.293
 113711486.562 8  88606414.483 7  21638580.977                    21638592.430
 114056751.183 7  88875513.76845  21704256.469                    21704263.371
 115188141.528 7  89757047.39945  21919574.273                    21919583.477
 11  8 29  1 46  0.0000000  0  9G26G10G15G12G05G29G25G02G30
 122780029.555 7  95672843.85544  23364260.438                    23364270.953
 125665122.249 6  97921016.15943  23913266.164                    23913276.199
 127598371.337 6  99427354.642 6  24281164.953                    24281176.305
 113699226.412 7  88596869.187 7  21636245.391                    21636254.242
 107500321.743 8  83766586.204 8  20456609.227                    20456617.477
 118039695.407 7  91979040.507 7  22462209.047                    22462218.938
 113718965.510 8  88612242.232 7  21640004.445                    21640015.648
 114094341.754 8  88904805.12745  21711409.867                    21711416.383
 115197465.811 7  89764313.08245  21921348.875                    21921358.070
 11  8 29  1 46 30.0000000  0  9G26G10G15G12G05G29G25G02G30
 122687071.848 7  95600409.35744  23346571.305                    23346581.535
 125771709.569 6  98004071.16443  23933549.523                    23933558.941
 127503230.570 6  99353219.211 6  24263059.711                    24263071.465
 113765895.635 7  88648819.220 7  21648931.984                    21648941.094
 107533967.368 8  83792803.576 8  20463011.953                    20463019.805
 117958244.504 7  91915572.313 7  22446710.508                    22446718.949
 113727009.957 8  88618510.635 7  21641535.102                    21641546.395
 114132014.619 7  88934160.60645  21718578.742                    21718585.121
 115207366.908 7  89772028.20945  21923232.445                    21923241.648
 11  8 29  1 47  0.0000000  0  9G26G10G15G12G05G29G25G02G30
 122594237.207 7  95528070.78444  23328905.258                    23328915.258
 125878408.392 6  98087213.05643  23953853.828                    23953863.660
 127408005.182 6  99279017.819 6  24244938.867                    24244950.949
 113832959.283 7  88701076.586 7  21661694.086                    21661702.934
 107568099.629 8  83819400.144 8  20469506.836                    20469515.211
 117876890.889 7  91852179.931 7  22431228.750                    22431238.070
 113735618.889 8  88625218.897 7  21643173.313                    21643184.559
 114169769.929 7  88963580.32645  21725763.406                    21725769.926
 115217843.607 7  89780191.85945  21925226.008                    21925235.863
 11  8 29  1 47 30.0000000  0  9G26G10G15G12G05G29G25G02G30
 122501529.027 7  95455830.70144  23311263.063                    23311273.238
 125985216.164 6  98170439.89543  23974178.109                    23974187.648
 127312698.169 6  99204752.814 5  24226802.023                    24226813.844
 113900415.014 7  88753639.470 7  21674530.547                    21674539.238
 107602716.754 8  83846374.538 8  20476094.336                    20476102.801
 117795636.550 7  91788864.902 7  22415766.617                    22415775.504
 113744791.545 8  88632366.416 7  21644918.883                    21644930.363
 114207607.458 7  88993064.12745  21732963.617                    21732970.258
 115228894.959 7  89788803.29845  21927329.422                    21927338.785
 11  8 29  1 48  0.0000000  0  9G26G10G15G12G05G29G25G02G30
 122408950.919 7  95383692.05544  23293645.977                    23293656.121
 126092130.329 6  98253749.53843  23994523.586                    23994532.973
 127217312.296 6  99130426.397 5  24208650.773                    24208661.988
 113968259.737 7  88806505.471 7  21687441.125                    21687449.855
 107637817.058 8  83873725.433 8  20482774.063                    20482781.953
 117714483.455 7  91725628.755 7  22400323.656                    22400332.715
 113754527.029 8  88639952.507 7  21646771.438                    21646782.934
 114245527.118 7  89022611.92445  21740179.570                    21740186.082
 115240519.733 7  89797861.55045  21929541.555                    21929550.762
 11  8 29  1 48 30.0000000  0  9G26G10G15G12G05G29G25G02G30
 122316506.556 7  95311657.54743  23276053.898                    23276064.023
 126199147.931 6  98337139.83143  24014887.695                    24014898.965
 127121850.347 6  99056040.643 6  24190485.047                    24190495.895
 114036491.099 7  88859672.737 7  21700424.805                    21700433.551
 107673398.566 7  83901451.282 8  20489544.688                    20489552.988
 117633433.833 7  91662473.252 7  22384900.383                    22384909.363
 113764824.462 8  88647976.472 7  21648730.922                    21648742.066
 114283528.816 7  89052223.64845  21747410.945                    21747417.492
 115252716.778 7  89807365.73445  21931862.336                    21931871.875
 11  8 29  1 49  0.0000000  0  9G26G10G15G12G05G29G25G02G30
 122224199.545 7  95239730.11344  23258488.563                    23258498.883
 126306266.912 6  98420609.05443  24035273.031                    24035282.980
 127026314.656 7  98981597.437 5  24172305.102                    24172315.773
 114105106.657 7  88913139.389 7  21713481.766                    21713490.727
 107709459.511 8  83929550.727 8  20496407.000                    20496415.012
 117552489.571 7  91599399.832 7  22369497.094                    22369506.020
 113775683.025 8  88656437.683 7  21650797.063                    21650808.152
 114321613.015 7  89081899.65245  21754657.789                    21754664.617
 115265485.076 7  89817315.05245  21934291.977                    21934301.848
 11  8 29  1 49 30.0000000  0  9G26G10G15G12G05G29G25G02G30
 122132033.193 6  95167912.27844  23240949.344                    23240959.980
 126413484.201 6  98504154.91343  24055674.820                    24055685.629
 126930707.716 7  98907098.705 5  24154111.633                    24154122.313
 114174103.204 7  88966902.911 7  21726611.617                    21726620.262
 107745997.304 8  83958021.732 8  20503359.953                    20503368.016
 117471652.474 7  91536409.917 7  22354114.383                    22354123.688
 113787101.380 8  88665335.090 7  21652970.313                    21652981.184
 114359779.112 8  89111639.46646  21761920.711                    21761927.262
 115278822.940 7  89827708.18145  21936830.367                    21936839.930
 11  8 29  1 50  0.0000000  0  9G26G10G15G12G05G29G25G02G30
 122040011.380 7  95096207.04544  23223438.578                    23223448.629
 126520797.648 6  98587775.67743  24076096.188                    24076106.547
 126835032.767 7  98832547.001 6  24135905.086                    24135915.301
 114243477.671 7  89020960.902 7  21739813.203                    21739821.762
 107783010.686 8  83986863.328 8  20510403.320                    20510411.539
 117390924.639 7  91473505.145 7  22338752.391                    22338761.203
 113799078.914 8  88674668.242 7  21655249.328                    21655260.512
 114398027.349 7  89141443.29745  21769198.930                    21769205.621
 115292729.433 8  89838544.38545  21939476.594                    21939486.008
 11  8 29  1 50 30.0000000  0  9G26G10G15G12G05G29G25G02G30
 121948137.484 7  95024617.10644  23205956.000                    23205965.875
 126628204.601 6  98671469.30643  24096535.063                    24096545.426
 126739291.993 7  98757943.976 6  24117685.891                    24117697.516
 114313227.789 7  89075311.627 7  21753086.094                    21753095.129
 107820497.253 8  84016073.646 8  20517536.797                    20517544.820
 117310308.062 7  91410687.050 7  22323411.828                    22323420.496
 113811614.405 8  88684436.151 7  21657634.742                    21657646.137
 114436357.583 8  89171311.02145  21776493.344                    21776499.941
 115307203.100 8  89849822.56445  21942230.875                    21942240.664
 11  8 29  1 51  0.0000000  0  9G26G10G15G12G05G29G25G02G30
 121856415.399 7  94953145.46644  23188501.758                    23188511.629
 126735702.635 6  98755233.93843  24116991.508                    24117001.781
 126643488.321 7  98683291.930 6  24099455.477                    24099466.988
 114383350.772 7  89129952.894 7  21766429.945                    21766438.871
 107858455.429 8  84045651.447 8  20524759.984                    20524768.082
 117229804.996 7  91347957.423 7  22308092.367                    22308101.000
 113824707.106 8  88694638.249 7  21660126.289                    21660137.234
 114474769.988 7  89201242.77145  21783802.219                    21783809.148
 115322242.976 8  89861541.95045  21945092.672                    21945102.664
 11  8 29  1 51 30.0000000  0  9G26G10G15G12G05G29G25G02G30
 121764848.272 7  94881794.54544  23171076.406                    23171087.164
 126843289.105 6  98839067.48144  24137464.688                    24137474.797
 126547624.147 7  98608592.761 6  24081212.328                    24081223.953
 114453843.439 7  89184882.213 7  21779844.555                    21779853.547
 107896882.589 8  84075594.697 8  20532072.500                    20532080.289
 117149417.172 7  91285317.576 7  22292795.031                    22292803.648
 113838355.597 8  88705273.432 7  21662723.406                    21662734.746
 114513264.209 7  89231238.27345  21791128.258                    21791134.602
 115337847.373 8  89873701.20045  21948062.195                    21948071.594
 11  8 29  1 52  0.0000000  0  9G26G10G15G12G05G29G25G02G30
 121673440.024 7  94810567.42744  23153682.664                    23153692.305
 126950961.641 6  98922968.09143  24157954.602                    24157963.871
 126451702.520 7  98533848.824 6  24062959.352                    24062970.418
 114524703.558 7  89240097.884 7  21793328.734                    21793337.469
 107935777.166 8  84105902.159 8  20539473.813                    20539481.863
 117069146.668 7  91222769.172 7  22277519.719                    22277528.750
 113852558.954 8  88716340.970 7  21665426.250                    21665438.020
 114551840.692 7  89261297.86045  21798468.867                    21798475.379
 115354015.133 8  89886299.44845  21951139.078                    21951148.539
 11  8 29  1 52 30.0000000  0  9G26G10G15G12G05G29G25G02G30
 121582194.144 7  94739466.83344  23136319.219                    23136328.734
 127058717.551 7  99006933.67543  24178459.656                    24178469.453
 126355726.064 6  98459062.151 6  24044695.008                    24044706.406
 114595928.546 7  89295597.837 7  21806882.242                    21806891.578
 107975137.006 8  84136572.177 8  20546963.891                    20546971.605
 116988995.739 7  91160313.917 7  22262267.469                    22262276.176
 113867316.140 8  88727840.057 7  21668234.313                    21668245.652
 114590499.328 7  89291421.47745  21805825.641                    21805831.957
 115370744.783 8  89899335.53845  21954322.625                    21954332.102
 11  8 29  1 53  0.0000000  0  9G26G10G15G12G05G29G25G02G30
 121491114.508 7  94668495.78944  23118987.273                    23118996.766
 127166554.254 6  99090962.23343  24198979.633                    24198990.172
 126259697.560 6  98384234.951 6  24026421.531                    24026432.621
 114667514.595 7  89351379.156 7  21820504.391                    21820513.645
 108014960.020 7  84167603.098 8  20554542.133                    20554550.113
 116908966.312 7  91097953.360 7  22247038.508                    22247047.844
 113882626.056 8  88739769.844 7  21671147.938                    21671159.367
 114629240.035 7  89321609.04945  21813197.313                    21813203.668
 115388035.118 7  89912808.52545  21957613.023                    21957622.434
 11  8 29  1 53 30.0000000  0  9G26G10G15G12G05G29G25G02G30
 121400204.640 7  94597657.03344  23101687.758                    23101697.398
 127274469.475 6  99175051.99442  24219515.680                    24219524.758
 126163619.841 6  98309369.398 6  24008138.352                    24008149.730
 114739459.556 7  89407440.144 7  21834195.719                    21834204.105
 108055244.314 8  84198993.464 8  20562207.672                    20562215.473
 116829060.632 7  91035689.222 7  22231833.164                    22231841.754
 113898487.634 8  88752129.507 7  21674166.336                    21674177.648
 114668063.271 7  89351860.91845  21820585.242                    21820591.520
 115405884.775 7  89926717.35845  21961009.625                    21961019.059
 11  8 29  1 54  0.0000000  0  9G26G10G15G12G05G29G25G02G30
 121309467.872 7  94526953.14144  23084420.516                    23084430.688
 127382460.908 6  99259201.10542  24240066.164                    24240075.184
 126067495.471 6  98234467.486 6  23989846.148                    23989856.605
 114811760.776 7  89463778.743 7  21847953.773                    21847962.984
 108095987.926 8  84230741.739 8  20569961.109                    20569968.746
 116749280.797 7  90973523.151 7  22216651.430                    22216660.594
 113914899.542 8  88764917.996 7  21677289.359                    21677300.773
 114706968.834 8  89382176.93545  21827988.992                    21827995.398
 115424292.070 8  89941060.69345  21964512.141                    21964521.766
 11  8 29  1 54 30.0000000  0  9G26G10G15G12G05G29G25G02G30
 121218908.106 7  94456387.20144  23067186.883                    23067197.500
 127490525.956 6  99343407.65942  24260629.516                    24260639.715
 125971327.171 6  98159531.342 6  23971545.789                    23971556.465
 114884415.408 7  89520392.726 7  21861779.711                    21861788.660
 108137188.559 8  84262846.134 8  20577801.281                    20577809.047
 116669628.688 7  90911456.618 7  22201493.961                    22201502.813
 113931860.534 8  88778134.328 7  21680516.664                    21680528.094
 114745956.817 7  89412557.17345  21835408.172                    21835414.688
 115443255.529 8  89955837.41045  21968120.609                    21968130.711
 11  8 29  1 55  0.0000000  0  9G26G10G15G12G05G29G25G02G30
 121128528.783 7  94385961.83844  23049988.766                    23049998.422
 127598662.289 5  99427669.66542  24281207.398                    24281217.770
 125875117.468 7  98084562.907 6  23953237.953                    23953248.129
 114957419.952 7  89577279.371 7  21875671.813                    21875680.746
 108178844.008 8  84295304.934 7  20585728.070                    20585735.637
 116590106.368 7  90849491.231 7  22186361.531                    22186369.875
 113949369.358 8  88791777.547 7  21683848.898                    21683859.828
 114785026.745 7  89443001.27345  21842842.820                    21842849.469
 115462773.594 8  89971046.27145  21971835.039                    21971844.438
 11  8 29  1 55 30.0000000  0  9G26G10G15G12G05G29G25G02G30
 121038333.527 7  94315679.94944  23032824.664                    23032834.719
 127706867.210 6  99511985.16142  24301797.859                    24301808.535
 125778869.572 7  98009564.672 6  23934922.648                    23934933.488
 115030771.544 8  89634436.440 7  21889630.055                    21889638.973
 108220952.383 8  84328116.654 8  20593740.906                    20593748.754
 116510716.187 7  90787628.775 7  22171254.078                    22171263.195
 113967424.842 8  88805846.731 7  21687284.320                    21687295.836
 114824179.357 7  89473509.79345  21850293.055                    21850299.617
 115482844.871 7  89986686.22245  21975654.516                    21975663.922
 11  8 29  1 56  0.0000000  0  9G26G10G15G12G05G29G25G02G30
 120948326.343 7  94245544.56744  23015696.445                    23015706.590
 127815137.946 6  99596351.86443  24322401.719                    24322411.867
 125682586.103 7  97934538.778 6  23916600.250                    23916610.457
 115104467.657 8  89691861.967 7  21903653.859                    21903663.324
 108263511.434 8  84361279.547 8  20601839.539                    20601847.570
 116431460.196 7  90725870.906 7  22156171.961                    22156181.031
 113986025.591 8  88820340.798 7  21690824.023                    21690835.438
 114863414.359 8  89504082.51445  21857759.688                    21857766.129
 115503467.668 8  90002755.91845  21979578.672                    21979588.516
 11  8 29  1 56 30.0000000  0  9G26G10G15G12G05G29G25G02G30
 120858510.501 7  94175558.30244  22998605.836                    22998614.969
 127923472.574 6  99680768.41243  24343017.313                    24343027.246
 125586270.003 7  97859487.428 5  23898271.641                    23898281.313
 115178505.753 8  89749553.967 7  21917743.055                    21917751.777
 108306519.198 8  84394792.099 8  20610023.688                    20610031.457
 116352340.287 7  90664219.064 7  22141116.461                    22141125.090
 114005170.588 8  88835258.967 7  21694467.508                    21694478.910
 114902732.064 8  89534719.67845  21865241.359                    21865248.207
 115524640.679 7  90019254.33445  21983607.953                    21983617.555
 11  8 29  1 57  0.0000000  0  9G26G10G15G12G05G29G25G02G30
 120768890.128 7  94105724.29344  22981551.352                    22981560.734
 128031868.729 6  99765232.89643  24363643.961                    24363654.461
 125489924.022 7  97784412.708 6  23879937.719                    23879947.262
 115252882.792 8  89807510.095 7  21931896.883                    21931905.559
 108349973.759 8  84428652.800 8  20618292.680                    20618300.672
 116273358.786 7  90602675.081 7  22126086.477                    22126095.066
 114024858.445 8  88850600.143 7  21698214.109                    21698225.352
 114942132.602 8  89565421.38345  21872738.828                    21872745.508
 115546362.310 7  90036180.27145  21987741.742                    21987750.988
 11  8 29  1 57 30.0000000  0  9G26G10G15G12G05G29G25G02G30
 120679468.370 7  94036045.08244  22964534.883                    22964544.734
 128140323.745 6  99849743.25043  24384282.875                    24384292.953
 125393550.748 7  97709316.821 6  23861598.328                    23861608.250
 115327596.042 8  89865728.196 7  21946113.984                    21946123.422
 108393872.528 8  84462859.628 8  20626646.422                    20626654.355
 116194517.716 7  90541240.527 7  22111083.359                    22111092.137
 114045087.821 8  88866363.257 7  21702063.672                    21702074.840
 114981615.840 7  89596187.53845  21880252.531                    21880259.402
 115568630.866 8  90053532.36745  21991978.969                    21991988.613
 11  8 29  1 58  0.0000000  0  9G26G10G15G12G05G29G25G02G30
 120590249.074 7  93966523.62144  22947557.336                    22947566.426
 128248835.138 6  99934297.52344  24404931.992                    24404942.387
 125297153.170 6  97634201.967 6  23843254.133                    23843264.098
 115402642.100 8  89924205.636 7  21960394.836                    21960403.777
 108438213.578 8  84497411.099 7  20635084.242                    20635092.262
 116115819.355 7  90479917.181 7  22096107.500                    22096116.531
 114065857.187 8  88882547.165 7  21706015.719                    21706026.895
 115021182.032 7  89627018.33545  21887781.797                    21887788.086
 115591444.552 8  90071309.23045  21996320.422                    21996330.105
 11  8 29  1 58 30.0000000  0  9G26G10G15G12G05G29G25G02G30
 120501236.051 7  93897162.89944  22930618.313                    22930628.504
 128357400.974 6 100018894.24043  24425591.266                    24425601.199
 125200734.175 6  97559070.434 6  23824906.297                    23824916.391
 115478019.153 8  89982940.969 7  21974738.633                    21974747.441
 108482995.134 8  84532305.821 8  20643606.078                    20643613.934
 116037266.110 7  90418706.881 7  22081159.555                    22081168.418
 114087165.520 8  88899151.039 7  21710070.703                    21710082.027
 115060831.519 8  89657914.01545  21895326.406                    21895333.270
 115614802.123 7  90089509.90945  22000764.883                    22000774.676
 11  8 29  1 59  0.0000000  0  9G26G10G15G12G05G29G25G02G30
 120412432.901 7  93827965.70044  22913719.953                    22913729.609
 128466018.700 6 100103531.37743  24446260.141                    24446271.141
 125104296.483 6  97483924.345 6  23806554.969                    23806564.805
 115553722.754 8  90041930.780 7  21989144.375                    21989153.504
 108528214.520 8  84567541.707 8  20652211.133                    20652218.539
 115958859.674 7  90357611.015 7  22066238.719                    22066247.461
 114109011.183 8  88916173.627 7  21714227.961                    21714239.082
 115100564.207 8  89688874.54345  21902887.531                    21902893.863
 115638701.644 7  90108132.87845  22005313.266                    22005322.813
 11  8 29  1 59 30.0000000  0  9G26G10G15G12G05G29G25G02G30
 120323843.029 7  93758934.71344  22896861.047                    22896871.695
 128574685.758 6 100188206.94443  24466939.063                    24466949.469
 125007842.691 6  97408765.708 6  23788199.258                    23788210.281
 115629750.642 8  90101173.290 7  22003612.648                    22003621.230
 108573869.303 8  84603116.862 8  20660898.914                    20660906.699
 115880602.145 7  90296631.153 7  22051347.586                    22051355.766
 114131392.485 8  88933613.581 7  21718487.078                    21718498.133
 115140379.763 8  89719899.63945  21910463.945                    21910470.590
 115663141.147 8  90127176.62045  22009963.539                    22009973.410
 11  8 29  2  0  0.0000000  0  9G26G10G15G12G05G29G25G02G30
 120235470.448 7  93690073.02744  22880044.922                    22880054.586
 128683400.042 6 100272919.33043  24487626.188                    24487636.973
 124911375.874 7  97333596.917 6  23769842.844                    23769852.613
 115706100.001 8  90160666.286 7  22018141.367                    22018150.234
 108619957.955 8  84639030.101 8  20669669.133                    20669677.180
 115802496.294 7  90235769.502 7  22036484.203                    22036492.957
 114154308.335 8  88951470.083 7  21722847.672                    21722858.902
 115180279.262 7  89750990.14745  21918057.125                    21918063.613
 115688119.353 8  90146640.12545  22014717.000                    22014726.281
 11  8 29  2  0 30.0000000  0  9G26G10G15G12G05G29G25G02G30
 120147318.658 7  93621383.39645  22863270.234                    22863280.469
 128792159.213 5 100357666.69342  24508322.211                    24508333.344
 124814899.043 6  97258420.362 6  23751483.070                    23751493.902
 115782768.109 8  90220407.664 7  22032730.539                    22032739.328
 108666477.975 8  84675279.466 7  20678521.891                    20678529.563
 115724543.816 8  90175027.361 7  22021650.031                    22021658.863
 114177757.238 8  88969741.953 7  21727309.813                    21727320.840
 115220262.247 8  89782145.70945  21925665.555                    21925672.129
 115713634.306 7  90166521.86745  22019572.648                    22019581.590
 11  8 29  2  1  0.0000000  0  9G26G10G15G12G05G29G25G02G30
 120059391.284 7  93552868.64444  22846537.938                    22846547.840
 128900960.613 6 100442446.93842  24529027.172                    24529037.766
 124718414.682 6  97183237.872 6  23733123.211                    23733133.180
 115859751.776 8  90280394.928 7  22047380.055                    22047388.602
 108713426.866 8  84711863.018 8  20687455.773                    20687463.516
 115646746.889 8  90114406.417 7  22006845.344                    22006854.621
 114201737.430 8  88988427.810 7  21731872.977                    21731884.422
 115260329.127 7  89813366.65645  21933289.898                    21933296.543
 115739684.125 7  90186820.39345  22024529.586                    22024539.027
 11  8 29  2  1 30.0000000  0  9G26G10G15G12G05G29G25G02G30
 119971691.995 7  93484531.61944  22829848.820                    22829859.004
 129009802.159 6 100527258.53742  24549739.109                    24549749.230
 124621925.941 7  97108051.992 6  23714762.000                    23714772.398
 115937048.294 8  90340625.960 7  22062089.375                    22062098.313
 108760802.783 8  84748779.323 7  20696470.625                    20696478.863
 115569107.860 7  90053908.537 7  21992071.570                    21992080.352
 114226247.501 8  89007526.571 7  21736536.953                    21736548.359
 115300479.599 7  89844652.72345  21940930.094                    21940936.938
 115766267.102 7  90207534.36645  22029588.531                    22029598.082
 11  8 29  2  2  0.0000000  0  9G26G10G15G12G05G29G25G02G30
 119884224.801 7  93416375.44244  22813204.922                    22813214.547
 129118681.555 6 100612099.69542  24570458.242                    24570467.766
 124525435.831 7  97032865.042 6  23696400.258                    23696410.875
 116014654.370 7  90401098.215 7  22076857.336                    22076866.320
 108808603.739 8  84786026.813 7  20705567.219                    20705575.445
 115491629.160 7  89993535.563 7  21977327.688                    21977336.555
 114251286.109 8  89027037.170 7  21741301.641                    21741312.906
 115340714.269 7  89876004.40645  21948586.664                    21948593.164
 115793381.594 7  90228662.51645  22034748.070                    22034757.520
 11  8 29  2  2 30.0000000  0  8G26G15G12G05G29G25G02G30
 119796994.244 7  93348403.65144  22796605.109                    22796614.934
 124428948.222 7  96957680.010 6  23678039.703                    23678049.652
 116092568.509 8  90461810.512 7  22091683.742                    22091692.586
 108856828.390 8  84823604.467 8  20714743.984                    20714752.164
 115414313.833 8  89933289.921 7  21962615.406                    21962624.059
 114276852.749 8  89046959.219 7  21746166.734                    21746177.953
 115381034.332 7  89907422.63245  21956259.313                    21956265.949
 115821026.846 7  90250204.24045  22040008.695                    22040018.344
 11  8 29  2  3  0.0000000  0  8G26G15G12G05G29G25G02G30
 119710003.248 7  93280618.53944  22780051.141                    22780061.102
 124332465.131 7  96882498.542 6  23659678.945                    23659688.953
 116170786.719 8  90522759.753 7  22106568.070                    22106576.977
 108905473.494 8  84861509.740 8  20724000.969                    20724008.469
 115337163.740 7  89873172.990 7  21947934.289                    21947942.586
 114302944.918 8  89067290.785 7  21751132.016                    21751143.551
 115421439.102 7  89938906.84945  21963948.047                    21963955.012
 115849200.132 7  90272157.44145  22045369.977                    22045379.637
 11  8 29  2  3 30.0000000  0  8G26G15G12G05G29G25G02G30
 119623254.637 7  93213022.29344  22763543.586                    22763553.328
 124235989.067 7  96807322.504 6  23641319.781                    23641329.645
 116249305.381 7  90583943.115 7  22121509.336                    22121518.918
 108954536.140 8  84899740.374 8  20733336.930                    20733345.219
 115260179.777 8  89813185.551 7  21933284.094                    21933293.281
 114329560.263 8  89088030.008 7  21756196.914                    21756208.078
 115461928.072 7  89970456.67945  21971653.141                    21971659.535
 115877898.686 7  90294519.92545  22050831.375                    22050840.824
 11  8 29  2  4  0.0000000  0  8G26G15G12G05G29G25G02G30
 119536752.668 7  93145618.22144  22747082.688                    22747091.945
 124139522.634 7  96732153.981 6  23622963.219                    23622972.461
 116328121.780 7  90645358.467 7  22136507.586                    22136517.246
 109004014.473 8  84938294.922 7  20742752.492                    20742760.547
 115183364.752 8  89753329.714 7  21918666.945                    21918675.688
 114356697.484 8  89109175.910 7  21761360.641                    21761371.941
 115502501.734 7  90002072.50645  21979373.766                    21979380.922
 115907121.108 7  90317290.64745  22056391.492                    22056401.352
 11  8 29  2  4 30.0000000  0  9G26G21G15G12G05G29G25G02G30
 119450501.104 7  93078409.26544  22730669.398                    22730679.152
 132359258.97116 103137159.24253  25187137.719                    25187148.117
 124043069.142 6  96656995.524 6  23604608.688                    23604617.504
 116407233.328 7  90707003.803 7  22151562.430                    22151571.453
 109053906.509 8  84977171.832 8  20752246.695                    20752254.793
 115106721.066 8  89693607.410 7  21904082.016                    21904090.914
 114384355.212 8  89130727.396 7  21766623.742                    21766635.043
 115543160.343 7  90033754.54245  21987110.930                    21987117.348
 115936865.722 7  90340468.24945  22062051.852                    22062062.031
 11  8 29  2  5  0.0000000  0  9G26G21G15G12G05G29G25G02G30
 119364502.805 7  93011397.68644  22714304.586                    22714314.012
 132303621.256 6 103093805.28543  25176549.844                    25176561.008
 123946630.847 6  96581848.951 6  23586256.070                    23586266.168
 116486636.112 7  90768876.085 7  22166672.461                    22166681.531
 109104208.809 8  85016368.426 8  20761818.766                    20761827.070
 115030250.134 8  89634019.720 7  21889529.938                    21889538.797
 114412530.782 8  89152682.385 7  21771985.414                    21771996.723
 115583903.315 7  90065502.32145  21994863.977                    21994870.777
 115967129.617 7  90364050.50545  22067810.898                    22067820.645
 11  8 29  2  5 30.0000000  0  9G26G21G15G12G05G29G25G02G30
 119278761.827 7  92944586.60244  22697988.352                    22697997.855
 132247983.965 6 103050451.62443  25165963.148                    25165973.586
 123850211.192 6  96506716.856 6  23567908.375                    23567918.414
 116566327.731 7  90830973.431 7  22181837.172                    22181846.477
 109154920.017 8  85055883.653 7  20771469.008                    20771476.820
 114953954.692 8  89574568.758 7  21875011.320                    21875020.137
 114441223.093 8  89175040.037 7  21777445.656                    21777457.242
 115624731.573 7  90097316.54645  22002633.086                    22002639.914
 115997911.346 7  90388036.25145  22073668.250                    22073678.066
 11  8 29  2  6  0.0000000  0  9G26G21G15G12G05G29G25G02G30
 119193281.705 7  92877978.77644  22681721.789                    22681731.984
 132192346.346 6 103007097.72042  25155374.531                    25155386.156
 123753812.951 6  96431601.470 6  23549564.570                    23549575.070
 116646304.794 7  90893293.201 7  22197056.406                    22197065.160
 109206037.383 8  85095715.371 8  20781196.258                    20781204.301
 114877836.889 8  89515256.231 7  21860526.680                    21860535.918
 114470430.124 8  89197798.763 7  21783003.508                    21783014.723
 115665644.951 7  90129197.09845  22010418.930                    22010425.590
 116029208.607 7  90412423.72145  22079623.984                    22079633.930
 11  8 29  2  6 30.0000000  0  9G26G21G15G12G05G29G25G02G30
 119108066.479 7  92811577.34244  22665506.414                    22665515.563
 132136707.985 6 102963743.20643  25144787.734                    25144798.387
 123657439.101 7  96356505.108 6  23531225.266                    23531235.328
 116726564.779 7  90955833.420 7  22212329.516                    22212338.500
 109257558.855 8  85135861.963 8  20791000.398                    20791008.723
 114801899.208 8  89456084.050 7  21846076.594                    21846085.004
 114500150.581 8  89220957.561 7  21788659.023                    21788670.313
 115706644.039 7  90161144.42845  22018220.742                    22018227.883
 116061019.868 7  90437211.71945  22085677.430                    22085687.227
 11  8 29  2  7  0.0000000  0  9G26G21G15G12G05G29G25G02G30
 119023119.786 7  92745385.18744  22649341.180                    22649350.949
 132081068.244 6 102920387.61243  25134200.219                    25134210.305
 123561092.436 7  96281429.912 6  23512890.438                    23512900.875
 116807104.439 7  91018591.564 7  22227655.750                    22227664.250
 109309482.110 8  85176321.641 8  20800880.789                    20800889.191
 114726143.867 8  89397053.949 7  21831660.242                    21831669.598
 114530382.490 8  89244514.884 7  21794411.758                    21794423.148
 115747728.880 7  90193158.58745  22026039.172                    22026045.930
 116093342.988 7  90462398.56545  22091828.563                    22091838.371
 11  8 29  2  7 30.0000000  0  9G26G21G15G12G05G29G25G02G30
 118938445.088 7  92679404.95844  22633228.008                    22633237.594
 132025426.458 6 102877030.42543  25123611.883                    25123621.813
 123464776.166 7  96206378.391 6  23494562.656                    23494572.105
 116887921.023 7  91081565.488 7  22243034.438                    22243043.398
 109361804.672 8  85217092.468 8  20810837.805                    20810846.059
 114650573.034 8  89338167.619 7  21817280.023                    21817288.113
 114561123.960 8  89268469.260 7  21800261.750                    21800273.145
 115788899.665 7  90225239.71345  22033873.508                    22033880.164
 116126175.750 7  90487982.55545  22098076.359                    22098086.012
 11  8 29  2  8  0.0000000  0  9G26G21G15G12G05G29G25G02G30
 118854046.166 7  92613639.63044  22617167.078                    22617176.832
 131969782.250 6 102833671.38843  25113022.813                    25113033.707
 123368493.208 7  96131352.821 6  23476240.117                    23476249.477
 116969011.211 7  91144752.608 7  22258465.445                    22258474.305
 109414524.694 8  85258173.001 8  20820870.078                    20820878.012
 114575189.205 8  89279427.000 7  21802935.039                    21802943.328
 114592373.419 8  89292819.485 7  21806208.656                    21806220.230
 115830156.649 8  90257388.01345  22041724.305                    22041731.191
 116159516.227 7  90513962.15745  22104420.508                    22104430.422
 11  8 29  2  8 30.0000000  0  9G26G21G15G12G05G29G25G02G30
 118769926.754 7  92548092.09444  22601159.813                    22601170.023
 131914134.842 6 102790309.77543  25102433.234                    25102443.809
 123272246.339 7  96056355.378 6  23457925.094                    23457934.961
 117050372.059 7  91208150.639 7  22273947.773                    22273956.977
 109467639.250 8  85299560.970 7  20830977.633                    20830985.492
 114499994.238 8  89220833.559 7  21788625.359                    21788634.367
 114624128.752 8  89317563.877 7  21812251.531                    21812262.871
 115871499.968 7  90289603.58245  22049591.617                    22049598.676
 116193362.220 7  90540335.66545  22110861.625                    22110871.328
 11  8 29  2  9  0.0000000  0  9G26G21G15G12G05G29G25G02G30
 118686090.078 7  92482764.87745  22585206.172                    22585215.754
 131858483.388 6 102746945.04843  25091843.141                    25091853.750
 123176038.575 7  95981388.418 6  23439617.516                    23439626.922
 117132000.337 7  91271757.068 7  22289481.469                    22289490.008
 109521145.826 8  85341254.404 7  20841159.430                    20841167.625
 114424990.436 8  89162389.074 7  21774352.977                    21774361.625
 114656388.013 8  89342700.952 7  21818389.852                    21818401.508
 115912929.902 7  90321886.64845  22057475.852                    22057482.398
 116227711.339 7  90567101.23145  22117398.055                    22117407.625
 11  8 29  2  9 30.0000000  0  9G26G21G15G12G05G29G25G02G30
 118602540.192 7  92417661.14545  22569307.477                    22569316.930
 131802827.501 6 102703576.87243  25081252.578                    25081262.410
 123079872.844 7  95906454.177 6  23421317.180                    23421326.902
 117213893.032 7  91335569.531 7  22305065.180                    22305074.000
 109575042.469 8  85383251.777 7  20851415.727                    20851423.391
 114350180.262 8  89104095.449 7  21760116.695                    21760125.363
 114689149.470 8  89368229.350 7  21824624.297                    21824635.727
 115954446.641 7  90354237.35245  22065376.109                    22065382.785
 116262561.659 7  90594257.32145  22124029.930                    22124039.563
 11  8 29  2 10  0.0000000  0  9G26G21G15G12G05G29G25G02G30
 118519281.266 7  92352784.12045  22553463.117                    22553473.262
 131747167.152 6 102660205.22443  25070660.500                    25070670.668
 122983752.327 7  95831555.159 6  23403026.461                    23403035.977
 117296048.522 7  91399586.773 7  22320698.617                    22320707.750
 109629327.440 8  85425551.752 7  20861745.813                    20861753.887
 114275566.510 8  89045954.893 7  21745918.242                    21745926.965
 114722411.827 8  89394148.054 7  21830954.078                    21830965.438
 115996051.001 7  90386656.33245  22073292.969                    22073299.746
 116297911.554 7  90621802.69545  22130757.398                    22130766.371
 11  8 29  2 10 30.0000000  0  9G26G21G15G12G05G29G25G02G30
 118436316.640 7  92288136.41045  22537675.859                    22537685.336
 131691501.275 6 102616829.26043  25060067.297                    25060078.102
 122887679.967 7  95756693.661 6  23384744.078                    23384753.609
 117378462.295 7  91463805.270 7  22336381.359                    22336390.473
 109683997.836 8  85468152.057 7  20872148.984                    20872157.402
 114201151.198 8  88987968.958 7  21731758.008                    21731766.246
 114756172.757 8  89420455.252 7  21837378.578                    21837389.504
 116037742.680 7  90419143.34645  22081227.070                    22081233.555
 116333758.548 7  90649735.42645  22137578.484                    22137588.082
 11  8 29  2 11  0.0000000  0  9G26G21G15G12G05G29G25G02G30
 118353649.383 7  92223720.42545  22521944.953                    22521954.617
 131635828.898 6 102573448.22543  25049473.523                    25049484.137
 122791658.613 7  95681871.910 6  23366471.438                    23366481.547
 117461131.197 7  91528222.576 7  22352112.727                    22352122.270
 109739051.126 8  85511050.728 7  20882625.617                    20882633.516
 114126936.605 8  88930139.419 7  21717635.227                    21717643.816
 114790429.865 7  89447149.077 7  21843897.383                    21843908.805
 116079522.136 7  90451698.75245  22089177.195                    22089184.301
 116370099.956 7  90678053.39845  22144493.664                    22144503.180
 11  8 29  2 11 30.0000000  0  9G26G21G15G12G05G29G25G02G30
 118271283.940 7  92159539.61645  22506271.406                    22506280.953
 131580149.883 6 102530062.05942  25038877.195                    25038887.754
 122695691.361 7  95607092.338 6  23348209.547                    23348219.086
 117544052.918 7  91592836.878 7  22367892.414                    22367901.129
 109794485.134 8  85554246.051 7  20893174.219                    20893182.117
 114052924.721 8  88872467.843 7  21703550.797                    21703559.520
 114825181.725 7  89474228.439 7  21850510.469                    21850522.117
 116121389.720 8  90484322.84845  22097144.320                    22097151.160
 116406934.034 7  90706755.26745  22151502.797                    22151512.824
 11  8 29  2 12  0.0000000  0  9G26G21G15G12G05G29G25G02G30
 118189223.517 7  92095596.49545  22490655.695                    22490665.387
 131524463.683 6 102486670.25443  25028281.359                    25028291.121
 122599781.227 7  95532357.257 6  23329958.695                    23329967.660
 117627224.094 7  91657645.574 7  22383719.148                    22383728.383
 109850297.356 8  85597736.095 7  20903794.977                    20903802.953
 113979118.036 8  88814956.152 7  21689506.164                    21689514.332
 114860426.074 8  89501691.540 7  21857217.438                    21857228.535
 116163345.481 8  90517015.63745  22105128.000                    22105134.961
 116444258.332 7  90735839.13445  22158606.000                    22158615.637
 11  8 29  2 12 30.0000000  0  9G26G21G15G12G05G29G25G02G30
 118107472.172 7  92031894.21045  22475098.727                    22475108.625
 131468769.832 6 102443272.55343  25017683.367                    25017693.129
 122503931.561 7  95457669.291 6  23311718.320                    23311728.543
 117710642.072 7  91722646.570 7  22399593.125                    22399602.234
 109906486.005 8  85641519.446 7  20914487.117                    20914495.402
 113905519.021 8  88757606.301 7  21675500.555                    21675508.816
 114896161.361 8  89529537.201 7  21864017.352                    21864029.004
 116205389.913 8  90549777.52745  22113128.914                    22113135.613
 116482071.001 7  90765303.54445  22165800.648                    22165811.012
 11  8 29  2 13  0.0000000  0  9G26G21G15G12G05G29G25G02G30
 118026033.574 7  91968435.62545  22459601.422                    22459610.785
 131413067.613 6 102399868.30743  25007083.469                    25007093.324
 122408145.027 7  95383030.511 6  23293491.172                    23293501.516
 117794303.898 7  91787837.588 7  22415513.117                    22415522.746
 109963048.326 8  85685593.981 7  20925250.406                    20925258.758
 113832130.142 8  88700420.171 7  21661535.078                    21661543.523
 114932385.371 7  89557763.691 7  21870910.500                    21870922.047
 116247523.248 7  90582608.69045  22121146.844                    22121153.340
 116520369.654 7  90795146.64145  22173088.961                    22173098.898
 11  8 29  2 13 30.0000000  0  9G26G21G15G12G05G29G25G02G30
 117944910.674 7  91905223.02545  22444165.008                    22444174.270
 131357356.120 6 102356456.86942  24996481.336                    24996491.832
 122312424.431 7  95308443.104 6  23275275.984                    23275285.613
 117878205.354 7  91853215.336 7  22431479.438                    22431488.637
 110019981.373 8  85729957.391 7  20936084.703                    20936092.922
 113758953.138 8  88643399.154 7  21647609.891                    21647618.230
 114969095.673 8  89586369.096 7  21877896.266                    21877907.961
 116289745.479 7  90615509.11845  22129181.563                    22129188.117
 116559151.476 7  90825366.24145  22180469.148                    22180478.996
 11  8 29  2 14  0.0000000  0  9G26G21G15G12G05G29G25G02G30
 117864107.393 7  91842259.48545  22428787.867                    22428797.535
 131301634.977 6 102313037.82942  24985878.109                    24985887.863
 122216772.624 7  95233909.304 6  23257074.281                    23257083.645
 117962344.130 7  91918777.984 7  22447490.492                    22447499.492
 110077282.768 8  85774607.826 7  20946989.031                    20946996.844
 113685990.585 8  88586545.238 7  21633725.531                    21633734.418
 115006290.261 8  89615351.872 7  21884974.445                    21884985.820
 116332056.936 7  90648479.08045  22137232.930                    22137239.648
 116598414.223 7  90855960.56245  22187940.594                    22187950.473
 11  8 29  2 14 30.0000000  0  9G26G21G15G12G05G29G25G02G30
 117783627.614 7  91779548.01445  22413473.180                    22413482.598
 131245903.557 6 102269610.88242  24975272.508                    24975282.313
 122121193.073 7  95159431.802 6  23238886.250                    23238895.500
 118046717.059 7  91984523.104 7  22463546.266                    22463555.484
 110134950.716 8  85819543.873 7  20957962.703                    20957970.355
 113613244.903 8  88529860.325 7  21619882.477                    21619890.918
 115043967.274 8  89644710.569 7  21892143.820                    21892155.258
 116374458.284 7  90681519.07245  22145301.781                    22145308.609
 116638155.913 7  90886928.09045  22195503.422                    22195513.059
 11  8 29  2 15  0.0000000  0  9G26G21G15G12G05G29G25G02G30
 117703474.768 7  91717091.30744  22398220.852                    22398229.566
 131190161.491 6 102226175.60842  24964664.672                    24964674.754
 122025688.498 7  95085012.728 6  23220712.102                    23220721.609
 118131321.313 7  92050448.493 7  22479646.070                    22479654.969
 110192982.511 8  85864763.449 7  20969005.891                    20969013.871
 113540718.463 8  88473346.237 7  21606081.297                    21606089.891
 115082124.676 8  89674443.587 7  21899405.352                    21899416.348
 116416949.723 7  90714629.28345  22153387.523                    22153394.105
 116678374.157 7  90918266.97045  22203156.164                    22203166.027
 11  8 29  2 15 30.0000000  0  9G26G21G15G12G05G29G25G02G30
 117623652.783 7  91654892.39444  22383030.648                    22383040.297
 131134408.259 6 102182731.60842  24954054.703                    24954065.852
 121930262.142 7  95010654.610 6  23202553.219                    23202562.703
 118216153.727 7  92116551.654 7  22495788.813                    22495798.203
 110251375.932 8  85910264.810 7  20980117.703                    20980125.902
 113468413.712 8  88417004.904 7  21592322.172                    21592330.465
 115120760.343 8  89704549.280 7  21906757.578                    21906768.801
 116459531.491 7  90747809.86245  22161490.969                    22161497.480
 116719066.557 7  90949975.31545  22210900.070                    22210909.488
 11  8 29  2 16  0.0000000  0  9G26G21G15G12G05G29G25G02G30
 117544165.172 7  91592954.03945  22367904.906                    22367914.078
 131078643.003 6 102139278.30042  24943443.141                    24943453.668
 121834917.180 7  94936359.917 6  23184409.594                    23184419.129
 118301211.247 7  92182830.214 7  22511974.398                    22511983.852
 110310128.462 8  85956046.002 7  20991298.086                    20991305.836
 113396333.004 8  88360838.137 7  21578605.133                    21578614.184
 115159872.110 8  89735025.964 7  21914200.133                    21914211.625
 116502203.779 7  90781060.98445  22169610.953                    22169617.855
 116760230.757 7  90982051.30045  22218733.156                    22218742.770
 11  8 29  2 16 30.0000000  0  9G26G21G15G12G05G29G25G02G30
 117465015.423 7  91531278.97045  22352843.195                    22352852.363
 131022865.565 6 102095815.44842  24932829.688                    24932838.871
 121739656.349 7  94862130.768 6  23166281.680                    23166291.570
 118386490.685 7  92249281.702 7  22528203.516                    22528212.012
 110369237.607 8  86002105.066 7  21002545.625                    21002554.129
 113324478.498 8  88304847.659 7  21564932.086                    21564940.680
 115199457.672 8  89765871.833 7  21921733.289                    21921744.367
 116544966.676 8  90814382.71945  22177748.555                    22177755.223
 116801864.163 7  91014492.88545  22226656.242                    22226665.281
 11  8 29  2 17  0.0000000  0  9G26G21G15G12G05G29G25G02G30
 117386207.112 7  91469869.94945  22337846.211                    22337855.035
 130967074.811 6 102052342.28242  24922212.883                    24922222.902
 121644482.809 7  94787969.634 6  23148171.117                    23148179.836
 118471988.986 7  92315903.738 7  22544472.641                    22544481.754
 110428700.967 8  86048440.149 7  21013861.406                    21013869.648
 113252852.599 8  88249035.296 7  21551302.156                    21551310.785
 115239515.005 8  89797085.325 7  21929355.820                    21929367.398
 116587821.094 7  90847775.75345  22185903.391                    22185910.031
 116843964.511 8  91047298.32945  22234667.727                    22234677.219
 11  8 29  2 17 30.0000000  0  9G26G21G15G12G05G29G25G02G30
 117307744.248 7  91408730.10745  22322915.023                    22322924.582
 130911270.478 6 102008858.47442  24911593.344                    24911603.113
 121549399.689 7  94713878.951 6  23130076.703                    23130086.387
 118557703.300 7  92382694.081 7  22560784.055                    22560793.121
 110488516.285 8  86095049.481 7  21025243.859                    21025252.063
 113181457.815 8  88193403.036 7  21537715.922                    21537724.652
 115280041.883 7  89828664.693 7  21937067.844                    21937079.539
 116630767.196 8  90881240.24545  22194075.914                    22194082.578
 116886529.269 7  91080465.64945  22242767.625                    22242777.008
 11  8 29  2 18  0.0000000  0  9G26G21G15G12G05G29G25G02G30
 117229630.215 7  91347862.07745  22308050.500                    22308060.020
 130855452.097 6 101965363.73743  24900970.328                    24900981.121
 121454410.100 7  94639861.181 6  23112000.930                    23112010.871
 118643630.308 7  92449650.166 7  22577135.117                    22577144.746
 110548681.142 8  86141931.178 7  21036693.258                    21036700.859
 113110296.210 8  88137952.463 7  21524174.625                    21524183.043
 115321036.176 8  89860608.279 7  21944868.703                    21944879.930
 116673805.136 7  90914776.29145  22202265.242                    22202272.156
 116929556.199 7  91113993.09745  22250955.328                    22250964.398
 11  8 29  2 18 30.0000000  0  9G26G21G15G12G05G29G25G02G30
 117151868.410 7  91287268.51345  22293253.336                    22293262.629
 130799618.933 6 101921857.52643  24890346.656                    24890356.801
 121359516.870 7  94565918.465 6  23093943.070                    23093952.664
 118729767.013 7  92516769.638 7  22593526.648                    22593535.434
 110609192.607 8  86189082.978 7  21048207.852                    21048216.063
 113039370.185 8  88082685.461 7  21510677.547                    21510686.148
 115362495.496 8  89892914.230 7  21952758.031                    21952769.664
 116716935.303 7  90948384.19145  22210472.938                    22210479.852
 116973042.511 7  91147878.51745  22259230.195                    22259239.285
 11  8 29  2 19  0.0000000  0  9G26G21G15G12G05G29G25G02G30
 117074462.407 7  91226952.20945  22278522.836                    22278532.117
 130743770.293 6 101878339.18443  24879718.898                    24879728.949
 121264722.992 7  94492053.167 6  23075904.586                    23075913.918
 118816109.785 7  92584049.702 7  22609957.102                    22609966.117
 110670048.406 8  86236503.075 7  21059788.492                    21059796.137
 112968682.046 8  88027603.824 7  21497225.664                    21497234.477
 115404417.427 8  89925580.653 7  21960735.352                    21960746.875
 116760157.799 8  90982064.05345  22218698.195                    22218704.344
 117016985.675 7  91182119.91345  22267592.602                    22267601.766
 11  8 29  2 19 30.0000000  0  9G26G21G15G12G05G29G25G02G30
 116997416.035 7  91166916.13145  22263862.125                    22263871.059
 130687905.894 6 101834808.64643  24869088.445                    24869098.441
 121170031.780 7  94418267.898 6  23057885.063                    23057894.773
 118902656.667 7  92651488.811 7  22626426.039                    22626435.008
 110731246.181 8  86284189.650 7  21071433.828                    21071441.781
 112898234.541 8  87972709.703 7  21483820.453                    21483829.199
 115446800.030 8  89958606.038 7  21968800.766                    21968812.078
 116803473.145 7  91015816.26745  22226940.250                    22226947.254
 117061383.435 7  91216715.55845  22276041.070                    22276050.074
 11  8 29  2 20  0.0000000  0  9G26G21G15G12G05G29G25G02G30
 116920732.674 7  91107162.90545  22249269.117                    22249278.332
 130632025.100 6 101791265.30243  24858454.719                    24858464.203
 121075446.014 7  94344564.771 6  23039886.508                    23039896.070
 118989403.622 7  92719083.823 7  22642933.477                    22642942.918
 110792783.372 8  86332140.701 7  21083144.156                    21083151.871
 112828029.605 8  87918004.595 7  21470461.008                    21470469.266
 115489640.759 8  89991988.409 7  21976953.070                    21976964.418
 116846881.508 7  91049640.97145  22235200.563                    22235207.684
 117106232.937 7  91251663.20245  22284575.516                    22284585.352
 11  8 29  2 20 30.0000000  0  9G26G21G15G12G05G29G25G02G30
 116844416.047 7  91047695.46645  22234746.688                    22234755.891
 130576127.156 6 101747708.60643  24847817.727                    24847826.918
 120980968.817 7  94270946.252 6  23021908.031                    23021916.898
 119076347.971 7  92786832.625 7  22659479.109                    22659488.301
 110854657.738 8  86380354.487 7  21094918.320                    21094926.516
 112758069.693 8  87863490.412 7  21457148.086                    21457156.320
 115532937.406 8  90025726.059 7  21985192.547                    21985203.410
 116890383.571 8  91083538.67645  22243479.000                    22243485.570
 117151531.920 7  91286961.08045  22293195.344                    22293204.805
 11  8 29  2 21  0.0000000  0  9G26G21G15G12G05G29G25G02G30
 116768470.126 7  90988516.87045  22220294.523                    22220303.625
 130520212.029 6 101704138.48943  24837176.305                    24837186.176
 120886603.614 7  94197414.979 6  23003950.898                    23003960.047
 119163486.779 7  92854732.994 7  22676060.656                    22676069.965
 110916867.259 8  86428829.435 7  21106756.391                    21106764.344
 112688357.922 8  87809169.597 7  21443882.242                    21443890.684
 115576688.130 8  90059817.523 7  21993518.063                    21993529.270
 116933979.792 7  91117509.73445  22251774.820                    22251781.668
 117197278.158 7  91322607.47045  22301900.461                    22301910.219
 11  8 29  2 21 30.0000000  0  9G26G21G15G12G05G29G25G02G30
 116692897.922 7  90929629.49645  22205913.688                    22205922.574
 130464278.801 6 101660554.35743  24826532.930                    24826542.500
 120792353.410 7  94123973.303 6  22986015.047                    22986024.598
 119250816.999 7  92922782.497 7  22692679.273                    22692688.340
 110979408.963 8  86477563.229 7  21118657.875                    21118665.949
 112618896.155 8  87755043.576 7  21430663.930                    21430672.246
 115620890.199 8  90094260.685 7  22001929.070                    22001940.469
 116977670.511 7  91151554.44045  22260089.211                    22260095.871
 117243468.738 7  91358600.09345  22310690.586                    22310700.363
 11  8 29  2 22  0.0000000  0  9G26G21G15G12G05G29G25G02G30
 116617703.029 7  90871036.12545  22191604.250                    22191613.473
 130408326.876 6 101616955.56343  24815886.250                    24815895.125
 120698220.940 7  94050623.373 6  22968102.781                    22968111.824
 119338335.050 7  92990978.376 7  22709333.508                    22709342.313
 111042280.468 8  86526554.011 7  21130622.164                    21130629.762
 112549686.355 8  87701113.906 7  21417493.883                    21417502.512
 115665541.156 8  90129053.653 7  22010425.945                    22010436.863
 117021455.871 7  91185672.89445  22268421.531                    22268427.902
 117290101.018 7  91394936.91145  22319564.414                    22319574.250
 11  8 29  2 22 30.0000000  0  9G26G21G15G12G05G29G25G02G30
 116542889.198 7  90812739.68345  22177367.953                    22177376.820
 130352355.771 7 101573341.84843  24805234.289                    24805243.641
 120604209.329 7  93977367.625 6  22950212.648                    22950222.465
 119426038.064 7  93059318.387 7  22726022.375                    22726031.777
 111105479.152 8  86575799.745 7  21142648.141                    21142656.098
 112480731.231 8  87647382.674 7  21404371.852                    21404380.055
 115710638.748 7  90164194.631 7  22019007.688                    22019019.082
 117065336.141 7  91219865.31045  22276771.273                    22276777.828
 117337172.444 7  91431615.94545  22328522.125                    22328531.164
 11  8 29  2 23  0.0000000  0 10G26G21G15G12G05G29G25G02G30G18
 116468459.905 7  90754742.87645  22163204.445                    22163213.719
 130296365.147 6 101529712.93443  24794580.484                    24794589.031
 120510321.876 7  93904208.611 6  22932346.266                    22932355.824
 119513923.392 7  93127800.456 7  22742746.633                    22742755.680
 111169002.828 8  86625298.705 7  21154736.656                    21154744.305
 112412033.611 8  87593852.088 7  21391298.977                    21391307.547
 115756180.676 8  90199681.856 7  22027673.867                    22027685.488
 117109311.968 7  91254132.18345  22285139.531                    22285146.602
 117384680.567 7  91468635.25045  22337562.633                    22337572.125
 129760344.58116 101112031.48053  24692581.703                    24692592.172
 11  8 29  2 23 30.0000000  0 10G26G21G15G12G05G29G25G02G30G18
 116394418.765 7  90697048.52445  22149114.469                    22149123.535
 130240354.349 6 101486068.28543  24783920.648                    24783930.988
 120416561.597 7  93831148.692 6  22914505.117                    22914514.074
 119601987.397 7  93196421.753 6  22759504.539                    22759513.566
 111232849.012 8  86675048.987 7  21166885.828                    21166893.695
 112343595.156 8  87540523.452 7  21378275.578                    21378283.914
 115802164.359 8  90235513.291 7  22036424.023                    22036435.988
 117153383.444 7  91288473.58645  22293525.664                    22293532.707
 117432622.383 7  91505992.49245  22346685.406                    22346695.309
 129671348.294 6 101042683.91043  24675645.547                    24675656.344
 11  8 29  2 24  0.0000000  0 10G26G21G15G12G05G29G25G02G30G18
 116320769.093 7  90639659.22345  22135100.000                    22135108.852
 130184322.643 6 101442407.33443  24773259.125                    24773268.414
 120322931.697 7  93758190.397 7  22896687.469                    22896696.668
 119690227.104 7  93265179.957 6  22776296.422                    22776305.238
 111297014.792 8  86725048.289 7  21179096.297                    21179104.148
 112275418.527 8  87487398.827 7  21365302.234                    21365310.703
 115848587.376 8  90271687.064 7  22045258.195                    22045269.734
 117197550.906 7  91322889.78445  22301930.672                    22301937.688
 117480995.465 7  91543685.79545  22355890.641                    22355900.258
 129582518.196 6 100973465.84543  24658741.859                    24658753.340
 11  8 29  2 24 30.0000000  0 10G26G21G15G12G05G29G25G02G30G18
 116247514.348 7  90582577.63645  22121159.477                    22121168.656
 130128269.673 6 101398729.80243  24762592.016                    24762602.262
 120229434.957 7  93685335.831 7  22878895.203                    22878904.672
 119778639.368 7  93334072.627 7  22793120.242                    22793129.621
 111361497.894 8  86775294.851 7  21191367.109                    21191374.980
 112207506.080 8  87434480.073 7  21352379.031                    21352387.141
 115895447.266 8  90308201.282 7  22054175.469                    22054187.254
 117241814.797 7  91357381.12745  22310354.586                    22310360.559
 117529797.005 7  91581712.95845  22365177.336                    22365187.012
 129493855.700 6 100904378.36143  24641870.016                    24641880.711
 11  8 29  2 25  0.0000000  0 10G26G21G15G12G05G29G25G02G30G18
 116174657.812 7  90525806.36145  22107295.547                    22107304.535
 130072194.621 6 101355035.05943  24751921.594                    24751931.004
 120136074.296 7  93612587.335 6  22861129.094                    22861138.551
 119867220.803 7  93403097.065 7  22809976.844                    22809986.168
 111426295.200 8  86825786.256 7  21203697.516                    21203705.004
 112139859.791 8  87381768.718 7  21339506.203                    21339514.457
 115942741.332 8  90345053.796 7  22063175.016                    22063186.988
 117286175.468 7  91391947.87745  22318796.117                    22318802.801
 117579024.069 7  91620071.68945  22374544.852                    22374554.656
 129405361.568 6 100835422.03243  24625030.000                    24625040.277
 11  8 29  2 25 30.0000000  0 10G26G21G15G12G05G29G25G02G30G18
 116102203.843 7  90469348.77345  22093507.609                    22093516.848
 130016097.714 6 101311323.32543  24741246.828                    24741255.805
 120042853.744 7  93539947.995 6  22843390.023                    22843399.352
 119955969.204 7  93472251.655 7  22826864.938                    22826874.391
 111491405.970 8  86876521.926 7  21216087.492                    21216095.348
 112072483.261 8  87329267.541 7  21326684.617                    21326693.297
 115990468.016 8  90382243.428 7  22072257.328                    22072268.719
 117330633.822 7  91426590.75045  22327256.102                    22327262.484
 117628674.874 7  91658760.63545  22383993.078                    22384002.680
 129317037.804 6 100766598.43743  24608222.875                    24608233.371
 11  8 29  2 26  0.0000000  0 10G26G21G15G12G05G29G25G02G30G18
 116030155.650 7  90413207.37445  22079797.422                    22079806.488
 129959977.943 6 101267593.74143  24730567.008                    24730576.211
 119949775.878 7  93467419.856 7  22825677.555                    22825687.516
 120044881.256 7  93541533.752 7  22843784.547                    22843793.664
 111556827.071 8  86927499.405 7  21228536.891                    21228544.688
 112005377.903 8  87276977.679 7  21313915.219                    21313923.355
 116038624.408 8  90419767.880 7  22081421.586                    22081433.195
 117375189.998 7  91461309.84645  22335734.813                    22335741.617
 117678746.283 7  91697777.30445  22393521.305                    22393531.281
 129228885.430 6 100697908.39643  24591446.734                    24591457.887
 11  8 29  2 26 30.0000000  0 10G26G21G15G12G05G29G25G02G30G18
 115958516.494 7  90357384.69245  22066164.781                    22066174.152
 129903834.791 6 101223845.91843  24719883.195                    24719892.785
 119856843.947 7  93395005.429 6  22807993.406                    22808002.484
 120133953.729 7  93610940.838 7  22860734.438                    22860743.957
 111622555.523 8  86978716.381 7  21241044.586                    21241052.555
 111938546.299 8  87224901.121 7  21301197.438                    21301205.809
 116087207.864 7  90457625.104 7  22090666.117                    22090678.031
 117419844.182 7  91496105.30345  22344231.641                    22344238.629
 117729235.504 7  91737119.55345  22403128.813                    22403138.625
 129140905.705 6 100629352.89842  24574704.742                    24574715.832
 11  8 29  2 27  0.0000000  0 10G26G21G15G12G05G29G25G02G30G18
 115887289.859 7  90301883.46745  22052610.836                    22052620.297
 129847667.953 6 101180079.65743  24709194.430                    24709204.121
 119764060.775 7  93322706.935 7  22790337.156                    22790346.672
 120223183.377 7  93680470.408 7  22877714.414                    22877723.234
 111688589.178 8  87030171.169 7  21253610.586                    21253618.477
 111871991.075 8  87173039.930 7  21288532.164                    21288540.508
 116136215.891 8  90495813.179 7  22099992.133                    22100003.953
 117464596.809 7  91530977.47745  22352748.281                    22352754.738
 117780139.820 7  91776785.24245  22412816.016                    22412825.797
 129053100.061 6 100560933.01242  24557996.227                    24558006.895
 11  8 29  2 27 30.0000000  0 10G26G21G15G12G05G29G25G02G30G18
 115816479.098 7  90246706.30545  22039136.742                    22039145.082
 129791476.600 6 101136294.27343  24698502.063                    24698511.316
 119671429.379 7  93250526.676 6  22772710.375                    22772719.289
 120312567.202 7  93750120.129 7  22894723.406                    22894732.992
 111754925.491 8  87081861.798 7  21266233.766                    21266241.680
 111805714.331 8  87121395.748 7  21275920.422                    21275928.762
 116185645.961 8  90534330.086 7  22109398.563                    22109409.859
 117509448.479 7  91565926.82345  22361283.609                    22361289.637
 117831456.344 7  91816772.14045  22422581.188                    22422590.711
 128965469.457 6 100492649.57542  24541320.953                    24541331.914
 11  8 29  2 28  0.0000000  0 10G26G21G15G12G05G29G25G02G30G18
 115746088.105 7  90191856.22445  22025741.531                    22025749.680
 129735260.566 6 101092489.64343  24687804.234                    24687813.926
 119578953.227 7  93178467.426 6  22755112.500                    22755121.512
 120402102.377 7  93819887.775 7  22911761.977                    22911770.707
 111821562.125 8  87133786.450 7  21278914.289                    21278922.207
 111739718.837 8  87069970.693 7  21263361.852                    21263370.602
 116235495.656 8  90573174.008 7  22118884.602                    22118895.813
 117554399.646 7  91600953.70345  22369837.102                    22369843.848
 117883182.591 7  91857078.30645  22432424.586                    22432433.887
 128878015.020 6 100424503.35142  24524677.930                    24524689.184
 11  8 29  2 28 30.0000000  0 10G26G21G15G12G05G29G25G02G30G18
 115676119.957 7  90137335.65145  22012427.070                    22012435.773
 129679019.078 6 101048665.18643  24677101.664                    24677111.012
 119486635.242 7  93106531.411 6  22737545.203                    22737553.809
 120491785.392 7  93889770.611 7  22928828.102                    22928836.836
 111888496.128 8  87185942.814 7  21291651.477                    21291659.363
 111674006.628 8  87018766.406 7  21250856.969                    21250865.344
 116285762.274 8  90612342.778 7  22128450.320                    22128461.449
 117599450.434 7  91636058.20245  22378410.133                    22378416.637
 117935315.547 7  91897701.38645  22442344.977                    22442354.543
 128790738.091 6 100356495.54042  24508069.906                    24508080.793
 11  8 29  2 29  0.0000000  0 10G26G21G15G12G05G29G25G02G30G18
 115606578.333 7  90083147.42845  21999193.656                    21999201.785
 129622751.811 6 101004820.64943  24666394.430                    24666403.809
 119394478.683 7  93034721.184 6  22720008.367                    22720016.688
 120581613.625 7  93959766.644 7  22945921.578                    22945930.242
 111955725.783 8  87238329.560 7  21304444.891                    21304452.629
 111608580.476 8  86967785.011 7  21238406.805                    21238415.258
 116336443.422 8  90651834.551 7  22138094.477                    22138105.961
 117644601.460 7  91671240.81245  22387002.094                    22387008.301
 117987852.616 7  91938639.33145  22452342.484                    22452351.934
 128703640.254 6 100288627.29242  24491495.531                    24491506.984
 11  8 29  2 29 30.0000000  0 10G26G21G15G12G05G29G25G02G30G18
 115537466.317 7  90029293.97345  21986041.586                    21986050.938
 129566458.217 6 100960955.57043  24655682.008                    24655691.633
 119302486.377 7  92963038.947 6  22702502.391                    22702511.125
 120671583.416 7  94029872.928 6  22963042.648                    22963051.496
 112023247.802 8  87290944.114 7  21317293.930                    21317301.688
 111543442.272 8  86917028.001 7  21226011.602                    21226019.688
 116387536.268 8  90691647.137 7  22147817.281                    22147828.766
 117689852.925 7  91706501.68545  22395613.578                    22395619.555
 118040790.758 7  91979889.82645  22462416.313                    22462425.559
 128616722.240 6 100220899.14342  24474955.422                    24474966.527
 11  8 29  2 30  0.0000000  0 10G26G21G15G12G05G29G25G02G30G18
 115468787.845 7  89975778.33945  21972972.891                    21972981.801
 129510138.056 6 100917069.78943  24644964.398                    24644974.324
 119210661.966 7  92891487.549 6  22685028.758                    22685037.957
 120761692.922 7  94100088.122 6  22980189.133                    22980198.234
 112091060.634 8  87343785.280 7  21330197.953                    21330206.086
 111478595.505 8  86866498.071 7  21213671.617                    21213679.871
 116439038.786 8  90731778.946 7  22157617.578                    22157629.059
 117735205.665 7  91741841.47745  22404243.914                    22404250.164
 118094127.760 7  92021451.12145  22472565.688                    22472575.742
 128529985.879 6 100153312.57243  24458450.078                    24458460.742
 11  8 29  2 30 30.0000000  0 10G26G21G15G12G05G29G25G02G30G18
 115400545.763 7  89922602.74045  21959986.594                    21959995.648
 129453790.517 6 100873162.71243  24634242.414                    24634250.719
 119119008.091 7  92820069.020 7  22667587.531                    22667596.336
 120851937.889 7  94170408.837 6  22997362.156                    22997371.602
 112159161.155 8  87396850.624 7  21343157.016                    21343164.949
 111414041.236 8  86816196.069 7  21201387.344                    21201395.332
 116490947.752 7  90772227.473 7  22167495.484                    22167507.137
 117780659.680 7  91777260.19045  22412893.117                    22412899.488
 118147860.143 7  92063320.49945  22482790.719                    22482800.691
 128443431.523 6 100085867.79043  24441979.805                    24441989.973
 11  8 29  2 31  0.0000000  0 10G26G21G15G12G05G29G25G02G30G18
 115332743.628 7  89869769.95745  21947084.641                    21947092.980
 129397415.043 6 100829233.83443  24623513.867                    24623523.488
 119027527.942 7  92748785.886 7  22650179.477                    22650188.270
 120942315.280 7  94240832.751 6  23014560.516                    23014570.070
 112227546.922 8  87450138.235 7  21356170.945                    21356178.777
 111349782.173 8  86766124.102 7  21189159.477                    21189167.371
 116543260.678 8  90812990.762 7  22177450.875                    22177461.945
 117826215.480 7  91812758.19945  22421562.211                    22421569.027
 118201985.236 7  92105495.88145  22493090.281                    22493100.313
 128357060.817 6 100018566.13043  24425543.266                    24425554.109
 11  8 29  2 31 30.0000000  0 10G26G21G15G12G05G29G25G02G30G18
 115265384.863 7  89817282.65345  21934266.164                    21934275.273
 129341011.428 6 100785283.01943  24612779.984                    24612790.219
 118936224.567 7  92677640.479 7  22632804.883                    22632814.512
 121032822.556 7  94311357.912 6  23031783.602                    23031792.852
 112296215.750 8  87503646.409 7  21369237.852                    21369245.926
 111285820.975 8  86716284.232 7  21176987.664                    21176995.895
 116595975.131 8  90854066.934 7  22187481.688                    22187493.133
 117871873.574 7  91848335.92845  22430250.242                    22430257.266
 118256500.378 7  92147975.20845  22503464.461                    22503473.969
 128270875.139 6  99951408.63943  24409142.844                    24409153.434
 11  8 29  2 32  0.0000000  0 10G26G21G15G12G05G29G25G02G30G18
 115198472.860 7  89765143.48845  21921533.336                    21921542.336
 129284578.772 6 100741309.61143  24602042.008                    24602051.520
 118845101.311 7  92606635.420 7  22615464.648                    22615473.563
 121123456.197 7  94381981.505 6  23049030.953                    23049039.996
 112365164.996 8  87557373.094 7  21382358.617                    21382366.637
 111222160.008 7  86666678.297 7  21164873.297                    21164881.582
 116649088.229 8  90895453.738 7  22197588.617                    22197600.098
 117917634.546 7  91883993.80945  22438958.883                    22438965.305
 118311402.472 7  92190756.04545  22513911.758                    22513921.234
 128184875.725 6  99884396.28043  24392777.461                    24392787.477
 11  8 29  2 32 30.0000000  0 10G26G21G15G12G05G29G25G02G30G18
 115132011.115 7  89713355.14645  21908886.398                    21908894.402
 129228117.140 6 100697313.56443  24591297.523                    24591307.016
 118754161.551 7  92535773.364 7  22598159.281                    22598168.566
 121214213.959 7  94452701.829 6  23066301.883                    23066310.430
 112434392.535 8  87611316.633 7  21395531.969                    21395539.855
 111158802.196 8  86617308.603 7  21152816.563                    21152824.766
 116702597.738 8  90937149.446 7  22207771.258                    22207782.305
 117963498.969 7  91919732.30445  22447686.750                    22447692.941
 118366689.088 7  92233836.50945  22524432.422                    22524441.992
 128099063.403 6  99817529.74643  24376448.180                    24376457.711
 11  8 29  2 33  0.0000000  0 10G26G21G15G12G05G29G25G02G30G18
 115066003.005 7  89661920.29845  21896325.063                    21896333.566
 129171626.104 6 100653294.68943  24580547.039                    24580556.605
 118663408.352 7  92465056.662 7  22580890.430                    22580898.840
 121305092.265 7  94523516.086 6  23083594.859                    23083604.426
 112503895.787 8  87665475.005 7  21408758.250                    21408765.918
 111095750.021 8  86568177.064 7  21140818.438                    21140826.590
 116756500.975 7  90979151.930 7  22218028.852                    22218040.449
 118009467.154 7  91955551.66245  22456433.945                    22456440.625
 118422357.402 7  92277214.39745  22535025.672                    22535035.684
 128013439.751 6  99750810.18243  24360154.094                    24360164.242
 11  8 29  2 33 30.0000000  0 10G26G21G15G12G05G29G25G02G30G18
 115000451.425 7  89610841.18545  21883850.953                    21883859.656
 129115104.693 6 100609252.05743  24569792.086                    24569801.078
 118572844.258 7  92394487.318 7  22563655.500                    22563664.891
 121396087.548 7  94594421.486 6  23100910.945                    23100919.676
 112573671.809 8  87719845.923 7  21422035.969                    21422044.242
 111033004.529 7  86519284.498 7  21128878.031                    21128886.039
 116810794.673 8  91021458.681 7  22228360.531                    22228372.391
 118055539.220 7  91991451.96145  22465201.195                    22465207.695
 118478403.817 7  92320886.90345  22545690.898                    22545701.422
 127928005.142 6  99684237.91343  24343896.281                    24343906.680
 11  8 29  2 34  0.0000000  0 10G26G21G15G12G05G29G25G02G30G18
 114935359.825 7  89560120.49745  21871464.508                    21871473.316
 129058552.719 6 100565185.64843  24559030.148                    24559039.770
 118482472.637 7  92324067.964 7  22546458.156                    22546467.684
 121487197.242 7  94665416.020 6  23118247.992                    23118257.543
 112643718.402 8  87774427.686 7  21435365.281                    21435373.672
 110970568.876 7  86470633.370 7  21116997.430                    21117005.316
 116865476.365 8  91064067.770 7  22238766.000                    22238777.578
 118101715.633 7  92027433.56245  22473988.594                    22473995.113
 118534825.706 7  92364851.97845  22556427.977                    22556437.660
 127842761.191 6  99617814.17543  24327675.133                    24327684.797
 11  8 29  2 34 30.0000000  0 10G26G21G15G12G05G29G25G02G30G18
 114870731.396 7  89509760.73245  21859166.141                    21859174.824
 129001969.691 6 100521095.01143  24548263.188                    24548271.859
 118392296.596 7  92253800.988 7  22529298.531                    22529307.617
 121578418.266 7  94736497.311 6  23135607.383                    23135616.793
 112714032.948 8  87829218.233 7  21448746.094                    21448753.668
 110908445.303 8  86422225.410 7  21105175.352                    21105183.363
 116920543.255 8  91106976.985 7  22249244.688                    22249256.500
 118147996.945 7  92063496.92145  22482794.883                    22482801.945
 118591620.129 7  92409107.35445  22567235.891                    22567244.875
 127757708.840 6  99551539.74943  24311489.953                    24311499.734
 11  8 29  2 35  0.0000000  0 10G26G21G15G12G05G29G25G02G30G18
 114806569.770 7  89459764.68345  21846956.047                    21846965.664
 128945354.928 6 100476979.69643  24537489.773                    24537498.059
 118302319.122 7  92183688.736 7  22512176.188                    22512185.020
 121669747.325 7  94807662.796 6  23152986.516                    23152995.625
 112784613.217 8  87884215.841 7  21462176.875                    21462184.809
 110846636.248 8  86374062.537 7  21093413.430                    21093421.723
 116975992.758 8  91150184.383 7  22259796.617                    22259808.082
 118194383.915 7  92099642.58645  22491621.875                    22491629.070
 118648784.284 7  92453650.81445  22578114.000                    22578123.711
 127672849.117 6  99485415.48943  24295341.188                    24295351.387
 11  8 29  2 35 30.0000000  0 10G26G21G15G12G05G29G25G02G30G18
 114742878.032 7  89410134.79645  21834836.109                    21834844.688
 128888708.239 6 100432839.47743  24526710.086                    24526719.012
 118212543.813 7  92113734.032 7  22495092.609                    22495101.672
 121761181.732 7  94878910.343 6  23170386.195                    23170395.387
 112855456.993 8  87939418.778 7  21475657.930                    21475665.813
 110785144.460 7  86326146.884 7  21081712.141                    21081720.105
 117031822.299 7  91193687.878 7  22270420.852                    22270432.617
 118240876.902 7  92135870.88045  22500469.594                    22500476.332
 118706315.365 7  92498480.18545  22589061.891                    22589071.223
 127588183.742 6  99419442.59043  24279230.352                    24279239.727
 11  8 29  2 36  0.0000000  0 10G26G21G15G12G05G29G25G02G30G18
 114679659.271 7  89360873.46345  21822805.703                    21822815.195
 128832029.335 6 100388674.17243  24515923.758                    24515933.461
 118122973.587 7  92043939.103 7  22478047.531                    22478056.469
 121852718.281 7  94950237.490 6  23187804.570                    23187814.152
 112926561.413 8  87994824.817 7  21489188.719                    21489196.594
 110723972.090 8  86278480.123 7  21070071.148                    21070079.406
 117088028.977 7  91237485.271 7  22281116.563                    22281127.895
 118287476.046 7  92172181.88245  22509337.195                    22509344.133
 118764210.341 7  92543593.11545  22600078.891                    22600088.332
 127503713.545 6  99353621.76242  24263156.195                    24263165.492
 11  8 29  2 36 30.0000000  0 10G26G21G15G12G05G29G25G02G30G18
 114616917.282 7  89311983.63345  21810866.555                    21810875.563
 128775317.955 6 100344483.53043  24505132.148                    24505141.488
 118033611.569 7  91974306.447 7  22461043.313                    22461051.828
 121944354.250 7  95021642.127 6  23205242.227                    23205252.184
 112997924.184 8  88050432.170 7  21502768.359                    21502776.426
 110663121.552 8  86231064.141 7  21058491.820                    21058500.109
 117144610.192 7  91281574.492 7  22291883.930                    22291895.309
 118334181.913 7  92208576.05145  22518225.164                    22518232.145
 118822466.374 7  92588987.41345  22611164.063                    22611174.164
 127419439.540 6  99287953.86643  24247118.211                    24247128.637
 11  8 29  2 37  0.0000000  0 10G26G21G15G12G05G29G25G02G30G18
 114554654.980 7  89263467.59145  21799018.242                    21799027.102
 128718573.566 6 100300267.15443  24494334.289                    24494343.172
 117944460.224 7  91904837.924 7  22444077.844                    22444086.941
 122036086.140 7  95093121.490 6  23222698.898                    23222707.531
 113069542.928 8  88106238.978 7  21516397.445                    21516405.234
 110602595.369 8  86183900.893 7  21046973.992                    21046982.488
 117201563.029 7  91325953.312 7  22302721.680                    22302733.039
 118380995.022 7  92245053.78645  22527133.406                    22527140.156
 118881080.407 7  92634660.64545  22622318.297                    22622327.500
 127335362.850 6  99222439.69042  24231119.398                    24231128.695
 11  8 29  2 37 30.0000000  0 10G26G21G15G12G05G29G25G02G30G18
 114492875.436 7  89215327.72845  21787261.969                    21787271.098
 128661795.277 6 100256024.42843  24483529.461                    24483539.133
 117855523.644 7  91835536.759 7  22427153.773                    22427162.594
 122127911.069 7  95164673.364 6  23240172.719                    23240181.859
 113141414.872 8  88162243.083 7  21530074.234                    21530081.773
 110542395.401 8  86136991.850 7  21035518.563                    21035526.656
 117258884.631 7  91370619.482 7  22313629.563                    22313641.180
 118427915.946 7  92281615.52045  22536061.883                    22536068.859
 118940049.351 7  92680610.45045  22633539.563                    22633549.172
 127251484.323 6  99157079.89642  24215157.555                    24215166.859
 11  8 29  2 38  0.0000000  0 10G26G21G15G12G05G29G25G02G30G18
 114431582.157 7  89167566.75945  21775598.531                    21775607.246
 128604982.983 6 100211755.17743  24472718.852                    24472727.512
 117766804.868 7  91766405.312 7  22410271.516                    22410279.961
 122219826.257 7  95236295.566 6  23257663.727                    23257672.680
 113213538.044 8  88218442.952 7  21543798.844                    21543806.324
 110482524.810 8  86090339.457 7  21024125.273                    21024133.434
 117316572.557 7  91415571.092 7  22324607.141                    22324618.816
 118474945.202 7  92318261.68745  22545010.844                    22545018.008
 118999370.493 7  92726834.70145  22644828.422                    22644837.738
 127167805.684 6  99091875.87243  24199234.320                    24199244.027
 11  8 29  2 38 30.0000000  0 10G26G21G15G12G05G29G25G02G30G18
 114370777.920 7  89120186.85745  21764027.805                    21764036.633
 128548136.003 6 100167458.89643  24461901.258                    24461909.961
 117678306.463 7  91697445.577 7  22393430.227                    22393439.277
 122311828.381 7  95307985.540 6  23275170.875                    23275179.430
 113285909.801 8  88274836.519 7  21557570.172                    21557578.301
 110422985.421 7  86043945.152 7  21012795.367                    21012803.617
 117374623.527 7  91460805.599 7  22335653.477                    22335665.461
 118522083.234 7  92354992.60645  22553981.586                    22553988.156
 119059040.447 7  92773330.74345  22656182.953                    22656192.508
 127084327.395 6  99026827.95443  24183349.273                    24183358.320
 11  8 29  2 39  0.0000000  0 10G26G21G15G12G05G29G25G02G30G18
 114310466.131 7  89073190.69245  21752550.305                    21752559.059
 128491254.334 6 100123135.57043  24451076.438                    24451085.535
 117590031.930 7  91628660.287 7  22376632.516                    22376641.148
 122403914.694 7  95379741.091 6  23292694.234                    23292703.621
 113358527.607 8  88331421.824 7  21571389.438                    21571396.934
 110363779.887 8  85997810.980 7  21001528.844                    21001537.086
 117433035.086 7  91506321.085 7  22346768.711                    22346780.555
 118569330.394 7  92391808.55745  22562972.094                    22562979.406
 119119056.574 7  92820096.53345  22667603.906                    22667613.031
 127001050.532 6  98961936.98143  24167501.250                    24167511.059
 11  8 29  2 39 30.0000000  0 10G26G21G15G12G05G29G25G02G30G18
 114250649.957 7  89026580.71645  21741168.516                    21741177.152
 128434337.197 6 100078784.60243  24440245.531                    24440253.863
 117501984.013 7  91560051.597 7  22359877.195                    22359885.809
 122496081.941 7  95451559.737 6  23310233.297                    23310242.688
 113431388.933 8  88388196.867 7  21585254.461                    21585262.180
 110304910.221 8  85951938.519 7  20990326.453                    20990334.656
 117491804.227 7  91552115.207 7  22357952.688                    22357964.063
 118616687.035 7  92428709.82345  22571984.195                    22571990.832
 119179415.748 7  92867129.63145  22679089.547                    22679099.070
 126917976.391 7  98897203.93643  24151693.156                    24151702.270
 11  8 29  2 40  0.0000000  0 10G26G21G15G12G05G29G25G02G30G18
 114191333.010 7  88980359.74645  21729880.625                    21729889.129
 128377384.431 6 100034405.88843  24429407.813                    24429416.156
 117414166.651 7  91491622.536 7  22343166.406                    22343175.113
 122588327.512 7  95523439.396 6  23327786.906                    23327795.984
 113504492.026 8  88445160.319 7  21599165.281                    21599173.348
 110246379.588 7  85906330.248 7  20979188.156                    20979196.664
 117550928.623 7  91598186.157 7  22369203.344                    22369215.219
 118664154.170 7  92465697.18445  22581016.594                    22581023.238
 119240115.357 7  92914427.99945  22690640.633                    22690650.086
 126835106.408 7  98832630.00543  24135923.563                    24135932.695
 11  8 29  2 40 30.0000000  0 10G26G21G15G12G05G29G25G02G30G18
 114132517.362 7  88934529.42045  21718688.047                    21718696.363
 128320395.303 6  99989998.83043  24418563.672                    24418572.051
 117326581.906 7  91423374.732 7  22326499.258                    22326507.965
 122680647.840 7  95595377.312 6  23345354.914                    23345363.797
 113577833.457 8  88502309.486 7  21613121.289                    21613129.141
 110188189.354 8  85860987.220 7  20968114.906                    20968123.430
 117610404.592 7  91644531.061 7  22380521.594                    22380532.996
 118711731.600 7  92502770.49945  22590070.797                    22590076.930
 119301151.590 7  92961988.69945  22702255.492                    22702264.930
 126752440.982 7  98768215.46643  24120193.125                    24120202.934
 11  8 29  2 41  0.0000000  0 10G26G21G15G12G05G29G25G02G30G18
 114074206.778 7  88889092.61145  21707592.016                    21707600.434
 128263369.822 6  99945563.47443  24407711.414                    24407720.672
 117239233.148 7  91355310.807 7  22309877.516                    22309885.875
 122773040.260 6  95667371.382 6  23362936.234                    23362945.563
 113651411.736 8  88559643.193 7  21627123.305                    21627131.055
 110130342.238 8  85815911.561 7  20957107.469                    20957115.445
 117670229.853 7  91691148.146 7  22391905.680                    22391917.375
 118759420.169 7  92539930.40345  22599145.219                    22599152.117
 119362521.988 7  93009809.77644  22713933.625                    22713943.016
 126669980.980 7  98703961.00543  24104500.883                    24104511.047
 11  8 29  2 41 30.0000000  0 10G26G21G15G12G05G29G25G02G30G18
 114016404.172 7  88844051.65545  21696592.539                    21696601.172
 128206307.571 6  99901099.45243  24396852.813                    24396861.688
 117152123.981 7  91287433.596 7  22293301.047                    22293309.289
 122865501.533 6  95739419.111 6  23380530.727                    23380540.391
 113725223.837 8  88617159.112 7  21641169.094                    21641177.008
 110072840.805 8  85771105.268 7  20946165.156                    20946172.750
 117730401.465 7  91738035.099 7  22403356.188                    22403367.348
 118807220.365 7  92577177.29245  22608241.516                    22608248.277
 119424223.422 7  93057888.79744  22725674.867                    22725684.867
 126587727.905 7  98639867.76543  24088848.477                    24088857.840
 11  8 29  2 42  0.0000000  0 10G26G21G15G12G05G29G25G02G30G18
 113959112.526 7  88799408.84545  21685690.359                    21685698.688
 128149207.686 6  99856606.10443  24385986.828                    24385996.129
 117065257.204 7  91219745.248 7  22276770.633                    22276779.352
 122958028.522 7  95811518.057 6  23398138.898                    23398147.633
 113799267.557 8  88674855.497 7  21655259.508                    21655267.141
 110015687.048 8  85726569.880 7  20935289.172                    20935297.531
 117790916.206 7  91785189.429 7  22414872.086                    22414883.047
 118855132.599 7  92614511.47545  22617358.898                    22617365.109
 119486252.578 7  93106223.18344  22737478.547                    22737488.605
 126505682.653 7  98575936.47943  24073235.820                    24073245.500
 11  8 29  2 42 30.0000000  0 10G26G21G15G12G05G29G25G02G30G18
 113902335.350 7  88755166.92645  21674885.703                    21674894.453
 128092070.490 6  99812083.66243  24375114.289                    24375123.496
 116978636.365 7  91152248.532 7  22260287.297                    22260295.848
 123050618.745 7  95883666.275 6  23415757.961                    23415766.996
 113873540.754 8  88732730.707 7  21669393.125                    21669400.898
 109958884.010 8  85682307.782 7  20924479.711                    20924487.906
 117851771.852 7  91832609.394 7  22426452.445                    22426464.098
 118903157.616 7  92651933.55045  22626497.750                    22626504.070
 119548606.979 7  93154811.01344  22749344.563                    22749354.148
 126423846.261 7  98512167.95443  24057662.961                    24057672.176
 11  8 29  2 43  0.0000000  0 10G26G21G15G12G05G29G25G02G30G18
 113846075.438 7  88711328.06645  21664180.023                    21664188.371
 128034895.385 6  99767531.69143  24364234.172                    24364243.164
 116892264.098 7  91084945.521 7  22243851.281                    22243859.652
 123143269.051 6  95955861.304 6  23433389.250                    23433398.254
 113948040.442 8  88790782.398 7  21683569.813                    21683578.059
 109902433.598 8  85638320.469 7  20913737.492                    20913745.773
 117912965.194 7  91880292.524 7  22438096.828                    22438108.496
 118951295.512 7  92689443.59744  22635657.828                    22635664.469
 119611283.264 7  93203649.67244  22761271.211                    22761281.301
 126342219.831 7  98448563.03843  24042130.320                    24042139.254
 11  8 29  2 43 30.0000000  0 10G26G21G15G12G05G29G25G02G30G18
 113790335.891 7  88667894.69245  21653573.109                    21653581.629
 127977681.826 6  99722949.78643  24353346.063                    24353355.551
 116806143.897 7  91017838.918 7  22227462.539                    22227471.867
 123235976.674 7  96028101.036 6  23451029.820                    23451039.344
 114022764.806 8  88849009.158 7  21697789.430                    21697797.313
 109846338.483 8  85594609.993 7  20903063.172                    20903071.270
 117974493.562 7  91928236.691 7  22449805.203                    22449816.871
 118999547.269 7  92727042.35545  22644840.047                    22644846.688
 119674278.529 7  93252736.89044  22773258.727                    22773268.543
 126260804.190 6  98385122.34843  24026637.125                    24026646.348
 11  8 29  2 44  0.0000000  0 10G26G21G15G12G05G29G25G02G30G18
 113735119.477 7  88624868.96045  21643065.477                    21643074.105
 127920429.581 6  99678337.72344  24342451.555                    24342460.906
 116720278.194 7  90950930.635 7  22211123.305                    22211131.691
 123328738.246 6  96100382.750 6  23468682.703                    23468691.293
 114097710.954 8  88907408.743 7  21712051.141                    21712059.406
 109790600.658 7  85551177.938 7  20892456.367                    20892464.656
 118036353.675 7  91976439.374 7  22461577.094                    22461588.105
 119047913.040 7  92764729.97544  22654043.758                    22654050.516
 119737589.433 7  93302070.04044  22785306.875                    22785316.047
 126179600.368 6  98321846.72143  24011184.258                    24011193.652
 11  8 29  2 44 30.0000000  0 10G26G21G15G12G05G29G25G02G30G18
 113680429.160 7  88582253.16045  21632658.211                    21632666.758
 127863138.133 6  99633695.12444  24331549.570                    24331558.078
 116634670.457 7  90884223.356 7  22194832.414                    22194841.180
 123421550.828 7  96172704.242 6  23486344.000                    23486352.605
 114172876.795 8  88965979.507 7  21726354.938                    21726362.648
 109735222.326 8  85508026.005 7  20881918.070                    20881926.152
 118098542.652 7  92024898.299 7  22473410.695                    22473422.449
 119096393.242 7  92802506.72445  22663269.414                    22663276.051
 119801212.882 7  93351646.75244  22797413.773                    22797423.355
 126098609.030 6  98258736.67743  23995771.891                    23995781.391
 11  8 29  2 45  0.0000000  0 10G26G21G15G12G05G29G25G02G30G18
 113626268.267 7  88540049.91345  21622351.656                    21622360.441
 127805807.636 6  99589022.10243  24320639.695                    24320648.977
 116549323.922 7  90817719.613 7  22178591.445                    22178600.156
 123514411.778 6  96245063.400 6  23504014.945                    23504024.348
 114248259.961 8  89024719.622 7  21740699.586                    21740708.035
 109680206.481 8  85465156.551 7  20871449.063                    20871457.316
 118161057.990 7  92073611.528 7  22485307.578                    22485318.910
 119144988.542 7  92840373.18645  22672516.508                    22672523.160
 119865146.202 7  93401464.90144  22809580.336                    22809589.242
 126017831.539 6  98195793.26843  23980400.711                    23980410.109
 11  8 29  2 45 30.0000000  0 10G26G21G15G12G05G29G25G02G30G18
 113572639.502 7  88498261.30445  21612146.398                    21612155.266
 127748437.040 6  99544317.84243  24309722.281                    24309731.297
 116464241.563 7  90751421.707 7  22162400.680                    22162408.723
 123607317.796 6  96317457.698 6  23521694.570                    23521703.527
 114323857.825 8  89083627.032 7  21755085.500                    21755093.621
 109625554.792 8  85422570.833 7  20861048.914                    20861057.410
 118223896.331 7  92122576.458 7  22497264.977                    22497276.836
 119193699.386 7  92878329.67644  22681785.680                    22681792.992
 119929385.828 7  93451521.75244  22821804.375                    22821814.293
 125937268.503 6  98133016.94843  23965069.742                    23965079.328
 11  8 29  2 46  0.0000000  0 10G26G21G15G12G05G29G25G02G30G18
 113519545.636 7  88456889.49945  21602043.250                    21602051.762
 127691026.414 6  99499582.34543  24298797.906                    24298806.738
 116379426.644 7  90685332.203 7  22146260.820                    22146269.375
 123700266.114 6  96389884.937 6  23539381.711                    23539391.215
 114399668.083 8  89142699.950 7  21769511.828                    21769519.484
 109571269.710 8  85380270.792 7  20850719.047                    20850727.445
 118287054.985 7  92171790.993 7  22509284.125                    22509295.480
 119242526.399 7  92916376.68744  22691077.844                    22691083.887
 119993928.902 7  93501815.06144  22834086.188                    22834096.305
 125856920.817 6  98070408.44043  23949780.117                    23949789.727
 11  8 29  2 46 30.0000000  0 10G26G21G15G12G05G29G25G02G30G18
 113466990.018 7  88415937.10345  21592042.242                    21592050.898
 127633575.433 6  99454815.43543  24287864.820                    24287873.668
 116294882.312 7  90619453.538 7  22130172.984                    22130181.230
 123793253.708 7  96462342.796 6  23557076.945                    23557085.879
 114475688.730 8  89201936.802 7  21783977.719                    21783986.074
 109517354.023 8  85338258.590 7  20840459.281                    20840467.301
 118350531.088 7  92221252.874 7  22521363.055                    22521374.613
 119291470.065 7  92954514.58744  22700390.961                    22700397.883
 120058772.500 7  93552342.54244  22846425.898                    22846435.215
 125776789.968 6  98007968.88243  23934531.938                    23934541.090
 11  8 29  2 47  0.0000000  0 10G26G21G15G12G05G29G25G02G30G18
 113414974.788 7  88375405.78945  21582144.039                    21582152.516
 127576083.556 6  99410016.64843  24276924.500                    24276933.582
 116210611.055 7  90553787.678 7  22114136.352                    22114145.008
 123886277.046 6  96534828.495 6  23574778.391                    23574787.863
 114551917.024 8  89261335.461 7  21798483.828                    21798491.891
 109463809.318 8  85296535.473 7  20830269.922                    20830278.414
 118414321.199 7  92270959.458 7  22533502.141                    22533513.648
 119340530.525 7  92992743.50844  22709726.883                    22709733.676
 120123913.032 7  93603101.41044  22858821.938                    22858831.156
 125696876.576 6  97945698.77243  23919324.453                    23919333.758
 11  8 29  2 47 30.0000000  0 10G26G21G15G12G05G29G25G02G30G18
 113363503.750 8  88335298.51945  21572349.500                    21572357.836
 127518550.613 6  99365185.88543  24265975.961                    24265985.020
 116126616.685 7  90488337.553 7  22098152.867                    22098161.359
 123979334.297 6  96607340.620 6  23592486.648                    23592495.609
 114628350.886 8  89320894.294 7  21813028.773                    21813036.582
 109410638.851 8  85255103.967 7  20820152.352                    20820160.289
 118478423.050 7  92320908.960 7  22545700.109                    22545711.840
 119389709.155 7  93031064.50244  22719085.156                    22719091.742
 120189348.012 6  93654089.70544  22871273.609                    22871283.113
 125617181.611 6  97883598.85443  23904158.516                    23904168.020
 11  8 29  2 48  0.0000000  0 10G26G21G15G12G05G29G25G02G30G18
 113312578.833 8  88295616.79945  21562658.406                    21562666.773
 127460975.897 6  99320322.56943  24255019.859                    24255028.895
 116042901.586 7  90423105.056 7  22082222.500                    22082231.113
 124072421.839 6  96679876.338 6  23610201.070                    23610210.277
 114704987.429 8  89380611.078 7  21827612.156                    21827620.316
 109357843.745 8  85213964.952 7  20810105.023                    20810113.379
 118542833.086 7  92371098.588 7  22557956.727                    22557968.145
 119439005.532 7  93069477.25045  22728466.281                    22728473.078
 120255073.648 7  93705304.47845  22883780.477                    22883790.340
 125537705.552 6  97821669.53343  23889035.781                    23889044.379
 11  8 29  2 48 30.0000000  0 10G26G21G15G12G05G29G25G02G30G18
 113262203.328 7  88256363.19545  21553072.336                    21553081.129
 127403360.019 6  99275427.16343  24244056.508                    24244065.523
 115959469.242 7  90358092.882 7  22066345.531                    22066354.527
 124165536.966 6  96752433.562 6  23627920.031                    23627929.305
 114781824.792 8  89440484.326 7  21842233.898                    21842241.789
 109305427.030 8  85173120.783 7  20800130.867                    20800138.938
 118607548.581 7  92421526.239 7  22570271.633                    22570283.613
 119488420.315 7  93107982.25945  22737869.734                    22737876.227
 120321087.322 7  93756743.69244  22896342.531                    22896352.652
 125458449.478 7  97759911.53443  23873953.602                    23873962.188
 11  8 29  2 49  0.0000000  0 10G26G21G15G12G05G29G25G02G30G18
 113212379.691 8  88217539.60945  21543591.313                    21543600.004
 127345701.815 6  99230498.73843  24233083.813                    24233093.023
 115876322.507 7  90293303.268 7  22050523.297                    22050532.020
 124258676.605 7  96825009.864 6  23645643.875                    23645653.164
 114858860.242 8  89500511.945 7  21856893.352                    21856901.141
 109253390.903 8  85132573.184 7  20790228.719                    20790236.949
 118672566.480 7  92472189.518 7  22582644.273                    22582656.301
 119537954.289 7  93146580.13745  22747295.758                    22747302.195
 120387385.563 7  93808404.65345  22908958.570                    22908968.563
 125379414.146 7  97698325.61043  23858913.109                    23858922.438
 11  8 29  2 49 30.0000000  0 10G26G21G15G12G05G29G25G02G30G18
 113163111.266 8  88179148.66745  21534215.727                    21534224.313
 127288001.481 6  99185537.55843  24222103.633                    24222112.875
 115793464.714 7  90228738.790 7  22034755.867                    22034764.688
 124351838.198 7  96897603.287 6  23663372.359                    23663381.230
 114936091.865 8  89560692.421 7  21871589.734                    21871597.582
 109201738.065 8  85092324.247 7  20780399.422                    20780407.695
 118737884.087 7  92523086.324 7  22595073.508                    22595085.469
 119587608.014 7  93185271.32545  22756744.242                    22756751.434
 120453965.701 7  93860285.25345  22921628.570                    22921637.953
 125300601.034 7  97636912.84943  23843915.719                    23843924.867
 11  8 29  2 50  0.0000000  0 10G26G21G15G12G05G29G25G02G30G18
 113114399.920 8  88141191.79645  21524946.586                    21524955.125
 127230257.755 6  99140542.54143  24211115.875                    24211124.867
 115710898.081 7  90164401.207 7  22019044.133                    22019053.332
 124445017.900 6  96970210.797 6  23681103.398                    23681112.191
 115013516.346 8  89621023.187 7  21886323.656                    21886331.395
 109150469.148 8  85052374.475 7  20770642.984                    20770651.004
 118803497.504 7  92574213.647 7  22607559.609                    22607571.309
 119637381.497 7  93224055.82344  22766215.828                    22766222.633
 120520823.593 7  93912382.29444  22934351.234                    22934361.066
 125222010.209 6  97575673.30043  23828960.055                    23828969.535
 11  8 29  2 50 30.0000000  0 10G26G21G15G12G05G29G25G02G30G18
 113066249.284 7  88103671.84845  21515783.547                    21515792.238
 127172471.512 7  99095514.37543  24200119.000                    24200127.867
 115628626.764 7  90100293.737 7  22003388.156                    22003397.094
 124538213.777 7  97042830.965 6  23698838.133                    23698847.172
 115091132.131 8  89681503.020 7  21901093.016                    21901101.004
 109099587.975 8  85012726.827 8  20760960.797                    20760969.117
 118869404.808 7  92625569.977 7  22620101.336                    22620113.047
 119687275.630 7  93262934.35544  22775710.586                    22775717.168
 120587957.121 7  93964694.12745  22947126.641                    22947135.973
 125143643.055 6  97514608.03643  23814047.758                    23814056.867
 11  8 29  2 51  0.0000000  0 10G26G21G15G12G05G29G25G02G30G18
 113018661.641 8  88066590.59445  21506727.664                    21506736.203
 127114642.156 6  99050452.61943  24189114.867                    24189123.508
 115546653.250 7  90036418.309 7  21987789.297                    21987797.715
 124631422.271 7  97115460.926 6  23716575.477                    23716584.008
 115168936.776 8  89742130.006 7  21915898.773                    21915907.008
 109049096.250 8  84973382.648 7  20751352.445                    20751360.539
 118935602.412 7  92677152.542 7  22632697.930                    22632709.730
 119737290.772 7  93301907.16744  22785228.188                    22785234.547
 120655362.698 7  94017217.92644  22959953.438                    22959962.617
 125065500.140 7  97453717.49943  23799177.305                    23799186.816
 11  8 29  2 51 30.0000000  0 10G26G21G15G12G05G29G25G02G30G18
 112971639.999 8  88029950.39945  21497779.930                    21497788.805
 127056769.193 7  99005356.92643  24178102.063                    24178109.750
 115464981.006 7  89972777.657 7  21972247.320                    21972255.809
 124724641.513 6  97188099.284 6  23734314.297                    23734323.945
 115246928.274 8  89802902.594 7  21930740.047                    21930747.922
 108998996.776 8  84934344.119 8  20741818.805                    20741827.254
 119002087.696 7  92728959.250 7  22645350.406                    22645361.996
 119787427.629 7  93340974.81344  22794768.688                    22794775.473
 120723037.429 7  94069951.46144  22972831.000                    22972840.867
 124987582.551 6  97393002.53643  23784350.625                    23784359.223
 11  8 29  2 52  0.0000000  0 10G26G21G15G12G05G29G25G02G30G18
 112925186.764 8  87993753.09345  21488939.984                    21488948.898
 126998852.294 7  98960226.92443  24167080.469                    24167089.305
 115383612.490 7  89909373.652 7  21956763.586                    21956771.848
 124817867.617 7  97260743.005 6  23752054.008                    23752063.656
 115325104.160 8  89863818.863 7  21945616.453                    21945624.496
 108949291.220 8  84895612.544 7  20732360.586                    20732368.223
 119068857.307 7  92780987.536 7  22658055.914                    22658067.664
 119837686.499 7  93380137.54744  22804332.813                    22804339.434
 120790977.997 7  94122892.16444  22985759.586                    22985770.305
 124909891.043 6  97332463.78443  23769566.109                    23769575.066
 11  8 29  2 52 30.0000000  0 10G26G21G15G12G05G29G25G02G30G18
 112879304.732 8  87958000.90545  21480209.133                    21480217.676
 126940891.387 7  98915062.66843  24156050.852                    24156059.027
 115302550.963 7  89846208.862 7  21941338.430                    21941346.535
 124911097.844 6  97333389.913 6  23769795.117                    23769805.016
 115403462.139 8  89924877.016 7  21960527.422                    21960535.316
 108899982.298 8  84857190.026 8  20722977.031                    20722985.477
 119135908.523 7  92833235.207 7  22670815.070                    22670827.121
 119888068.315 7  93419396.07544  22813920.078                    22813926.910
 120859181.472 7  94176037.72744  22998738.828                    22998748.770
 124832426.528 6  97272101.89743  23754824.406                    23754833.449
 11  8 29  2 53  0.0000000  0 10G26G21G15G12G05G29G25G02G30G18
 112833996.243 8  87922695.61345  21471587.047                    21471595.930
 126882886.034 7  98869863.78344  24145012.641                    24145021.426
 115221799.282 7  89783285.505 7  21925971.438                    21925979.723
 125004329.177 7  97406037.721 6  23787537.039                    23787545.816
 115481999.557 8  89986074.996 7  21975472.750                    21975480.836
 108851071.594 8  84819077.818 8  20713669.258                    20713677.289
 119203237.952 7  92885699.668 7  22683627.813                    22683639.703
 119938573.314 7  93458750.60044  22823531.977                    22823537.242
 120927644.291 7  94229385.37144  23011766.758                    23011776.234
 124755188.985 6  97211916.82843  23740126.820                    23740136.328
 11  8 29  2 53 30.0000000  0 10G26G21G15G12G05G29G25G02G30G18
 112789264.543 7  87887839.77745  21463074.969                    21463083.387
 126824836.290 7  98824630.30344  24133965.961                    24133974.555
 115141361.100 8  89720606.425 7  21910664.203                    21910672.551
 125097559.438 7  97478684.649 6  23805278.500                    23805287.762
 115560714.552 7  90047411.347 7  21990451.672                    21990459.414
 108802562.157 8  84781278.260 8  20704438.758                    20704446.773
 119270843.021 7  92938378.914 7  22696492.648                    22696504.676
 119989202.260 7  93498201.71444  22833165.008                    22833172.285
 120996363.871 7  94282933.08144  23024843.461                    23024853.105
 124678179.995 6  97151909.91643  23725472.680                    23725482.008
 11  8 29  2 54  0.0000000  0 10G26G21G15G12G05G29G25G02G30G18
 112745111.844 8  87853435.10445  21454672.711                    21454681.125
 126766742.097 7  98779362.15643  24122910.789                    24122919.465
 115061239.205 7  89658173.820 7  21895417.703                    21895426.160
 125190785.484 7  97551328.345 6  23823018.523                    23823027.090
 115639604.719 7  90108884.196 7  22005464.078                    22005471.703
 108754456.312 8  84743793.207 7  20695284.313                    20695292.324
 119338720.686 7  92991270.555 7  22709409.188                    22709420.355
 120039955.549 7  93537749.70544  22842823.234                    22842829.656
 121065336.825 6  94336678.23344  23037968.758                    23037978.656
 124601400.577 6  97092081.85144  23710862.383                    23710871.676
 11  8 29  2 54 30.0000000  0 10G26G21G15G12G05G29G25G02G30G18
 112701540.389 7  87819483.36145  21446381.742                    21446389.934
 126708602.851 7  98734058.93943  24111847.781                    24111855.559
 114981436.314 7  89595989.780 7  21880231.758                    21880240.301
 125284004.221 7  97623966.315 6  23840757.266                    23840766.344
 115718667.593 8  90170491.636 7  22020509.094                    22020517.121
 108706755.431 8  84706623.708 8  20686207.227                    20686215.250
 119406867.585 7  93044372.009 7  22722377.391                    22722388.980
 120090833.295 7  93577394.66944  22852505.297                    22852512.059
 121134559.751 7  94390618.16644  23051141.383                    23051151.520
 124524851.108 6  97032432.99243  23696294.875                    23696304.246
 11  8 29  2 55  0.0000000  0 10G26G21G15G12G05G29G25G02G30G18
 112658553.025 7  87785986.74845  21438201.406                    21438210.172
 126650418.280 7  98688720.41144  24100775.289                    24100783.770
 114901955.583 7  89534056.786 7  21865107.156                    21865115.500
 125377212.994 7  97696596.506 6  23858493.961                    23858502.980
 115797901.126 7  90232232.033 7  22035586.664                    22035594.746
 108659462.137 8  84669771.797 8  20677207.711                    20677215.750
 119475280.722 7  93097680.918 7  22735396.164                    22735407.520
 120141836.436 7  93617137.36344  22862210.500                    22862217.453
 121204029.570 7  94444750.47444  23064361.031                    23064371.004
 124448532.388 6  96972963.94043  23681771.578                    23681781.230
 11  8 29  2 55 30.0000000  0 10G26G21G15G12G05G29G25G02G30G18
 112616152.407 8  87752947.34245  21430132.547                    21430140.992
 126592188.595 6  98643346.70644  24089694.492                    24089703.211
 114822800.348 7  89472377.409 7  21850044.422                    21850052.848
 125470409.016 7  97769216.776 6  23876229.195                    23876238.316
 115877303.193 8  90294103.753 7  22050696.547                    22050704.383
 108612579.121 8  84633239.589 7  20668285.727                    20668293.664
 119543957.464 7  93151195.239 7  22748464.523                    22748476.215
 120192965.488 7  93656978.16544  22871939.883                    22871946.973
 121273743.421 7  94499072.95544  23077627.063                    23077636.840
 124372445.388 7  96913675.41643  23667293.219                    23667302.203
 11  8 29  2 56  0.0000000  0 10G26G21G15G12G05G29G25G02G30G18
 112574340.668 7  87720366.80945  21422175.969                    21422184.832
 126533912.923 7  98597937.16744  24078604.625                    24078613.215
 114743973.015 7  89410953.551 7  21835043.984                    21835052.488
 125563589.190 7  97841824.675 6  23893960.305                    23893969.922
 115956871.077 8  90356104.690 7  22065838.000                    22065845.867
 108566107.520 8  84597027.959 8  20659442.836                    20659451.016
 119612894.239 7  93204912.178 7  22761583.461                    22761594.832
 120244220.628 7  93696917.21344  22881694.148                    22881700.293
 121343697.701 7  94553582.78844  23090938.570                    23090948.699
 124296590.431 7  96854567.71843  23652858.344                    23652867.863
 11  8 29  2 56 30.0000000  0 10G26G21G15G12G05G29G25G02G30G18
 112533119.844 8  87688246.72045  21414332.539                    21414340.668
 126475590.824 7  98552491.46744  24067506.695                    24067514.594
 114665476.127 7  89349787.199 7  21820106.484                    21820114.742
 125656750.644 7  97914418.002 6  23911688.625                    23911697.973
 116036602.017 8  90418232.686 7  22081010.063                    22081018.328
 108520049.063 8  84561138.267 8  20650678.258                    20650685.996
 119682087.589 7  93258829.062 7  22774750.102                    22774761.992
 120295602.219 7  93736954.79744  22891471.914                    22891478.277
 121413888.862 7  94608277.20544  23104295.797                    23104305.699
 124220967.982 7  96795641.18643  23638468.219                    23638477.156
 11  8 29  2 57  0.0000000  0 10G26G21G15G12G05G29G25G02G30G18
 112492492.974 8  87656589.45245  21406600.906                    21406609.398
 126417222.827 7  98507009.98244  24056399.727                    24056407.992
 114587313.612 7  89288881.383 7  21805232.500                    21805241.211
 125749890.545 7  97986994.520 6  23929412.242                    23929422.016
 116116494.711 8  90480486.715 7  22096213.180                    22096221.438
 108474407.147 8  84525573.151 8  20641992.680                    20642000.680
 119751535.223 7  93312944.077 7  22787965.477                    22787976.785
 120347111.287 7  93777091.71644  22901273.242                    22901279.605
 121484314.391 6  94663154.22244  23117697.469                    23117707.191
 124145579.413 6  96736896.90043  23624121.609                    23624131.121
 11  8 29  2 57 30.0000000  0 10G26G21G15G12G05G29G25G02G30G18
 112452462.664 8  87625397.04745  21398983.586                    21398992.160
 126358808.337 6  98461492.29644  24045283.336                    24045291.910
 114509488.272 7  89228238.304 7  21790422.852                    21790431.391
 125843006.501 6  98059552.386 6  23947132.039                    23947141.309
 116196546.852 8  90542864.994 7  22111446.695                    22111454.758
 108429183.916 8  84490334.277 8  20633387.063                    20633395.188
 119821234.046 7  93367254.831 7  22801228.531                    22801240.156
 120398748.423 7  93817328.42344  22911099.758                    22911105.898
 121554971.163 6  94718211.43544  23131142.820                    23131152.648
 124070425.442 7  96678335.42443  23609820.125                    23609829.188
 11  8 29  2 58  0.0000000  0 10G26G21G15G12G05G29G25G02G30G18
 112413031.126 8  87594671.19945  21391479.805                    21391488.152
 126300347.221 7  98415938.24444  24034158.672                    24034167.145
 114432002.926 7  89167860.163 7  21775678.258                    21775686.328
 125936095.647 6  98132089.403 6  23964846.281                    23964855.477
 116276755.965 7  90605365.596 7  22126709.586                    22126717.719
 108384381.337 8  84455423.189 8  20624861.133                    20624869.379
 119891180.896 7  93421758.854 7  22814539.234                    22814550.813
 120450514.017 7  93857665.22344  22920950.258                    22920956.938
 121625855.834 7  94773446.26244  23144631.656                    23144641.344
 123995506.415 6  96619956.99643  23595564.000                    23595573.031
 11  8 29  2 58 30.0000000  0 10G26G21G15G12G05G29G25G02G30G18
 112374200.664 8  87564413.73545  21384091.195                    21384099.363
 126241839.375 6  98370347.77344  24023024.445                    24023032.926
 114354860.527 7  89107749.259 7  21760998.289                    21761006.805
 126029154.841 6  98204603.048 6  23982554.430                    23982564.391
 116357119.866 7  90667986.798 7  22142002.430                    22142010.855
 108340001.576 8  84420841.567 8  20616416.063                    20616423.977
 119961372.650 7  93476453.705 7  22827896.328                    22827907.863
 120502408.644 7  93898102.56544  22930825.617                    22930832.281
 121696965.297 7  94828856.26044  23158163.891                    23158173.445
 123920823.386 6  96561762.48643  23581351.750                    23581360.848
 11  8 29  2 59  0.0000000  0 10G26G21G15G12G05G29G25G02G30G18
 112335973.373 8  87534626.26345  21376816.234                    21376824.961
 126183284.842 7  98324720.94244  24011882.086                    24011890.691
 114278064.003 7  89047907.846 7  21746384.234                    21746392.785
 126122181.501 6  98277091.351 6  24000256.797                    24000266.664
 116437636.212 7  90730726.795 7  22157324.523                    22157332.625
 108296046.660 8  84386590.999 7  20608051.797                    20608059.758
 120031806.184 7  93531336.922 7  22841299.109                    22841310.703
 120554432.599 7  93938640.67444  22940725.313                    22940732.348
 121768296.166 7  94884438.79744  23171737.867                    23171747.070
 123846376.565 7  96503752.01843  23567185.563                    23567193.605
 11  8 29  2 59 30.0000000  0 10G26G21G15G12G05G29G25G02G30G18
 112298351.771 8  87505310.76345  21369657.008                    21369665.766
 126124683.188 7  98279057.37844  24000730.500                    24000739.309
 114201616.285 8  88988338.240 7  21731836.836                    21731845.023
 126215172.768 6  98349552.107 6  24017952.430                    24017962.109
 116518303.169 7  90793584.141 7  22172674.750                    22172682.750
 108252518.707 8  84352673.122 8  20599768.703                    20599776.914
 120102478.415 7  93586406.147 7  22854747.805                    22854759.781
 120606586.342 7  93979279.95744  22950649.930                    22950656.367
 121839845.378 7  94940191.43844  23185353.242                    23185362.355
 123772167.358 7  96445926.71543  23553064.039                    23553072.199
 11  8 29  3  0  0.0000000  0 10G26G21G15G12G05G29G25G02G30G18
 112261338.098 8  87476468.97745  21362613.625                    21362622.152
 126066034.118 7  98233356.86944  23989570.047                    23989578.309
 114125520.287 7  88929042.699 7  21717355.805                    21717364.367
 126308125.626 6  98421982.893 6  24035641.047                    24035650.305
 116599118.098 7  90856556.820 7  22188053.430                    22188061.461
 108209419.765 8  84319089.538 8  20591567.156                    20591575.398
 120173386.294 7  93641658.988 7  22868240.875                    22868252.813
 120658870.743 7  94020021.02944  22960599.086                    22960606.203
 121911609.512 7  94996111.56844  23199009.336                    23199017.973
 123698195.670 7  96388286.48243  23538987.086                    23538995.645
 11  8 29  3  0 30.0000000  0 10G26G21G15G12G05G29G25G02G30G18
 112224934.528 8  87448102.58945  21355686.227                    21355694.621
 126007337.599 6  98187619.37744  23978400.594                    23978409.070
 114049778.829 7  88870023.411 7  21702942.914                    21702951.379
 126401037.653 6  98494381.835 6  24053321.594                    24053331.145
 116680078.762 7  90919643.036 7  22203459.781                    22203467.703
 108166751.777 8  84285841.778 8  20583447.695                    20583455.418
 120244526.609 7  93697092.997 7  22881778.711                    22881790.227
 120711285.933 7  94060863.99344  22970573.445                    22970580.758
 121983585.418 7  95052196.68244  23212705.688                    23212715.473
 123624462.399 6  96330832.03443  23524956.305                    23524965.020
 11  8 29  3  1  0.0000000  0 10G26G21G15G12G05G29G25G02G30G18
 112189143.240 8  87420213.30445  21348874.938                    21348883.262
 125948593.621 7  98141844.91444  23967221.531                    23967230.621
 113974394.656 7  88811282.542 7  21688597.656                    21688605.898
 126493905.718 6  98566746.569 6  24070994.047                    24071003.438
 116761183.108 7  90982841.216 7  22218893.320                    22218901.305
 108124516.973 8  84252931.559 8  20575410.508                    20575418.633
 120315896.318 7  93752705.749 7  22895360.055                    22895371.785
 120763832.455 7  94101809.30244  22980573.234                    22980579.605
 122055769.952 7  95108444.35644  23226442.000                    23226452.203
 123550968.095 7  96273563.79643  23510970.414                    23510980.109
 11  8 29  3  1 30.0000000  0 10G26G21G15G12G05G29G25G02G30G18
 112153966.726 8  87392803.05445  21342181.328                    21342189.727
 125889802.065 6  98096033.38043  23956033.938                    23956042.469
 113899371.300 8  88752822.819 7  21674321.336                    21674329.734
 126586727.620 7  98639075.325 6  24088658.047                    24088666.422
 116842429.077 7  91046149.758 7  22234353.891                    22234361.816
 108082717.863 8  84220360.839 8  20567456.516                    20567464.547
 120387492.708 7  93808495.127 7  22908984.328                    22908996.055
 120816511.125 7  94142857.58744  22990597.477                    22990603.895
 122128160.199 7  95164852.31444  23240217.742                    23240227.086
 123477713.700 7  96216482.49044  23497031.031                    23497039.887
 11  8 29  3  2  0.0000000  0 10G26G21G15G12G05G29G25G02G30G18
 112119406.891 8  87365873.34345  21335604.875                    21335613.176
 125830962.671 7  98050184.55544  23944836.875                    23944845.766
 113824711.144 7  88694646.129 7  21660114.133                    21660122.027
 126679500.199 7  98711365.675 6  24106311.586                    24106320.945
 116923814.464 7  91109566.919 7  22249840.961                    22249849.219
 108041356.052 8  84188130.872 8  20559585.742                    20559593.680
 120459312.317 7  93864458.421 7  22922650.992                    22922662.828
 120869322.045 7  94184008.92144  23000646.656                    23000653.465
 122200752.737 7  95221417.90244  23254031.617                    23254041.285
 123404699.641 6  96159588.47443  23483137.055                    23483145.652
 11  8 29  3  2 30.0000000  0 10G26G21G15G12G05G29G25G02G30G18
 112085466.237 8  87339426.10145  21329146.367                    21329154.535
 125772075.187 7  98004298.26444  23933630.844                    23933639.551
 113750417.625 8  88636755.124 7  21645976.250                    21645984.082
 126772220.978 7  98783615.653 6  24123956.070                    24123964.516
 117005337.237 7  91173091.158 7  22265354.289                    22265362.059
 108000433.826 8  84156243.444 8  20551798.477                    20551806.617
 120531352.324 7  93920593.492 7  22936360.078                    22936371.320
 120922266.138 7  94225264.01844  23010721.922                    23010728.938
 122273544.545 7  95278138.77244  23267882.992                    23267892.891
 123331926.617 6  96102882.27043  23469288.359                    23469297.348
 11  8 29  3  3  0.0000000  0 10G26G21G15G12G05G29G25G02G30G18
 112052146.880 8  87313462.99845  21322805.227                    21322813.648
 125713139.613 7  97958374.51444  23922416.078                    23922424.164
 113676493.478 8  88579151.927 7  21631908.906                    21631917.227
 126864887.343 7  98855823.236 6  24141589.336                    24141598.016
 117086995.447 7  91236720.927 7  22280893.250                    22280901.363
 107959953.703 8  84124700.517 8  20544095.445                    20544103.473
 120603609.666 7  93976897.893 7  22950109.727                    22950121.820
 120975343.944 7  94266623.32444  23020822.219                    23020828.441
 122346532.510 7  95335012.48344  23281772.625                    23281782.500
 123259395.287 6  96046364.39644  23455485.711                    23455494.625
 11  8 29  3  3 30.0000000  0 10G26G21G15G12G05G29G25G02G30G18
 112019450.498 8  87287985.32445  21316583.781                    21316592.199
 125654155.743 7  97912413.09944  23911191.961                    23911200.426
 113602941.240 7  88521838.542 7  21617912.602                    21617920.578
 126957496.041 6  98927985.871 5  24159212.102                    24159221.129
 117168786.133 7  91300453.906 7  22296457.977                    22296465.930
 107919916.891 8  84093503.021 8  20536476.492                    20536484.328
 120676080.931 7  94033368.990 7  22963900.898                    22963912.492
 121028555.728 7  94308086.99044  23030948.156                    23030954.871
 122419713.226 7  95392036.37944  23295698.219                    23295707.961
 123187106.292 6  95990035.38044  23441729.836                    23441738.762
 11  8 29  3  4  0.0000000  0 10G26G21G15G12G05G29G25G02G30G18
 111987379.269 8  87262994.79045  21310480.625                    21310489.648
 125595123.341 7  97866413.86944  23899957.781                    23899966.691
 113529763.930 7  88464817.296 7  21603987.063                    21603995.168
 127050044.643 7  99000101.706 5  24176823.773                    24176832.457
 117250707.572 7  91364288.789 7  22312047.133                    22312054.777
 107880325.458 8  84062652.560 8  20528942.609                    20528950.348
 120748763.055 7  94090004.394 7  22977731.922                    22977743.664
 121081902.061 7  94349655.54144  23041099.648                    23041106.441
 122493083.415 7  95449207.95844  23309659.570                    23309669.883
 123115059.806 6  95933895.28644  23428019.984                    23428028.707
 11  8 29  3  4 30.0000000  0 10G26G21G15G12G05G29G25G02G30G18
 111955934.954 8  87238492.75445  21304497.086                    21304505.879
 125536042.268 7  97820376.73444  23888715.680                    23888724.098
 113456963.754 8  88408089.924 7  21590133.672                    21590141.695
 127142530.253 6  99072168.411 5  24194423.016                    24194432.020
 117332757.677 7  91428223.925 7  22327660.391                    22327668.672
 107841181.476 8  84032150.769 8  20521493.656                    20521501.363
 120821652.807 7  94146801.601 7  22991602.227                    22991613.770
 121135383.209 7  94391329.11044  23051276.852                    23051283.379
 122566639.759 7  95506524.54544  23323657.156                    23323667.391
 123043256.374 7  95877944.59144  23414356.156                    23414365.379
 11  8 29  3  5  0.0000000  0 10G26G21G15G12G05G29G25G02G30G18
 111925120.032 8  87214481.15145  21298633.031                    21298641.504
 125476912.875 7  97774301.92844  23877463.492                    23877472.105
 113384544.404 7  88351659.285 7  21576352.781                    21576360.934
 127234950.144 6  99144183.968 6  24212009.883                    24212019.484
 117414934.274 7  91492257.626 7  22343298.430                    22343306.352
 107802487.366 8  84001999.528 8  20514130.578                    20514138.293
 120894747.515 7  94203758.484 7  23005511.680                    23005523.523
 121188999.984 7  94433108.40244  23061480.141                    23061485.867
 122640379.456 7  95563984.00844  23337689.195                    23337699.352
 122971697.115 7  95822184.15944  23400739.188                    23400747.949
 11  8 29  3  5 30.0000000  0 10G26G21G15G12G05G29G25G02G30G18
 111894936.426 8  87190961.49246  21292889.320                    21292897.836
 125417734.779 7  97728189.15044  23866202.281                    23866210.762
 113312508.601 8  88295527.522 7  21562644.789                    21562652.980
 127327301.973 6  99216146.410 6  24229583.648                    24229593.051
 117497234.848 7  91556387.940 7  22358959.438                    22358967.238
 107764244.930 8  83972200.234 8  20506853.133                    20506861.180
 120968043.828 8  94260872.491 7  23019459.859                    23019471.711
 121242753.069 6  94474993.87644  23071708.766                    23071715.445
 122714299.094 7  95621583.72144  23351756.445                    23351766.359
 122900382.418 6  95766614.31244  23387168.039                    23387176.414
 11  8 29  3  6  0.0000000  0 10G26G21G15G12G05G29G25G02G30G18
 111865385.724 8  87167935.01045  21287265.930                    21287274.309
 125358507.906 7  97682038.38644  23854931.078                    23854939.809
 113240858.887 7  88239696.614 7  21549010.008                    21549018.414
 127419582.811 6  99288053.623 6  24247144.648                    24247153.871
 117579657.874 7  91620613.672 7  22374644.117                    22374652.113
 107726455.909 8  83942754.249 8  20499662.039                    20499670.047
 121041538.587 8  94318141.134 7  23033445.391                    23033456.984
 121296642.488 6  94516985.61644  23081962.633                    23081969.996
 122788395.472 7  95679321.13844  23365856.102                    23365866.098
 122829312.595 7  95711235.26144  23373643.953                    23373652.598
 11  8 29  3  6 30.0000000  0 10G26G21G15G12G05G29G25G02G30G18
 111836470.148 7  87145403.42146  21281763.539                    21281772.316
 125299232.075 7  97635849.47744  23843651.563                    23843659.848
 113169597.752 8  88184168.486 7  21535449.648                    21535457.992
 127511790.029 6  99359903.337 6  24264690.492                    24264700.469
 117662200.783 7  91684932.812 7  22390351.492                    22390359.414
 107689122.365 8  83913663.173 8  20492557.789                    20492565.523
 121115228.632 7  94375561.956 7  23047467.867                    23047479.477
 121350668.943 7  94559084.08944  23092245.023                    23092251.816
 122862665.376 7  95737193.75744  23379989.289                    23379999.656
 122758488.247 7  95656047.49944  23360166.523                    23360175.176
 11  8 29  3  7  0.0000000  0 10G26G21G15G12G05G29G25G02G30G18
 111808191.258 8  87123367.94946  21276382.344                    21276390.949
 125239907.622 7  97589622.67744  23832362.953                    23832370.969
 113098728.342 8  88128945.606 7  21521963.938                    21521972.410
 127603920.642 6  99431693.444 6  24282222.273                    24282232.320
 117744861.649 7  91749343.869 7  22406081.203                    22406089.348
 107652246.342 8  83884928.622 8  20485540.461                    20485548.547
 121189110.945 7  94433132.575 7  23061527.781                    23061539.418
 121404833.015 7  94601289.84144  23102551.070                    23102557.563
 122937105.603 7  95795199.13544  23394154.641                    23394164.527
 122687909.763 7  95601051.31544  23346736.102                    23346744.852
 11  8 29  3  7 30.0000000  0 10G26G21G15G12G05G29G25G02G30G18
 111780551.322 7  87101830.38145  21271122.359                    21271130.719
 125180534.014 7  97543357.56044  23821064.313                    23821072.395
 113028253.665 8  88074030.306 7  21508553.109                    21508560.914
 127695972.265 6  99503421.947 6  24299739.188                    24299749.125
 117827638.648 7  91813845.423 7  22421833.242                    22421841.594
 107615829.672 8  83856552.003 8  20478610.430                    20478618.441
 121263182.392 7  94490850.601 7  23075622.648                    23075634.445
 121459135.179 7  94643603.18444  23112885.273                    23112891.863
 123011712.978 7  95853334.72644  23408352.227                    23408361.508
 122617577.919 7  95546247.30144  23333351.742                    23333360.844
 11  8 29  3  8  0.0000000  0 10G26G21G15G12G05G29G25G02G30G18
 111753552.094 8  87080792.05345  21265984.727                    21265992.926
 125121111.328 7  97497054.19244  23809756.414                    23809764.758
 112958176.456 8  88019424.731 7  21495217.328                    21495225.715
 127787942.401 6  99575086.973 6  24317240.594                    24317250.480
 117910529.518 7  91878435.714 7  22437606.391                    22437614.691
 107579874.649 8  83828535.116 8  20471768.836                    20471776.523
 121337440.194 7  94548713.799 7  23089753.563                    23089765.543
 121513576.067 7  94686024.62344  23123245.094                    23123251.277
 123086484.640 7  95911598.33944  23422580.703                    23422590.188
 122547493.600 7  95491636.17044  23320015.148                    23320024.645
 11  8 29  3  8 30.0000000  0 10G26G21G15G12G05G29G25G02G30G18
 111727195.168 8  87060254.22046  21260969.031                    21260977.531
 125061639.927 7  97450712.86944  23798439.375                    23798447.977
 112888499.235 8  87965130.825 7  21481958.281                    21481966.738
 127879828.077 6  99646686.191 6  24334726.117                    24334735.555
 117993532.163 7  91943113.084 7  22453401.609                    22453409.379
 107544382.859 8  83800879.189 8  20465014.969                    20465022.645
 121411880.768 7  94606719.436 7  23103918.859                    23103930.473
 121568155.824 7  94728554.28344  23133630.813                    23133637.504
 123161416.940 7  95969987.12044  23436839.586                    23436849.828
 122477656.462 7  95437217.64644  23306726.758                    23306734.773
 11  8 29  3  9  0.0000000  0 10G26G21G15G12G05G29G25G02G30G18
 111701482.278 8  87040218.23745  21256075.922                    21256084.266
 125002119.038 7  97404332.98844  23787113.664                    23787121.246
 112819224.830 8  87911150.820 7  21468775.641                    21468784.301
 127971626.909 7  99718217.757 6  24352194.688                    24352204.461
 118076644.629 7  92007876.045 7  22469217.266                    22469225.172
 107509356.010 8  83773585.542 8  20458349.352                    20458357.379
 121486501.098 8  94664865.101 7  23118118.406                    23118130.758
 121622875.153 7  94771192.69444  23144043.734                    23144050.816
 123236506.907 7  96028498.76344  23451128.984                    23451138.953
 122408067.200 7  95382992.27044  23293483.664                    23293492.164
 11  8 29  3  9 30.0000000  0 10G26G21G15G12G05G29G25G02G30G18
 111676415.353 8  87020685.60745  21251305.539                    21251314.184
 124942549.180 7  97357914.95944  23775777.203                    23775785.367
 112750355.952 8  87857486.797 7  21455670.414                    21455679.008
 128063336.068 6  99789679.434 6  24369646.383                    24369656.492
 118159864.402 7  92072722.602 7  22485053.563                    22485061.844
 107474796.111 8  83746655.761 8  20451773.008                    20451780.938
 121561298.186 7  94723148.480 7  23132352.781                    23132364.000
 121677734.594 7  94813940.30244  23154483.031                    23154489.773
 123311751.309 7  96087130.78244  23465447.008                    23465457.289
 122338726.344 7  95328960.47244  23280288.398                    23280297.059
 11  8 29  3 10  0.0000000  0 10G26G21G15G12G05G29G25G02G30G18
 111651996.131 8  87001657.66246  21246659.281                    21246667.816
 124882930.039 7  97311458.51244  23764431.688                    23764440.418
 112681895.413 7  87804140.977 7  21442642.828                    21442651.438
 128154952.896 7  99861069.170 6  24387081.000                    24387089.492
 118243190.048 7  92137651.660 7  22500909.867                    22500918.059
 107440705.258 8  83720091.463 8  20445285.625                    20445293.344
 121636268.973 7  94781567.230 7  23146618.734                    23146630.199
 121732734.669 7  94856797.48944  23164949.555                    23164956.273
 123387147.026 7  96145880.67244  23479794.977                    23479804.637
 122269634.499 6  95275122.71044  23267140.688                    23267149.465
 11  8 29  3 10 30.0000000  0 10G26G21G15G12G05G29G25G02G30G18
 111628226.418 8  86983135.84645  21242135.859                    21242144.355
 124823261.672 7  97264963.72244  23753077.406                    23753084.996
 112613846.135 8  87751115.609 7  21429693.422                    21429701.180
 128246475.318 6  99932385.380 6  24404496.789                    24404505.824
 118326619.380 7  92202661.524 7  22516786.094                    22516794.469
 107407085.592 8  83693894.328 8  20438888.141                    20438896.172
 121711410.610 7  94840119.123 7  23160917.945                    23160929.723
 121787876.071 7  94899764.77344  23175442.688                    23175449.813
 123462691.111 7  96204746.16744  23494170.133                    23494180.586
 122200792.116 7  95221479.32744  23254040.297                    23254048.980
 11  8 29  3 11  0.0000000  0 10G26G21G15G12G05G29G25G02G30G18
 111605107.698 8  86965121.27746  21237736.313                    21237744.340
 124763544.340 7  97218430.75944  23741714.266                    23741721.059
 112546210.586 8  87698412.617 7  21416822.664                    21416830.555
 128337900.184 6 100003625.503 5  24421894.820                    24421903.988
 118410150.352 7  92267750.581 7  22532681.453                    22532689.496
 107373938.671 8  83668065.567 8  20432580.023                    20432588.258
 121786719.630 7  94898801.449 7  23175248.594                    23175260.684
 121843158.911 7  94942842.30744  23185962.398                    23185969.066
 123538380.062 7  96263724.57744  23508573.484                    23508583.469
 122132199.632 7  95168030.66644  23240987.063                    23240995.926
 11  8 29  3 11 30.0000000  0 10G26G21G15G12G05G29G25G02G30G18
 111582641.463 8  86947615.14945  21233461.078                    21233469.746
 124703777.568 7  97171859.28944  23730340.148                    23730348.602
 112478991.350 8  87646034.031 7  21404031.281                    21404039.434
 128429225.055 6 100074787.795 5  24439272.242                    24439281.441
 118493780.691 7  92332917.066 7  22548595.859                    22548604.082
 107341266.152 8  83642606.474 8  20426363.039                    20426370.715
 121862192.969 7  94957611.797 6  23189610.773                    23189622.332
 121898583.743 6  94986030.48944  23196509.305                    23196516.480
 123614210.755 7  96322813.42244  23523003.711                    23523013.051
 122063857.484 6  95114777.05844  23227982.023                    23227991.043
 11  8 29  3 12  0.0000000  0 10G26G21G15G12G05G29G25G02G30G18
 111560829.396 8  86930618.76245  21229310.555                    21229318.672
 124643961.860 6  97125249.66844  23718958.094                    23718965.633
 112412191.094 8  87593981.915 7  21391319.773                    21391327.809
 128520447.530 6 100145870.239 5  24456631.672                    24456640.648
 118577508.322 7  92398159.363 7  22564528.680                    22564536.762
 107309069.903 8  83617518.489 8  20420236.195                    20420243.957
 121937827.559 7  95016547.809 6  23204003.539                    23204015.504
 121954151.011 6  95029329.65144  23207083.023                    23207090.223
 123690180.049 7  96382010.26344  23537460.055                    23537469.461
 121995766.190 7  95061718.94344  23215025.250                    23215034.090
 11  8 29  3 12 30.0000000  0 10G26G21G15G12G05G29G25G02G30G18
 111539672.800 8  86914133.12846  21225284.305                    21225293.020
 124584096.661 7  97078601.52444  23707565.781                    23707573.633
 112345812.065 8  87542258.014 7  21378688.070                    21378696.438
 128611564.460 6 100216870.423 5  24473970.219                    24473980.051
 118661331.443 7  92463476.079 7  22580479.672                    22580487.730
 107277351.437 8  83592802.809 8  20414200.406                    20414208.191
 122013620.046 7  95075606.873 6  23218426.539                    23218438.273
 122009861.073 6  95072740.05844  23217685.008                    23217692.148
 123766284.452 7  96441312.38244  23551941.602                    23551952.059
 121927925.749 7  95008856.29144  23202115.469                    23202123.891
 11  8 29  3 13  0.0000000  0 10G26G21G15G12G05G29G25G02G30G18
 111519173.551 8  86898159.70645  21221383.961                    21221391.703
 124524182.730 7  97031915.37344  23696164.688                    23696172.832
 112279857.916 8  87490865.208 7  21366137.555                    21366145.434
 128702573.789 6 100287786.746 6  24491289.516                    24491299.004
 118745248.316 7  92528865.824 7  22596448.781                    22596456.395
 107246113.255 8  83568461.365 8  20408255.992                    20408264.074
 122089567.775 7  95134786.918 7  23232878.625                    23232890.973
 122065714.838 6  95116262.44544  23228313.344                    23228320.730
 123842521.347 7  96500717.77444  23566449.469                    23566459.586
 121860336.985 7  94956189.75644  23189253.641                    23189262.160
